[[{"header":{"parameterUnit":"m.s-1","parameterCategory":1,"la1":30.6,"la2":29.2853,"lo1":-89.7004,"lo2":-87.6739,"dy":0.0162,"dx":0.0183,"nx":112,"ny":82,"refTime":"2026-05-22T00:00:00:Z","depth":0,"parameterNumber":2,"parameterNumberName":"U-component_of_WINDS"},"data":[0.0,0.0,0.0,0.0,0.0,0.0,0.0,0.0,0.0,0.0,0.0,0.0,0.0,0.0,0.0,0.0,0.0,0.0,0.0,0.0,0.0,0.0,0.0,0.0,0.0,0.0,0.0,0.0,0.0,0.0,0.0,0.0,0.0,0.0,0.0,0.0,0.0,0.0,0.0,0.0,0.0,0.0,0.0,0.0,0.0,0.0,0.0,0.0,0.0,0.0,0.0,0.0,0.0,0.0,0.0,0.0,0.0,0.0,0.0,0.0,0.0,0.0,0.0,0.0,0.0,0.0,0.0,0.0,0.0,0.0,0.0,0.0,0.0,0.0,0.0,0.0,0.0,0.0,0.0,0.0,0.0,0.0,0.0,0.0,0.0,0.0,0.0,0.0,0.0,0.0,0.0,-1.5115,-1.6799,-1.776,-1.7688,-1.7565,-1.6591,-1.45,0.0,0.0,0.0,0.0,0.0,0.0,0.0,0.0,0.0,0.0,0.0,0.0,0.0,0.0,0.0,0.0,0.0,0.0,0.0,0.0,0.0,0.0,0.0,0.0,0.0,0.0,0.0,0.0,0.0,0.0,0.0,0.0,0.0,0.0,0.0,0.0,0.0,0.0,0.0,0.0,0.0,0.0,0.0,0.0,0.0,0.0,0.0,0.0,0.0,0.0,0.0,0.0,0.0,0.0,0.0,0.0,0.0,0.0,0.0,0.0,0.0,0.0,0.0,0.0,0.0,0.0,0.0,0.0,0.0,0.0,0.0,0.0,0.0,0.0,0.0,0.0,0.0,0.0,0.0,0.0,0.0,0.0,0.0,0.0,0.0,0.0,0.0,0.0,0.0,0.0,0.0,0.0,0.0,0.0,0.0,0.0,0.0,0.0,0.0,0.0,0.0,0.0,0.0,0.0,-1.3397,-1.7279,-1.7699,-1.7921,-1.8476,-1.7895,-1.6824,-1.5226,0.0,0.0,0.0,0.0,0.0,0.0,0.0,0.0,0.0,0.0,0.0,0.0,0.0,0.0,0.0,0.0,0.0,0.0,0.0,0.0,0.0,0.0,0.0,0.0,0.0,0.0,0.0,0.0,0.0,0.0,0.0,0.0,0.0,0.0,0.0,0.0,0.0,0.0,0.0,0.0,0.0,0.0,0.0,0.0,0.0,0.0,0.0,0.0,0.0,0.0,0.0,0.0,0.0,0.0,0.0,0.0,0.0,0.0,0.0,0.0,0.0,0.0,0.0,0.0,0.0,0.0,0.0,0.0,0.0,0.0,0.0,0.0,0.0,0.0,0.0,0.0,0.0,0.0,0.0,0.0,0.0,0.0,0.0,0.0,0.0,0.0,0.0,0.0,0.0,0.0,0.0,0.0,0.0,0.0,0.0,0.0,0.0,0.0,0.0,0.0,0.0,0.0,0.0,-1.2965,-1.5049,-1.858,-1.875,-1.8711,-1.891,-1.8444,-1.7329,-1.5419,-1.3923,0.0,0.0,0.0,0.0,0.0,0.0,0.0,0.0,0.0,0.0,0.0,0.0,0.0,0.0,0.0,0.0,0.0,0.0,0.0,0.0,0.0,0.0,0.0,0.0,0.0,0.0,0.0,0.0,0.0,0.0,0.0,0.0,0.0,0.0,0.0,0.0,0.0,0.0,0.0,0.0,0.0,0.0,0.0,0.0,0.0,0.0,0.0,0.0,0.0,0.0,0.0,0.0,0.0,0.0,0.0,0.0,0.0,0.0,0.0,0.0,0.0,0.0,0.0,0.0,0.0,0.0,0.0,0.0,0.0,0.0,0.0,0.0,0.0,0.0,0.0,0.0,0.0,0.0,0.0,0.0,0.0,0.0,0.0,0.0,0.0,0.0,0.0,0.0,0.0,0.0,0.0,0.0,0.0,0.0,0.0,0.0,0.0,0.0,0.0,0.0,0.0,0.0,-1.5656,-1.7115,-1.9681,-1.9815,-1.9617,-1.9406,-1.8865,-1.7617,-1.5446,-1.3757,0.0,0.0,0.0,0.0,0.0,0.0,0.0,0.0,0.0,0.0,0.0,0.0,0.0,0.0,0.0,0.0,0.0,0.0,0.0,0.0,0.0,0.0,0.0,0.0,0.0,0.0,0.0,0.0,0.0,0.0,0.0,0.0,0.0,0.0,0.0,0.0,0.0,0.0,0.0,0.0,0.0,0.0,0.0,0.0,0.0,0.0,0.0,0.0,0.0,0.0,0.0,0.0,0.0,0.0,0.0,0.0,0.0,0.0,0.0,0.0,0.0,0.0,0.0,0.0,0.0,0.0,0.0,0.0,0.0,0.0,0.0,0.0,0.0,0.0,0.0,0.0,0.0,0.0,0.0,0.0,0.0,0.0,0.0,0.0,0.0,0.0,0.0,0.0,0.0,0.0,0.0,0.0,0.0,0.0,0.0,0.0,0.0,0.0,0.0,0.0,0.0,0.0,-1.6827,-1.918,-2.0815,-2.0766,-2.0494,-2.0242,-1.8876,-1.7258,-1.5423,-1.3276,0.0,0.0,0.0,0.0,0.0,0.0,0.0,0.0,0.0,0.0,0.0,0.0,0.0,0.0,0.0,0.0,0.0,0.0,0.0,0.0,0.0,0.0,0.0,0.0,0.0,0.0,0.0,0.0,0.0,0.0,0.0,0.0,0.0,0.0,0.0,0.0,0.0,0.0,0.0,0.0,0.0,0.0,0.0,0.0,0.0,0.0,0.0,0.0,0.0,0.0,0.0,0.0,0.0,0.0,0.0,0.0,0.0,0.0,0.0,0.0,0.0,0.0,0.0,0.0,0.0,0.0,0.0,0.0,0.0,0.0,0.0,0.0,0.0,0.0,0.0,0.0,0.0,0.0,0.0,0.0,0.0,0.0,0.0,0.0,0.0,0.0,0.0,0.0,0.0,0.0,0.0,0.0,0.0,0.0,0.0,0.0,0.0,0.0,0.0,0.0,0.0,0.0,-1.7149,-1.9075,0.0,-2.175,-2.1316,-2.0386,-1.9778,-1.8246,-1.5473,0.0,0.0,0.0,0.0,0.0,0.0,0.0,0.0,0.0,0.0,0.0,0.0,0.0,0.0,0.0,0.0,0.0,0.0,0.0,0.0,0.0,0.0,0.0,0.0,0.0,0.0,0.0,0.0,0.0,0.0,0.0,0.0,0.0,0.0,0.0,0.0,0.0,0.0,0.0,0.0,0.0,0.0,0.0,0.0,0.0,0.0,0.0,0.0,0.0,0.0,0.0,0.0,0.0,0.0,0.0,0.0,0.0,0.0,0.0,0.0,0.0,0.0,0.0,0.0,0.0,0.0,0.0,0.0,0.0,0.0,0.0,0.0,0.0,0.0,0.0,0.0,0.0,0.0,0.0,0.0,0.0,0.0,0.0,0.0,0.0,0.0,0.0,0.0,0.0,0.0,0.0,0.0,0.0,0.0,0.0,0.0,0.0,0.0,0.0,0.0,0.0,0.0,-1.6342,-1.7997,-1.9813,0.0,-2.2564,-2.2051,-2.0541,-2.0111,-1.8512,-1.5188,0.0,0.0,0.0,0.0,0.0,0.0,0.0,0.0,0.0,0.0,0.0,0.0,0.0,0.0,0.0,0.0,0.0,0.0,0.0,0.0,0.0,0.0,0.0,0.0,0.0,0.0,0.0,0.0,0.0,0.0,0.0,0.0,0.0,0.0,0.0,0.0,0.0,0.0,0.0,0.0,0.0,0.0,0.0,0.0,0.0,0.0,0.0,0.0,0.0,0.0,0.0,0.0,0.0,0.0,0.0,0.0,0.0,0.0,0.0,0.0,0.0,0.0,0.0,0.0,0.0,0.0,0.0,0.0,0.0,0.0,0.0,0.0,0.0,0.0,0.0,0.0,0.0,0.0,0.0,0.0,0.0,0.0,0.0,0.0,0.0,0.0,0.0,0.0,0.0,0.0,0.0,0.0,0.0,0.0,0.0,0.0,0.0,0.0,0.0,0.0,0.0,0.0,-1.6512,-1.9522,-2.1812,-2.2626,-2.3134,-2.2668,-2.0848,-1.9728,-1.7736,0.0,0.0,0.0,0.0,0.0,0.0,0.0,0.0,0.0,0.0,0.0,0.0,0.0,0.0,0.0,0.0,0.0,0.0,0.0,0.0,0.0,0.0,0.0,0.0,0.0,0.0,0.0,0.0,0.0,0.0,0.0,0.0,0.0,0.0,0.0,0.0,0.0,0.0,0.0,0.0,0.0,0.0,0.0,0.0,0.0,0.0,0.0,0.0,0.0,0.0,0.0,0.0,0.0,0.0,0.0,0.0,0.0,0.0,0.0,0.0,0.0,0.0,0.0,0.0,0.0,0.0,0.0,0.0,0.0,0.0,0.0,0.0,0.0,0.0,0.0,0.0,0.0,0.0,0.0,0.0,0.0,0.0,0.0,0.0,0.0,0.0,0.0,0.0,0.0,0.0,0.0,0.0,0.0,0.0,0.0,0.0,0.0,0.0,0.0,0.0,0.0,0.0,0.0,-1.8045,-2.021,-2.1962,-2.3149,-2.3509,-2.2807,-2.0611,-2.0303,-1.8525,-1.4556,0.0,0.0,0.0,0.0,0.0,0.0,0.0,0.0,0.0,0.0,0.0,0.0,0.0,0.0,0.0,0.0,0.0,0.0,0.0,0.0,0.0,0.0,0.0,0.0,0.0,0.0,0.0,0.0,0.0,0.0,0.0,0.0,0.0,0.0,0.0,0.0,0.0,0.0,0.0,0.0,0.0,0.0,0.0,0.0,0.0,0.0,0.0,0.0,0.0,0.0,0.0,0.0,0.0,0.0,0.0,0.0,0.0,0.0,0.0,0.0,0.0,0.0,0.0,0.0,0.0,0.0,0.0,0.0,0.0,0.0,0.0,0.0,0.0,0.0,0.0,0.0,0.0,0.0,0.0,0.0,0.0,0.0,0.0,0.0,0.0,0.0,0.0,0.0,0.0,0.0,0.0,0.0,0.0,0.0,0.0,0.0,0.0,0.0,0.0,0.0,0.0,0.0,-1.8697,-2.0499,-2.2044,-2.3469,-2.3558,-2.2707,-2.0657,-2.0448,-1.8675,-1.4591,0.0,0.0,0.0,0.0,0.0,0.0,0.0,0.0,0.0,0.0,0.0,0.0,0.0,0.0,0.0,0.0,0.0,0.0,0.0,0.0,0.0,0.0,0.0,0.0,0.0,0.0,0.0,0.0,0.0,0.0,0.0,0.0,0.0,0.0,0.0,0.0,0.0,0.0,0.0,0.0,0.0,0.0,0.0,0.0,0.0,0.0,0.0,0.0,0.0,0.0,0.0,0.0,0.0,0.0,0.0,0.0,0.0,0.0,0.0,0.0,0.0,0.0,0.0,0.0,0.0,0.0,0.0,0.0,0.0,0.0,0.0,0.0,0.0,0.0,0.0,0.0,0.0,0.0,0.0,0.0,0.0,0.0,0.0,0.0,0.0,0.0,0.0,0.0,0.0,0.0,0.0,0.0,0.0,0.0,0.0,0.0,0.0,0.0,0.0,0.0,0.0,0.0,-1.8697,-2.0572,-2.2165,-2.3632,-2.3416,-2.2553,-2.1033,-2.0388,-1.8481,-1.4737,0.0,0.0,0.0,0.0,0.0,0.0,0.0,0.0,0.0,0.0,0.0,0.0,0.0,0.0,0.0,0.0,0.0,0.0,0.0,0.0,0.0,0.0,0.0,0.0,0.0,0.0,0.0,0.0,0.0,0.0,0.0,0.0,0.0,0.0,0.0,0.0,0.0,0.0,0.0,0.0,0.0,0.0,0.0,0.0,0.0,0.0,0.0,0.0,0.0,0.0,0.0,0.0,0.0,0.0,0.0,0.0,0.0,0.0,0.0,0.0,-2.0043,0.0,0.0,0.0,0.0,0.0,0.0,0.0,0.0,0.0,0.0,0.0,0.0,0.0,0.0,0.0,0.0,0.0,0.0,0.0,0.0,0.0,0.0,0.0,0.0,0.0,0.0,0.0,0.0,0.0,0.0,0.0,0.0,0.0,0.0,0.0,0.0,0.0,0.0,0.0,0.0,0.0,-1.8769,-2.1061,-2.2789,-2.3705,-2.3721,-2.3112,-2.1784,-2.1027,-1.9098,-1.5495,-1.3874,0.0,0.0,0.0,0.0,0.0,0.0,0.0,0.0,0.0,0.0,0.0,0.0,0.0,0.0,0.0,0.0,0.0,0.0,0.0,0.0,0.0,0.0,0.0,0.0,0.0,0.0,0.0,0.0,0.0,0.0,0.0,0.0,0.0,0.0,0.0,0.0,0.0,0.0,0.0,0.0,0.0,0.0,0.0,0.0,0.0,0.0,0.0,0.0,0.0,0.0,0.0,0.0,0.0,0.0,0.0,0.0,0.0,0.0,0.0,0.0,-1.9014,0.0,0.0,0.0,0.0,0.0,0.0,0.0,0.0,0.0,0.0,0.0,0.0,0.0,0.0,0.0,0.0,0.0,0.0,0.0,0.0,0.0,0.0,0.0,0.0,0.0,0.0,0.0,0.0,0.0,0.0,0.0,0.0,0.0,0.0,0.0,0.0,0.0,0.0,0.0,0.0,-1.9359,-2.1459,-2.297,-2.3723,-2.371,-2.3235,-2.2183,-2.13,-1.9643,-1.6912,-1.4996,0.0,0.0,0.0,0.0,0.0,0.0,0.0,0.0,0.0,0.0,0.0,0.0,0.0,0.0,0.0,0.0,0.0,0.0,0.0,0.0,0.0,0.0,0.0,0.0,0.0,0.0,0.0,0.0,0.0,0.0,0.0,0.0,0.0,0.0,0.0,0.0,0.0,0.0,0.0,0.0,0.0,0.0,0.0,0.0,0.0,0.0,0.0,0.0,0.0,0.0,0.0,0.0,0.0,-2.8773,-2.8761,-2.8935,-2.8982,-2.9317,-2.9525,-2.4042,-2.2169,-2.2837,-2.0877,0.0,0.0,0.0,0.0,0.0,0.0,0.0,0.0,0.0,0.0,0.0,0.0,0.0,0.0,0.0,0.0,0.0,0.0,0.0,0.0,0.0,0.0,0.0,0.0,-2.2129,-2.2202,0.0,0.0,0.0,0.0,0.0,0.0,0.0,0.0,0.0,0.0,0.0,0.0,-2.0192,-2.1912,-2.3125,-2.3723,-2.3653,-2.3251,-2.2506,-2.1421,-2.0066,-1.8351,-1.6222,-1.4289,0.0,0.0,0.0,0.0,0.0,0.0,0.0,0.0,0.0,0.0,0.0,0.0,0.0,0.0,0.0,0.0,0.0,0.0,0.0,0.0,0.0,0.0,0.0,0.0,0.0,0.0,0.0,0.0,0.0,0.0,0.0,0.0,-1.3801,-1.3864,0.0,0.0,0.0,0.0,0.0,0.0,0.0,0.0,0.0,0.0,0.0,0.0,0.0,-2.3125,-2.3547,-2.6327,-2.8161,-2.9005,-2.897,-2.8834,-2.8662,-2.8881,-3.0509,-3.3128,-3.2239,0.0,-1.9892,-2.2231,0.0,0.0,0.0,0.0,0.0,0.0,0.0,0.0,0.0,0.0,0.0,0.0,0.0,0.0,0.0,0.0,0.0,0.0,0.0,0.0,0.0,0.0,-2.5117,-2.452,-2.4538,-2.4556,0.0,-2.1215,-1.8479,-1.7465,-1.6226,0.0,0.0,0.0,0.0,0.0,0.0,0.0,-2.1025,-2.2691,-2.3687,-2.3788,-2.3774,-2.3548,-2.3047,-2.1649,-2.022,-1.8874,-1.7259,-1.5644,-1.4089,-1.2656,0.0,0.0,0.0,0.0,0.0,0.0,0.0,0.0,0.0,0.0,0.0,0.0,0.0,0.0,0.0,0.0,0.0,0.0,0.0,0.0,0.0,0.0,0.0,0.0,0.0,0.0,0.0,0.0,0.0,-1.4836,-1.7197,-1.7197,-1.7197,-1.65,0.0,0.0,0.0,0.0,0.0,0.0,0.0,0.0,0.0,-2.4749,-2.6143,-2.6895,-2.6895,-3.0099,-3.1702,-3.1702,-3.1702,-3.1633,-3.1456,-2.9618,-3.0611,-3.3807,-3.3807,-3.1347,-2.7328,-2.6903,-2.488,-2.1969,0.0,0.0,0.0,0.0,-1.9477,-2.6312,-2.4925,-2.6265,0.0,-2.6482,0.0,0.0,0.0,0.0,0.0,0.0,0.0,0.0,0.0,0.0,-2.6951,-2.706,-2.7042,-2.6898,-2.6457,-2.499,-2.2998,0.0,-1.9359,-1.8336,-1.6624,0.0,0.0,0.0,0.0,-2.0463,-2.1975,-2.3125,-2.3806,-2.3806,-2.3806,-2.3721,-2.3506,-2.2493,-2.1313,-2.0061,-1.8527,-1.7064,-1.5708,-1.3833,-1.2488,0.0,0.0,0.0,0.0,0.0,0.0,0.0,0.0,0.0,0.0,0.0,0.0,0.0,0.0,0.0,0.0,0.0,0.0,0.0,0.0,0.0,0.0,0.0,0.0,0.0,0.0,0.0,0.0,-1.7326,-1.9609,-1.9334,-2.005,-1.9271,0.0,0.0,0.0,0.0,0.0,0.0,-2.9922,-3.2504,-3.2706,-3.0289,-3.0234,-3.0234,-3.0234,-3.2596,-3.3807,-3.3807,-3.3807,-3.3807,-3.3752,-3.1982,-3.2593,-3.5055,-3.5055,-3.4578,-3.3605,-3.1219,-2.8822,-2.6447,-2.4313,-2.2786,-2.1575,-1.9918,-2.38,-2.9917,-2.9839,-2.983,-2.9432,-2.7037,-2.7919,-2.9955,-3.0087,0.0,0.0,0.0,0.0,-2.5808,-2.7214,-2.7979,-2.8554,-2.9141,-2.9103,-2.8726,-2.8141,-2.7695,-2.6464,0.0,-2.2546,-2.1767,-1.9748,0.0,0.0,0.0,0.0,-2.1848,-2.2843,-2.3451,-2.3806,-2.3806,-2.3806,-2.3774,-2.3721,-2.3025,-2.2049,-2.0791,-1.943,-1.8172,-1.6993,-1.5158,-1.3985,-1.3563,0.0,0.0,0.0,0.0,0.0,0.0,0.0,0.0,0.0,0.0,0.0,0.0,0.0,0.0,0.0,0.0,0.0,0.0,0.0,0.0,0.0,0.0,0.0,0.0,0.0,0.0,0.0,0.0,0.0,-1.9426,-2.2042,0.0,0.0,0.0,0.0,-2.3474,-2.6693,-2.9977,-3.3385,-3.3715,-3.3733,-3.3568,-3.355,-3.355,-3.355,-3.3715,-3.3807,-3.3807,-3.3807,-3.3807,-3.3899,-3.6857,-3.8288,-3.845,-3.845,-3.6688,-3.3788,-3.3623,-3.3458,-3.2999,-2.9867,-2.8572,-2.8858,-3.1757,-3.3115,-3.3496,-3.3259,-3.3158,-3.314,-3.2977,-3.3194,-3.3483,-3.3241,-3.1719,0.0,0.0,-3.0522,-2.9707,-3.0545,-3.0799,-3.0835,-3.0871,-3.0292,-2.973,-2.9694,-2.8485,-2.7115,0.0,-2.5353,-2.4538,-2.3661,0.0,-2.1631,-2.2391,-2.1938,-2.2039,-2.3542,-2.3788,-2.3806,-2.3806,-2.3806,-2.3721,-2.3538,-2.2786,-2.1781,-2.0489,-1.9693,-1.8777,-1.7687,-1.6927,-1.5816,-1.4276,-1.3418,0.0,0.0,0.0,0.0,0.0,0.0,0.0,0.0,0.0,0.0,0.0,0.0,0.0,0.0,0.0,0.0,0.0,0.0,0.0,0.0,0.0,0.0,0.0,0.0,0.0,0.0,0.0,0.0,-2.5262,-2.5364,0.0,-2.5519,-2.3676,-2.3804,-2.7042,-3.0271,-3.2596,-3.3733,-3.3807,-3.333,-3.2296,-3.3256,-3.3807,-3.3807,-3.5899,-3.6945,-3.6945,-3.6945,-3.6945,-3.7,-3.8175,-3.8707,-3.8707,-3.8707,-3.8046,-3.6945,-3.6945,-3.5716,-3.3899,-3.4857,-3.394,-3.2228,-3.3385,-3.3807,-3.3793,-3.3684,-3.3675,-3.4022,-3.6123,-3.6875,-3.6659,-3.5147,-3.3679,-3.2497,-3.2346,-3.1949,-3.1594,-3.1891,-3.1924,-3.1883,-3.186,-3.1189,-3.0581,-3.0581,-2.9712,-2.886,-2.857,-2.7037,-2.5516,-2.4701,-2.4556,-2.4447,-2.4212,-2.4375,-2.4719,-2.528,-2.5335,-2.5153,-2.4628,-2.4574,-2.4324,-2.3743,-2.3307,-2.2376,-2.0753,-2.0416,-1.9496,-1.7834,-1.7201,-1.6342,-1.5156,-1.3863,-1.1988,0.0,0.0,0.0,0.0,0.0,0.0,0.0,0.0,0.0,0.0,0.0,0.0,0.0,0.0,0.0,0.0,0.0,0.0,0.0,0.0,0.0,0.0,0.0,0.0,0.0,0.0,-2.5071,-2.8106,-2.7996,-2.7897,-2.8418,-2.7346,-2.7732,-3.0418,-3.2596,-3.3807,-3.3807,-3.3807,-3.3311,-3.2228,-3.3238,-3.4339,-3.544,-3.7606,-3.8707,-3.8707,-3.8707,-3.8707,-3.8707,-3.8707,-3.8707,-3.8707,-3.8707,-3.8707,-3.8707,-3.8707,-3.7422,-3.5679,-3.7863,-3.7367,-3.5459,-3.5459,-3.5459,-3.5459,-3.5459,-3.5459,-3.5807,-3.7991,-3.8707,-3.8343,-3.6461,-3.5264,-3.4398,-3.3895,-3.3716,-3.3616,-3.3346,-3.3246,-3.3131,-3.2802,-3.206,-3.1442,-3.1442,-3.0794,-3.0129,-2.9857,-2.8286,-2.6844,-2.6312,-2.6427,-2.6421,-2.5896,-2.6041,-2.6204,-2.6204,-2.6204,-2.6005,-2.5461,-2.5153,-2.4773,-2.4248,-2.3512,-2.254,-2.1256,-2.0611,-1.9657,-1.8228,-1.7348,-1.6472,-1.5583,-1.3745,-1.1981,-1.0333,0.0,0.0,0.0,0.0,0.0,0.0,0.0,0.0,0.0,0.0,0.0,0.0,0.0,0.0,0.0,0.0,0.0,0.0,0.0,0.0,0.0,0.0,0.0,-2.0417,-2.3657,-2.6914,-2.7464,-2.9824,-3.0393,-2.7849,-2.9953,-3.2131,-3.3678,-3.3899,-3.3954,-3.3954,-3.3954,-3.3917,-3.3807,-3.3899,-3.5477,-3.867,-3.8707,-3.8707,-3.8707,-3.8707,-3.8707,-3.8707,-3.8707,-3.8707,-3.8707,-3.8707,-3.8707,-3.8707,-3.8707,-3.8707,-3.8707,-3.8707,-3.8707,-3.8707,-3.8707,-3.8707,-3.8707,-3.8707,-3.8707,-3.8707,-3.8707,-3.8707,-3.8475,-3.7302,-3.6574,-3.6117,-3.606,-3.6027,-3.5826,-3.5042,-3.4819,-3.4604,-3.3824,-3.2966,-3.2328,-3.2328,-3.1637,-3.0817,-3.002,-2.9192,-2.8636,-2.86,-2.7948,-2.7441,-2.7441,-2.6771,0.0,-2.6276,-2.6276,-2.6258,-2.6222,-2.5497,-2.5027,-2.4972,-2.3354,-2.2195,-2.1884,-2.0279,-1.9201,-1.8872,-1.7495,-1.6363,-1.5553,-1.3265,-1.1759,-1.1106,0.0,0.0,0.0,0.0,0.0,0.0,0.0,0.0,0.0,0.0,0.0,0.0,0.0,0.0,0.0,0.0,0.0,0.0,0.0,0.0,0.0,0.0,-2.9163,-2.4649,-2.7016,-2.9475,-3.021,-3.0956,-3.158,-3.2008,-3.2706,-3.3311,-3.377,-3.6009,-3.7349,-3.7349,-3.7349,-3.6266,-3.388,-3.6119,-3.779,-3.8689,-3.8707,-3.8707,-3.8707,-3.8707,-3.8707,-3.8707,-3.8707,-3.8707,-3.8707,-3.8707,-3.8707,-3.8707,-3.8707,-3.8707,-3.8707,-3.8707,-3.8707,-3.8707,-3.8707,-3.8707,-3.8707,-3.8707,-3.8707,-3.8707,-3.8707,-3.8707,-3.8637,-3.831,-3.7686,-3.7099,-3.7084,-3.6666,-3.6139,-3.5824,-3.5312,-3.4804,-3.4527,-3.38,-3.3164,-3.3164,-3.249,-3.1799,-3.1582,-3.0418,-2.9282,-2.8708,-2.8419,-2.8274,-2.8274,-2.8075,0.0,-2.7948,-2.7948,-2.7495,-2.6331,-2.6005,-2.5407,-2.423,-2.353,-2.2587,-2.1185,-2.064,-1.9703,-1.8172,-1.784,-1.7256,-1.6244,-1.4586,-1.3602,0.0,0.0,0.0,0.0,0.0,0.0,0.0,0.0,0.0,0.0,0.0,0.0,0.0,0.0,0.0,0.0,0.0,0.0,0.0,0.0,0.0,0.0,-3.3018,-3.1641,-2.9457,-3.0338,-3.1384,-3.1843,-3.2504,-3.3275,-3.4197,-3.4633,-3.4853,-3.4853,-3.7239,-3.8707,-3.8707,-3.8707,-3.7826,-3.5917,-3.7698,-3.8707,-3.8707,-3.8707,-3.8707,-3.8707,-3.8707,-3.8707,-3.8707,-3.8707,-3.8707,-3.8707,-3.8707,-3.8707,-3.8726,-3.9184,-3.9313,0.0,0.0,0.0,0.0,0.0,-3.8707,-3.8707,-3.8707,-3.8707,-3.8707,-3.8707,-3.8707,-3.8707,-3.8707,-3.8377,-3.7991,-3.7991,-3.7661,-3.7206,-3.6776,-3.6307,-3.5729,-3.5009,-3.4415,-3.3909,-3.3564,-3.3089,-3.2596,-3.227,-3.1437,0.0,-2.93,-2.8817,-2.86,-2.86,-2.86,-2.86,-2.86,-2.86,-2.8238,-2.7314,-2.6898,-2.6186,-2.49,-2.4008,0.0,0.0,0.0,-1.9768,-1.7873,-1.7599,0.0,0.0,0.0,0.0,0.0,0.0,0.0,0.0,-1.1859,-1.2307,0.0,0.0,0.0,0.0,0.0,0.0,0.0,0.0,0.0,0.0,0.0,0.0,0.0,0.0,0.0,0.0,-3.3917,-3.3972,-3.3935,-3.3421,-3.2986,-3.2876,-3.4215,-3.5188,-3.5279,-3.5954,-3.6431,-3.656,-3.79,-3.8707,-3.8707,0.0,0.0,0.0,0.0,-3.8707,-3.8707,-3.8707,-3.8707,-3.8707,-3.8707,-3.8707,-3.8707,-3.8707,-3.8799,-3.8982,-3.8909,-3.8946,-3.9129,-4.0029,-4.0249,-3.9955,-3.9148,-3.8781,-3.8707,-3.8707,-3.8707,-3.8707,-3.8707,0.0,0.0,-3.8707,-3.8707,-3.8707,-3.8707,-3.8707,-3.8707,-3.8707,-3.8707,-3.8542,-3.7823,-3.7488,-3.6936,-3.5428,-3.4878,-3.4506,-3.3687,-3.3466,-3.3208,-3.2469,-3.2252,-3.1709,-3.0201,-2.9264,-2.8708,-2.8618,-2.86,-2.86,-2.86,-2.86,-2.8582,-2.8473,0.0,0.0,-2.6276,-2.4635,-2.3632,-2.3515,-2.1552,-1.9716,-1.8161,-1.7378,-1.6699,-1.6109,-1.6031,-1.598,-1.5911,-1.5923,-1.6214,-1.6741,-1.4513,-1.428,0.0,0.0,0.0,0.0,0.0,0.0,0.0,0.0,0.0,0.0,0.0,0.0,0.0,0.0,0.0,-3.3348,-3.4559,-3.5073,-3.4802,-3.5238,-3.533,-3.4619,-3.5426,-3.6303,-3.696,-3.6964,-3.7294,-3.8175,-3.8524,-3.8707,-3.8707,-3.8707,-3.8707,-3.8707,-3.8707,-3.8707,-3.8707,-3.8707,-3.8707,-3.8707,0.0,0.0,-3.8707,-3.8707,-3.9407,-4.06,-4.0178,-4.0487,-4.1256,-4.1038,-4.0912,-4.0799,-3.9974,-3.9276,-3.8707,-3.8707,-3.8707,-3.8707,-3.8707,-3.8707,-3.8707,-3.8707,-3.8707,-3.8707,-3.8707,-3.8707,0.0,-3.8707,-3.8707,-3.867,-3.8505,-3.7973,-3.7224,-3.6252,-3.5428,-3.4629,-3.3769,-3.352,-3.3412,-3.3208,-3.2632,-3.189,-3.0926,-3.011,-2.9355,-2.8708,-2.86,-2.86,-2.86,-2.86,-2.8346,-2.7695,-2.7495,-2.7061,-2.6276,-2.5283,-2.4363,-2.3549,-2.1546,-2.0246,-1.9923,-1.9549,-1.9268,-1.9149,-1.9133,-1.9096,-1.9031,-1.9076,-1.9148,-1.9173,-1.6898,-1.6581,0.0,0.0,0.0,0.0,0.0,0.0,0.0,0.0,0.0,0.0,0.0,-2.3061,-2.5383,0.0,-3.2113,-3.4302,-3.5,-3.5334,-3.561,-3.6376,-3.6578,-3.5752,-3.6395,-3.707,-3.7456,-3.7734,-3.812,-3.867,-4.0194,-4.0744,-3.9955,-3.9884,-3.9884,-3.9884,-3.9884,-4.0304,-4.1093,-4.1093,-4.1093,-4.1093,-4.1093,-4.0689,-3.9918,-4.0175,-4.0726,-4.146,-4.0946,-4.0985,-4.1515,-4.1644,-4.1937,-4.2213,-4.1423,-4.0616,-3.9866,-3.9591,-3.9515,-3.9551,-3.9811,-3.9735,-3.9515,-3.9515,-3.9148,-3.8707,-3.8707,-3.8707,-3.8707,-3.8707,-3.8707,-3.8707,-3.8707,-3.8346,-3.7692,-3.6483,-3.5791,-3.5064,-3.3818,-3.3509,-3.3437,-3.3411,-3.3085,-3.2415,-3.1202,-3.0672,-2.9989,-2.8781,-2.86,-2.86,-2.86,-2.86,-2.8455,-2.8038,-2.8002,-2.7676,-2.6862,-2.5697,-2.4721,-2.4092,-2.2339,-2.1243,-2.1006,-2.0499,-2.0135,-2.0006,-1.9989,-1.998,-1.995,-1.9972,-2.0148,-2.0421,-1.9324,-1.9115,0.0,0.0,0.0,0.0,0.0,0.0,0.0,0.0,-2.2575,-2.2896,-2.475,-2.6715,-2.7952,-3.0063,-3.2449,-3.4981,-3.5316,-3.5555,-3.6413,-3.7235,-3.7492,-3.6835,-3.7331,-3.7731,-3.7731,-3.8322,-3.8707,-3.8707,-4.1387,-4.2598,-4.1625,-4.1572,-4.1572,-4.1572,-4.1572,-4.2194,-4.3496,-4.3515,-4.3515,-4.3515,-4.3515,-4.2708,-4.1277,-4.1715,-4.1936,-4.1972,-4.1699,-4.1572,-4.1625,-4.2268,-4.291,-4.3441,-4.2782,-4.2139,-4.1479,-4.0728,-4.0453,-4.0508,-4.0948,-4.082,-4.0416,-4.0286,-3.9643,-3.8909,-3.8762,-3.8707,-3.8707,-3.8707,-3.8707,-3.8707,-3.8707,-3.8624,-3.8123,-3.6512,-3.6039,-3.5481,-3.3866,-3.3466,-3.3408,-3.3393,-3.3393,-3.294,-3.1473,-3.1107,-3.0441,-2.8835,-2.86,-2.86,-2.86,-2.86,-2.86,-2.86,-2.86,-2.8274,-2.7477,-2.6065,-2.5052,-2.4623,-2.3301,-2.2344,-2.1918,-2.1226,-2.0752,-2.0531,-2.0479,-2.0458,-2.0449,-2.0449,-2.0729,-2.1236,-2.1291,-2.122,-1.806,-1.8353,-1.9058,-1.9667,-2.0181,-2.1272,0.0,0.0,-2.7904,-2.7255,-2.8484,-2.9934,-3.0779,-3.1788,-3.3023,-3.4766,-3.5679,-3.6431,-3.7254,-3.8065,-3.8524,-3.845,-3.8505,-3.8579,-3.8579,-3.8652,-3.8707,-3.8707,-4.0359,-4.1919,-4.3149,-4.3222,-4.3222,-4.3222,-4.3222,-4.3331,-4.3515,-4.3515,-4.3515,-4.3515,-4.3515,-4.2909,-4.1807,-4.1862,-4.2027,-4.2286,-4.2947,-4.3222,-4.3239,-4.3331,-4.3423,-4.3496,-4.3387,-4.3296,-4.3039,-4.157,-4.1003,-4.1022,-4.1077,-4.1058,-4.0893,-4.0175,-3.9845,-3.9625,-3.8927,-3.8707,-3.8707,-3.8707,-3.8707,-3.8707,-3.8707,-3.8692,-3.827,-3.6655,-3.6175,-3.5612,-3.3952,-3.3534,-3.3466,-3.3408,-3.3393,-3.3121,-3.2216,-3.1473,-3.0441,-2.8835,-2.86,-2.86,-2.86,-2.86,-2.86,-2.86,-2.86,-2.8274,-2.7477,-2.6572,-2.5648,-2.4659,-2.3825,-2.3247,-2.2944,-2.2629,-2.2427,-2.2401,-2.2163,-2.2043,-2.2043,-2.2043,-2.2079,-2.215,-2.2093,-2.2003,-2.0923,-2.1198,-2.1657,0.0,-2.3088,-2.3979,-2.5695,-2.7236,-2.8466,-2.9072,-3.0485,-3.1702,-3.2045,-3.2761,-3.3844,0.0,-3.6064,-3.6743,-3.801,-3.8065,-3.7991,-3.7991,-3.7991,-3.8193,-3.8652,-3.8707,-3.8707,-3.8707,-4.0487,-4.1717,-4.2084,-4.2983,-4.3515,-4.3515,-4.3515,-4.3515,-4.3515,-4.3515,-4.3515,-4.3515,-4.3515,-4.3276,-4.2835,-4.2835,-4.289,-4.302,-4.3349,-4.3515,-4.3515,-4.3515,-4.3515,-4.3515,-4.3515,-4.3515,-4.3423,-4.2745,-4.2506,-4.2506,-4.2506,-4.2194,-4.1754,-4.1405,-4.0653,-3.9827,-3.9496,-3.9074,-3.8707,-3.8707,-3.8707,-3.8707,-3.8707,-3.8707,-3.827,-3.6575,-3.6098,-3.5586,-3.3909,-3.3495,-3.3437,-3.3411,-3.3393,-3.314,-3.2343,-3.1908,-3.1148,-2.9536,-2.8889,-2.86,-2.86,-2.86,-2.86,-2.86,-2.86,-2.8455,-2.8129,-2.7216,-2.6265,-2.5355,-2.4419,-2.3596,-2.2906,-2.2897,-2.2786,-2.2474,-2.2515,-2.246,-2.2296,-2.2296,-2.2296,-2.2296,-2.2268,-2.224,-2.252,-2.2988,0.0,-2.4612,-2.5621,-2.6594,-2.742,-2.8393,-2.9384,-3.0338,-3.1641,-3.2528,-3.2307,-3.2926,-3.3935,-3.5385,-3.5991,-3.678,-3.8175,-3.7878,-3.7492,-3.7492,-3.7492,-3.7731,-3.8303,-3.8579,-3.8799,-3.9019,-4.0671,-4.1607,-4.1425,-4.2745,-4.3515,-4.3515,-4.3515,-4.3515,-4.3515,-4.3515,-4.3515,-4.3515,-4.3515,-4.3515,-4.3515,-4.3515,-4.3515,-4.3515,-4.3515,-4.3515,-4.3515,-4.3515,-4.3515,-4.3515,-4.3515,-4.3515,-4.3515,-4.3515,-4.3515,-4.3515,-4.3515,-4.3112,-4.2598,-4.2378,-4.135,-4.0194,-3.9955,-3.9331,-3.8707,-3.8707,-3.8707,-3.8707,-3.8707,-3.8707,-3.831,-3.6787,-3.6218,-3.5596,-3.4142,-3.3597,-3.3393,-3.3393,-3.3393,-3.3212,-3.2632,-3.2343,-3.1727,-3.0346,-2.9445,-2.8853,-2.8636,-2.86,-2.86,-2.86,-2.86,-2.86,-2.86,-2.7618,-2.672,-2.6063,-2.4874,-2.3842,-2.3039,-2.2993,-2.2833,-2.2525,-2.2582,-2.2542,-2.2405,-2.2338,-2.2296,-2.2296,-2.2296,-2.2296,-2.1831,0.0,-2.4538,-2.6135,-2.7721,-2.9097,-2.9916,-3.1317,-3.2252,-3.1513,-3.2027,-3.2362,-3.1568,-3.21,-3.2913,-3.3733,-3.5238,-3.6578,-3.7419,-3.7529,-3.7492,-3.7492,-3.7492,-3.7511,0.0,-3.823,-3.9019,-3.979,-4.0653,-4.1462,-4.2213,-4.3039,-4.3515,-4.3515,-4.3515,-4.3515,-4.3515,-4.3515,-4.3515,-4.3515,-4.3515,-4.3515,-4.3515,-4.3515,-4.3515,-4.3515,-4.3515,-4.3515,-4.3515,-4.3515,-4.3515,-4.3515,-4.3515,-4.3515,-4.3515,-4.3515,-4.3515,-4.3515,-4.3515,-4.3478,-4.3332,-4.2543,-4.1754,-4.0912,-4.0139,-3.9331,-3.8707,-3.8707,-3.8707,-3.8707,-3.8707,-3.8707,-3.8456,-3.7485,-3.662,-3.576,-3.4869,-3.3999,-3.3393,-3.3393,-3.3393,-3.3393,-3.3375,-3.2723,-3.1908,-3.1089,-3.0273,-2.9494,-2.8708,-2.86,-2.86,-2.86,-2.86,-2.86,-2.86,-2.7618,-2.6872,-2.6581,-2.5072,-2.4069,-2.3781,-2.3091,-2.2825,-2.3067,-2.2579,-2.2432,-2.2685,-2.2419,-2.2296,-2.2296,-2.2296,-2.2296,-2.4392,0.0,-2.6961,-2.8594,-2.9806,-3.0797,-3.161,-3.1806,-3.188,-3.2137,-3.1568,-3.0925,-3.065,-3.0834,-3.1458,-3.2797,-3.4362,-3.5917,-3.7309,-3.7492,-3.7309,-3.6776,-3.718,0.0,0.0,0.0,0.0,-3.9074,-4.0325,-4.1224,-4.148,-4.2763,-4.3515,-4.3515,-4.3515,-4.3515,-4.3515,-4.3515,-4.3515,-4.3515,-4.3515,-4.3515,-4.3515,-4.3515,-4.3515,-4.3515,-4.3515,-4.3515,-4.3515,-4.3515,-4.3515,-4.3515,-4.3515,-4.3515,-4.3515,-4.3515,-4.3515,-4.3515,-4.3515,-4.3515,-4.346,-4.3167,-4.2194,-4.104,-4.0765,-3.9772,-3.8707,-3.8707,-3.8707,-3.8707,-3.8707,-3.8707,-3.8472,-3.7589,-3.6672,-3.576,-3.4884,-3.4014,-3.3393,-3.3393,-3.3393,-3.3393,-3.3393,-3.3176,-3.2542,-3.1197,-2.9862,-2.8907,-2.8636,-2.86,-2.86,-2.86,-2.86,-2.86,-2.86,-2.7892,-2.7219,-2.6637,-2.5665,-2.465,-2.3587,-2.3467,-2.3158,-2.2579,-2.2747,-2.2936,-2.3164,-2.275,-2.2985,-2.3746,-2.2767,-2.2835,-2.63,-2.7622,-2.8686,-3.0583,-3.1458,-3.1971,-3.2472,-3.221,-3.1733,-3.1372,-3.0265,-2.9255,-2.898,-2.8906,-2.9531,-3.1427,-3.3096,-3.4821,-3.6795,-3.707,-3.6997,-3.6758,-3.7199,-3.7309,0.0,0.0,0.0,-3.9111,-4.0359,-4.1224,-4.1499,-4.2782,-4.3515,-4.3515,-4.3515,-4.3515,-4.3515,-4.3791,-4.392,-4.392,-4.4213,-4.4048,-4.3515,-4.3791,-4.3754,-4.3515,-4.3515,-4.3515,-4.3515,-4.3515,-4.3515,-4.3515,-4.3515,-4.3515,-4.3515,-4.3515,-4.3515,-4.3515,-4.3515,-4.3515,-4.3515,-4.3515,-4.2598,-4.148,-4.1187,-4.0178,-3.9074,-3.8781,-3.8707,-3.8707,-3.8707,-3.8707,-3.8563,-3.7937,-3.6873,-3.5833,-3.5248,-3.4228,-3.3393,-3.3393,-3.3393,-3.3393,-3.3393,-3.3158,-3.2524,-3.1197,-2.988,-2.8907,-2.8636,-2.86,-2.86,-2.86,-2.86,-2.86,-2.86,-2.8045,-2.7505,-2.7013,-2.6107,-2.5186,-2.4239,-2.3855,-2.352,-2.323,-2.3216,-2.344,-2.3928,-2.3537,-2.3735,-2.4474,-2.3528,-2.3579,-2.7541,-2.8576,-2.9739,-3.2087,-3.2619,-3.2601,-3.2601,-3.2509,-3.1757,-2.9427,-2.8227,-2.7365,-2.6557,0.0,-2.7328,-2.9696,-3.15,-3.3476,-3.5954,-3.634,-3.6648,0.0,0.0,0.0,0.0,0.0,0.0,-3.99,0.0,-4.1444,-4.2268,-4.3057,-4.3515,-4.3515,-4.3515,-4.3533,-4.3552,-4.436,-4.4746,-4.4782,-4.5535,-4.5094,-4.3662,-4.4378,-4.4287,-4.357,-4.3533,-4.3515,-4.3515,-4.3515,-4.3515,-4.3515,-4.3515,-4.3515,-4.3515,-4.3515,-4.3515,-4.3515,-4.3515,-4.3515,-4.3515,-4.3515,-4.2947,-4.2158,-4.1334,-4.0543,-3.9717,-3.8927,-3.8707,-3.8707,-3.8707,-3.8707,-3.8658,-3.8525,-3.7241,-3.6033,-3.5921,-3.4613,-3.3447,-3.3411,-3.3393,-3.3393,-3.3393,-3.2723,-3.1926,-3.1179,-3.0346,-2.9513,-2.8708,-2.86,-2.86,-2.86,-2.86,-2.86,-2.86,-2.8059,-2.7698,-2.7701,-2.6432,-2.5659,-2.5592,-2.4255,-2.3932,-2.4876,-2.3962,-2.3962,-2.4944,-2.466,-2.4557,-2.4609,-2.4541,-2.4541,-2.9891,-3.1072,-3.1977,-3.3201,-3.3041,-3.2601,-3.2601,-3.1207,-2.9574,-2.8356,-2.6502,-2.4869,-2.407,0.0,0.0,-2.8117,-3.0779,0.0,-3.5954,-3.6831,0.0,-3.7474,0.0,-3.9038,-3.845,-3.9646,0.0,0.0,-4.0967,-4.1444,-4.2268,-4.3057,-4.3515,-4.3515,-4.3515,-4.3791,-4.4397,-4.5186,-4.559,-4.5608,-4.5792,-4.5681,-4.5259,-4.4892,-4.4599,-4.436,-4.3754,-4.3515,-4.3515,-4.3515,-4.3515,-4.3515,-4.3515,-4.3515,-4.3515,-4.3515,-4.3515,-4.3515,-4.3515,-4.3515,-4.3515,-4.3515,-4.2947,-4.2158,-4.1334,-4.0543,-3.9717,-3.8927,-3.8707,-3.8707,-3.8707,-3.8707,-3.8658,-3.8525,-3.7679,-3.6726,-3.6048,-3.5048,-3.4117,-3.352,-3.3393,-3.3393,-3.3393,-3.2723,-3.2125,-3.1926,-3.0708,-2.9513,-2.8708,-2.86,-2.86,-2.86,-2.86,-2.86,-2.86,-2.8233,-2.7911,-2.7698,-2.7116,-2.6426,-2.5625,-2.5253,-2.4896,-2.4613,-2.4543,-2.4834,-2.5415,-2.5005,-2.5267,-2.6116,-2.5015,-2.5083,-3.1458,-3.2504,-3.3146,-3.3256,-3.2931,-3.2234,-3.0815,-2.9457,-2.7842,-2.5631,-2.4089,0.0,-2.1602,-2.2997,0.0,0.0,0.0,0.0,-3.5844,-3.6703,-3.7382,0.0,-3.9347,0.0,-3.9756,-4.0563,-4.1242,0.0,-4.1627,-4.1827,-4.2286,-4.3057,-4.3644,-4.4011,-4.403,-4.458,-4.5737,-4.6214,-4.6434,-4.6434,-4.6783,-4.6581,-4.5902,-4.5792,-4.537,-4.4654,0.0,-4.3828,-4.3515,-4.3515,-4.3515,-4.3515,-4.3515,-4.3515,-4.3515,-4.3515,-4.3515,-4.3515,-4.3515,-4.3515,-4.3515,-4.3515,-4.3185,-4.2671,-4.1882,-4.1056,-4.0267,-3.9441,-3.8964,-3.8707,-3.8707,-3.8707,-3.8658,-3.8525,-3.7844,-3.7057,-3.6539,-3.5465,-3.4371,-3.3556,-3.3393,-3.3393,-3.3393,-3.3031,-3.2614,-3.2252,-3.1419,-3.0441,-2.9282,-2.8817,-2.86,-2.86,-2.86,-2.86,-2.86,-2.8281,-2.7996,-2.773,-2.7384,-2.6865,-2.6116,-2.5778,-2.5558,-2.5472,-2.529,-2.5495,-2.6082,-2.5818,-2.604,-2.6674,-2.5862,-2.5912,-3.254,-3.3275,-3.3605,-3.2803,-3.2436,-3.1482,-2.8484,-2.7457,-2.6098,-2.24,0.0,-2.0858,-1.9407,-2.107,-2.3538,-2.6161,0.0,-3.1513,-3.5716,-3.6376,-3.7327,-3.9625,-4.0084,-4.0487,-4.1187,-4.1352,-4.1717,-4.2415,-4.2451,-4.2451,-4.2451,-4.3222,-4.403,-4.4837,-4.4948,-4.5682,-4.7094,-4.7204,-4.7259,-4.7278,-4.7957,-4.7572,-4.6232,-4.6819,-4.6269,-4.4856,-4.4746,-4.425,-4.3515,-4.3515,-4.3515,-4.3515,-4.3515,-4.3515,-4.3515,-4.3515,-4.3515,-4.3515,-4.3515,-4.3515,-4.3515,-4.3515,-4.3515,-4.3349,-4.2543,-4.1754,-4.093,-4.012,-3.9313,-3.8707,-3.8707,-3.8707,-3.8658,-3.851,-3.7901,-3.7312,-3.7142,-3.5776,-3.4371,-3.3556,-3.3393,-3.3393,-3.3393,-3.3393,-3.3158,-3.2451,-3.227,-3.1641,-3.0093,-2.922,-2.8726,-2.8618,-2.86,-2.86,-2.86,-2.8339,-2.8037,-2.773,-2.743,-2.7101,-2.6708,-2.6082,-2.6048,-2.6691,-2.6065,-2.6065,-2.6691,-2.6691,-2.6691,-2.6691,-2.6691,-2.6691,-3.3366,-3.3697,-3.3605,-3.2803,-3.1592,-3.0118,-2.8227,-2.575,0.0,0.0,-1.9667,-1.8647,-1.8353,-1.974,-2.218,-2.5978,0.0,0.0,0.0,0.0,-3.7951,0.0,0.0,0.0,0.0,0.0,0.0,0.0,0.0,-4.3277,-4.3277,-4.4048,-4.4856,-4.5663,-4.6324,-4.6819,-4.7094,-4.7755,-4.8104,-4.8104,-4.8233,-4.8159,-4.7884,-4.7333,-4.6581,-4.5645,-4.5002,0.0,-4.3515,-4.3515,-4.3515,-4.3515,-4.3515,-4.3515,-4.3515,-4.3515,-4.3515,-4.3515,-4.3515,-4.3515,-4.3515,-4.3515,-4.3515,-4.3349,-4.2543,-4.1754,-4.093,-4.012,-3.9313,-3.8707,-3.8707,-3.8707,-3.8643,-3.8465,-3.8289,-3.7986,-3.7189,-3.5745,-3.4371,-3.3556,-3.3393,-3.3393,-3.3393,-3.3393,-3.3357,-3.3212,-3.2632,-3.1751,-3.0535,-2.9927,-2.9337,-2.8672,-2.86,-2.86,-2.86,-2.8549,-2.8277,-2.7745,-2.7657,-2.7336,-2.6725,-2.6573,-2.6573,-2.6691,-2.6573,-2.6573,-2.6691,-2.6691,-2.6691,-2.6691,-2.6691,-2.6691,-3.3587,-3.3495,-3.2981,-3.2173,-3.0779,-2.8822,-2.597,0.0,0.0,0.0,-1.7722,-1.7227,-1.6383,0.0,0.0,0.0,0.0,0.0,0.0,0.0,0.0,0.0,0.0,0.0,0.0,0.0,0.0,0.0,0.0,-4.3515,-4.3515,-4.4654,-4.57,-4.6507,-4.7296,-4.7718,-4.7718,-4.8122,-4.8306,-4.8306,-4.8306,-4.8306,-4.8306,-4.7901,-4.7297,-4.6489,-4.5681,0.0,-4.4085,-4.3663,-4.3515,-4.3515,-4.3515,-4.3515,-4.3515,-4.3515,-4.3515,-4.3515,-4.3515,-4.3515,-4.3515,-4.3515,-4.3515,-4.3441,-4.3039,-4.2359,-4.157,-4.0744,-3.9955,-3.9239,-3.8817,-3.8707,-3.8643,-3.8449,-3.8336,-3.8054,-3.7192,-3.6055,-3.4989,-3.419,-3.3701,-3.3393,-3.3393,-3.3393,-3.3334,-3.3114,-3.276,-3.21,-3.0958,-3.0285,-2.9462,-2.8253,-2.8128,-2.8128,-2.8128,-2.8246,-2.8165,-2.773,-2.7826,-2.7622,-2.6989,-2.6956,-2.6874,-2.6708,-2.6691,-2.6691,-2.6691,-2.6691,-2.6691,-2.6691,-2.6691,-2.6691,-3.3366,-3.3091,-3.2399,-3.1599,-3.0063,-2.7739,-2.3887,-2.2097,0.0,0.0,-1.6071,-1.6046,-1.4952,0.0,-1.9979,0.0,0.0,0.0,0.0,0.0,0.0,0.0,0.0,0.0,0.0,0.0,0.0,0.0,0.0,0.0,-4.3993,-4.5204,-4.6361,-4.7333,-4.7957,-4.8306,-4.8306,-4.8306,-4.8306,-4.8306,-4.8306,-4.8306,-4.8306,-4.8306,-4.7846,-4.7058,-4.625,0.0,0.0,-4.3828,-4.3515,-4.3515,-4.3515,-4.3515,-4.3515,-4.3515,-4.3515,-4.3515,-4.3515,-4.3515,-4.3515,-4.3515,-4.3515,-4.3515,-4.3515,-4.2928,-4.2139,-4.1334,-4.0524,-3.9698,-3.8909,-3.8707,-3.8643,-3.8449,-3.8305,-3.7991,-3.7176,-3.649,-3.5783,-3.479,-3.4099,-3.361,-3.3429,-3.3393,-3.3286,-3.2972,-3.286,-3.2382,-3.1264,-3.041,-2.933,-2.7875,-2.7714,-2.7701,-2.7701,-2.7897,-2.788,-2.7609,-2.7797,-2.7663,-2.7117,-2.7085,-2.6972,-2.6708,-2.6691,-2.6691,-2.6691,-2.6691,-2.6691,-2.6691,-2.6691,-2.6691,-3.2693,-3.2656,-3.2399,-3.1599,-2.9641,-2.7053,-2.374,0.0,0.0,-1.6231,-1.5178,-1.4897,-1.5472,-1.5894,-1.7387,0.0,0.0,-2.5273,0.0,0.0,0.0,0.0,0.0,0.0,0.0,0.0,0.0,0.0,0.0,0.0,-4.559,-4.581,-4.6599,-4.8141,-4.8269,-4.8306,-4.8306,-4.8306,-4.8306,-4.8306,-4.8306,-4.8306,-4.8306,-4.8306,-4.7846,-4.7058,-4.625,0.0,0.0,-4.3828,-4.3515,-4.3515,-4.3515,-4.3515,-4.3515,-4.3515,-4.3515,-4.3515,-4.3515,-4.3515,-4.3515,-4.3515,-4.3515,-4.3515,-4.3515,-4.2928,-4.2139,-4.1334,-4.0524,-3.9698,-3.8909,-3.8707,-3.8643,-3.8449,-3.8305,-3.7991,-3.7176,-3.6941,-3.6451,-3.4896,-3.4537,-3.4262,-3.3538,-3.3393,-3.3378,-3.3349,-3.3019,-3.2416,-3.133,-3.0227,-2.911,-2.7929,-2.7736,-2.7701,-2.7701,-2.7713,-2.7595,-2.726,-2.7276,-2.7116,-2.6758,-2.6741,-2.6725,-2.6691,-2.6691,-2.6691,-2.6691,-2.6691,-2.6691,-2.6691,-2.6691,-2.6691,-3.1476,-3.1531,-3.1091,-3.076,-2.8496,-2.5631,-2.2905,0.0,-1.7894,-1.549,-1.4714,-1.4603,-1.4915,-1.5362,-1.6561,-1.9143,-2.0244,-2.2575,-2.7787,0.0,0.0,0.0,0.0,0.0,0.0,0.0,0.0,0.0,0.0,0.0,-4.581,-4.5902,-4.6636,-4.8251,-4.8306,-4.8306,-4.8306,-4.8306,-4.8306,-4.8306,-4.8306,-4.8306,-4.8306,-4.8306,-4.7846,-4.7058,-4.625,0.0,0.0,-4.3828,-4.3515,-4.3515,-4.3515,-4.3515,-4.3515,-4.3515,-4.3515,-4.3515,-4.3515,-4.3515,-4.3515,-4.3515,-4.3515,-4.3515,-4.3515,-4.3277,-4.2745,-4.1462,-4.0873,-4.0341,-3.9038,-3.8611,-3.8499,-3.837,-3.8274,-3.8118,-3.7792,-3.7339,-3.6669,-3.5548,-3.4917,-3.4353,-3.3538,-3.3393,-3.3334,-3.3083,-3.2732,-3.2262,-3.1585,-3.0537,-2.97,-2.9228,-2.793,-2.71,-2.71,-2.7274,-2.7338,-2.7213,-2.74,-2.7353,-2.7021,-2.7005,-2.6907,-2.6708,-2.6691,-2.6691,-2.6691,-2.6691,-2.6691,-2.6691,-2.6691,-2.6691,-3.0155,-3.0448,-3.0136,-2.9898,-2.7603,-2.4695,0.0,-1.9693,-1.741,-1.5007,-1.4493,-1.4493,-1.4493,-1.516,-1.6151,-1.752,-1.8831,-2.1198,-2.5621,0.0,0.0,0.0,0.0,0.0,0.0,0.0,0.0,0.0,0.0,0.0,-4.5461,-4.5773,-4.6636,-4.8251,-4.8306,-4.8306,-4.8306,-4.8306,-4.8306,-4.8306,-4.8306,-4.8306,-4.8306,-4.8306,-4.7846,-4.7058,-4.625,0.0,0.0,-4.3828,-4.3515,-4.3515,-4.3515,-4.3515,-4.3515,-4.3515,-4.3515,-4.3515,-4.3515,-4.3515,-4.3515,-4.3515,-4.3515,-4.3515,-4.3515,-4.3515,-4.3149,-4.1535,-4.073,-4.0072,-3.8936,-3.8515,-3.8352,-3.8323,-3.8241,-3.8209,-3.8209,-3.7756,-3.7049,-3.5985,-3.5333,-3.4609,-3.3574,-3.3301,-3.3178,-3.3003,-3.2485,-3.2056,-3.1896,-3.0835,-3.0108,-3.0108,-2.8467,-2.7283,-2.7046,-2.7026,-2.7053,-2.7053,-2.7274,-2.7289,-2.7053,-2.726,-2.7281,-2.7029,-2.7249,-2.7249,-2.7029,-2.7249,-2.7249,-2.7029,-2.7266,-2.7385,-2.8803,-2.9592,-3.0008,-2.9207,-2.7181,-2.4548,0.0,-1.9263,-1.741,-1.5007,-1.4493,-1.4493,-1.4493,-1.516,-1.5967,-1.678,-1.8926,-2.163,-2.4952,0.0,0.0,0.0,0.0,0.0,0.0,0.0,0.0,0.0,0.0,0.0,-4.4654,-4.548,-4.6636,-4.8251,-4.8306,-4.8306,-4.8306,-4.8306,-4.8306,-4.8306,-4.8306,-4.8306,-4.8306,-4.8306,-4.7846,-4.7058,0.0,0.0,0.0,-4.3828,-4.3515,-4.3515,-4.3515,-4.3515,-4.3515,-4.3515,-4.3515,-4.3515,-4.3515,-4.3515,-4.3515,-4.3515,-4.3515,-4.3515,-4.3515,-4.3515,-4.3149,-4.1535,-3.9855,-3.8528,-3.851,-3.8401,-3.8307,-3.8307,-3.8241,-3.8209,-3.8209,-3.8191,-3.7703,-3.6112,-3.5786,-3.5279,-3.3683,-3.3068,-3.2939,-3.3316,-3.2436,-3.186,-3.2231,-3.1002,-3.0108,-3.0108,-2.9433,-2.8653,-2.7858,-2.7114,-2.6708,-2.6708,-2.6708,-2.6708,-2.6708,-2.7418,-2.779,-2.779,-2.8569,-2.8569,-2.779,-2.8586,-2.8569,-2.7807,-2.8602,-2.8976,-2.4529,-2.5493,-2.5915,-2.5097,-2.3914,-2.2363,-2.017,-1.8438,-1.6743,-1.4879,-1.4493,-1.4493,-1.4493,-1.4714,-1.5674,-1.8133,-1.963,0.0,0.0,0.0,0.0,0.0,0.0,0.0,0.0,0.0,0.0,0.0,0.0,0.0,-4.5461,-4.5755,-4.6397,-4.7443,-4.8012,-4.8306,-4.8306,-4.8306,-4.8306,-4.8306,-4.8306,-4.8306,-4.8288,-4.7718,-4.7039,0.0,0.0,0.0,0.0,-4.3625,-4.3515,-4.3515,-4.3515,-4.3515,-4.3515,-4.3515,-4.3515,-4.3515,-4.3515,-4.3515,-4.3515,-4.3515,-4.3515,-4.3515,-4.3515,-4.3515,-4.3149,-4.1535,-3.9836,-3.8494,-3.8446,-3.837,-3.829,-3.8241,-3.8225,-3.8209,-3.8209,-3.8209,-3.7901,-3.6832,-3.6182,-3.5379,-3.404,-3.325,-3.2781,-3.2651,-3.2109,-3.175,-3.1878,-3.128,-3.0852,-3.0852,-3.0192,-2.9228,-2.7908,-2.7587,-2.7249,-2.6725,-2.7182,-2.7452,-2.7452,-2.8197,-2.8619,-2.8619,-2.8874,-2.8874,-2.8619,-2.8891,-2.8874,-2.8619,-2.8891,-2.8993,-2.1447,-2.2666,-2.3088,-2.2254,-2.1455,-2.0417,-1.8775,-1.7374,-1.6089,-1.4769,-1.4493,-1.4493,-1.4493,-1.5007,-1.6071,-1.8078,-1.9858,-2.2024,0.0,0.0,0.0,0.0,0.0,0.0,0.0,0.0,0.0,0.0,0.0,0.0,-4.4929,-4.5571,-4.614,-4.6636,-4.7719,-4.8306,-4.8306,-4.8306,-4.8306,-4.8306,-4.7975,-4.7846,-4.781,-4.7003,-4.6214,0.0,0.0,0.0,0.0,-4.3515,-4.3515,-4.3515,-4.3515,-4.3515,-4.3515,-4.3515,-4.3515,-4.3515,-4.3515,-4.3515,-4.3515,-4.3515,-4.3515,-4.3515,-4.3515,-4.3277,-4.2782,-4.1462,-4.0042,-3.883,-3.8506,-3.8338,-3.8241,-3.8209,-3.8209,-3.8209,-3.8209,-3.8209,-3.7831,-3.656,-3.5932,-3.5098,-3.3607,-3.282,-3.2368,-3.2317,-3.1841,-3.1562,-3.1677,-3.1408,-3.119,-3.119,-3.0784,-3.0004,-2.877,-2.8398,-2.8061,-2.7605,-2.7994,-2.8264,-2.8264,-2.8991,-2.9433,-2.9433,-2.9687,-2.9685,-2.9433,-2.9433,-2.9568,-2.9839,-2.9839,-2.9839,0.0,-2.0758,-2.1243,-2.0382,-1.9638,-1.872,-1.7165,-1.6236,0.0,-1.4677,-1.4493,-1.4548,-1.4714,-1.5881,-1.6945,-1.7348,-1.9987,0.0,0.0,0.0,0.0,0.0,0.0,0.0,0.0,0.0,0.0,0.0,0.0,0.0,-4.3588,-4.5002,-4.5865,-4.5975,-4.7388,-4.8196,-4.8306,-4.8251,-4.8214,-4.8214,-4.7388,-4.7003,-4.6984,-4.6177,-4.5406,0.0,0.0,0.0,0.0,-4.3515,-4.3515,-4.3515,-4.3515,-4.3515,-4.3515,-4.3515,-4.3515,-4.3515,-4.3515,-4.3515,-4.3515,-4.3515,-4.3515,-4.3515,-4.3515,-4.2892,-4.2066,-4.1297,-4.0339,-3.9331,-3.8599,-3.8305,-3.8209,-3.8209,-3.8209,-3.8192,-3.8157,-3.814,-3.7569,-3.5612,-3.5204,-3.4567,-3.2668,-3.1984,-3.1823,-3.2179,-3.1637,-3.131,-3.162,-3.1389,-3.119,-3.119,-3.119,-3.092,-3.0243,-2.9499,-2.9061,-2.8993,-2.9044,-2.9077,-2.9077,-2.9786,-3.0192,-3.0192,-3.0852,-3.0869,-3.0192,-3.0192,-3.0531,-3.119,-3.119,-3.119,-1.5704,0.0,-1.7851,-1.7032,-1.7154,-1.7209,0.0,-1.5839,-1.5472,-1.4677,-1.4493,-1.5062,-1.6915,-1.6555,-1.7417,-2.1785,-2.3125,-2.4685,0.0,0.0,0.0,0.0,0.0,0.0,0.0,0.0,0.0,0.0,0.0,-4.3754,-4.4397,-4.4782,-4.5535,-4.6782,-4.6599,-4.7058,-4.8306,-4.7681,-4.7369,-4.7369,-4.6581,-4.6177,-4.6159,-4.5351,-4.4892,0.0,0.0,0.0,-4.3515,-4.3515,-4.3515,-4.3515,-4.3515,-4.3515,-4.3515,-4.3515,-4.3515,-4.3515,-4.3515,-4.3515,-4.3515,-4.3515,-4.3515,-4.3515,-4.3515,-4.2506,-4.1334,-4.115,-3.9918,-3.8654,-3.8453,-3.8305,-3.8209,-3.8209,-3.8209,-3.8106,-3.7739,-3.7667,-3.7274,-3.5914,-3.5151,-3.432,-3.2992,-3.2184,-3.1638,-3.1485,-3.131,-3.123,-3.131,-3.1249,-3.119,-3.119,-3.119,-3.1123,-3.0954,-3.0277,-2.96,-2.9044,-2.9533,-2.9837,-2.9837,-3.0548,-3.0937,-3.0937,-3.1106,-3.1106,-3.0937,-3.0937,-3.1021,-3.119,-3.119,-3.119,-1.4493,-1.5661,-1.6798,-1.6365,-1.6578,-1.6798,-1.6346,-1.5674,-1.5031,0.0,0.0,-1.5557,-1.7245,-1.7741,-1.9032,-2.2528,-2.4337,0.0,0.0,0.0,0.0,0.0,0.0,0.0,0.0,0.0,0.0,0.0,0.0,-4.3681,-4.4121,-4.4507,-4.5095,-4.5975,-4.5938,-4.6507,-4.7736,-4.6947,-4.6562,-4.6526,-4.5736,-4.5351,-4.5333,-4.4525,-4.4158,0.0,0.0,0.0,-4.3515,-4.3515,-4.3515,-4.3515,-4.3515,-4.3515,-4.3515,-4.3515,-4.3515,-4.3515,-4.3515,-4.3515,-4.3515,-4.3515,-4.3515,-4.3515,-4.3515,-4.2378,-4.1095,-4.1095,-4.0337,-3.9329,-3.8599,-3.8305,-3.8209,-3.8209,-3.8037,-3.781,-3.7542,-3.734,-3.6796,-3.5271,-3.4617,-3.3876,-3.237,-3.176,-3.1408,-3.123,-3.119,-3.119,-3.119,-3.119,-3.119,-3.119,-3.119,-3.119,-3.119,-3.0835,-3.0429,-3.0042,-3.0378,-3.0598,-3.0598,-3.0987,-3.119,-3.119,-3.119,-3.119,-3.119,-3.119,-3.119,-3.119,-3.119,-3.119,-1.4805,-1.6138,-1.733,-1.6835,-1.6908,-1.7055,-1.6927,0.0,0.0,0.0,0.0,0.0,0.0,-1.9494,0.0,0.0,0.0,0.0,0.0,0.0,0.0,0.0,0.0,0.0,0.0,0.0,0.0,0.0,0.0,-4.3515,-4.3515,-4.4158,-4.4563,-4.4691,-4.5241,-4.592,-4.6727,-4.6067,-4.5718,-4.5718,-4.4911,-4.4525,-4.4488,-4.3809,-4.3515,-4.3515,0.0,0.0,-4.3515,-4.3515,-4.3515,-4.3515,-4.3515,-4.3515,-4.3515,-4.3515,-4.3515,-4.3515,-4.3515,-4.3515,-4.3515,-4.3515,-4.3515,-4.3515,-4.3515,-4.2451,-4.126,-4.1115,-4.0778,-4.0113,-3.8745,-3.8305,-3.8209,-3.8209,-3.7845,-3.7487,-3.7432,-3.7094,-3.6262,-3.4441,-3.4066,-3.3502,-3.1676,-3.136,-3.1326,-3.1207,-3.119,-3.119,-3.119,-3.119,-3.119,-3.119,-3.119,-3.119,-3.119,-3.119,-3.119,-3.119,-3.119,-3.119,-3.119,-3.119,-3.119,-3.119,-3.119,-3.119,-3.119,-3.119,-3.119,-3.119,-3.1171,-3.1238,-1.6156,-1.8192,-1.93,-1.6555,-1.6903,-1.7741,-1.7055,-1.6707,0.0,0.0,0.0,0.0,0.0,-2.2364,0.0,0.0,0.0,0.0,0.0,0.0,0.0,0.0,0.0,0.0,0.0,0.0,0.0,0.0,0.0,-4.3515,-4.3515,-4.3608,-4.3993,-4.4673,-4.4158,-4.425,-4.5058,-4.4948,-4.4892,-4.4856,-4.4066,-4.3681,-4.3681,-4.357,-4.3515,-4.3515,0.0,-4.3515,-4.3515,-4.3515,-4.3515,-4.3515,-4.3515,-4.3515,-4.3515,-4.3515,-4.3515,-4.3515,-4.3515,-4.3515,-4.3515,-4.3515,-4.3515,-4.3515,-4.3515,-4.2837,-4.1957,-4.1231,-3.994,-3.8709,-3.8453,-3.8305,-3.8209,-3.8209,-3.7845,-3.7414,-3.7075,-3.6678,-3.6004,-3.4687,-3.441,-3.3952,-3.2395,-3.2141,-3.1921,-3.1275,-3.119,-3.119,-3.119,-3.119,-3.119,-3.119,-3.119,-3.119,-3.119,-3.119,-3.119,-3.119,-3.119,-3.119,-3.119,-3.119,-3.119,-3.119,-3.119,-3.119,-3.119,-3.119,-3.119,-3.119,-3.1075,-3.1369,-1.5305,-1.7299,-1.8951,-1.792,-1.9528,-2.1198,-2.0382,-1.985,0.0,0.0,0.0,0.0,0.0,0.0,0.0,0.0,0.0,0.0,0.0,0.0,0.0,0.0,0.0,0.0,0.0,0.0,0.0,0.0,0.0,0.0,-4.3515,-4.3515,-4.3663,-4.403,-4.3681,-4.368,-4.4048,-4.4048,-4.4048,-4.4048,-4.368,-4.3515,-4.3515,-4.3515,-4.3515,-4.3515,0.0,-4.3515,-4.3515,-4.3515,-4.3515,-4.3515,-4.3515,-4.3515,-4.3515,-4.3515,-4.3515,-4.3515,-4.3515,-4.3515,-4.3515,-4.3515,-4.3515,-4.3515,-4.3515,-4.2913,-4.2165,-4.1765,-4.0382,-3.8948,-3.848,-3.8274,-3.814,-3.788,-3.7487,-3.7075,-3.6658,-3.6241,-3.565,-3.4684,-3.4489,-3.415,-3.3068,-3.2882,-3.2628,-3.1921,-3.1802,-3.1667,-3.1241,-3.119,-3.119,-3.119,-3.119,-3.119,-3.119,-3.119,-3.119,-3.119,-3.119,-3.119,-3.119,-3.119,-3.119,-3.119,-3.119,-3.119,-3.119,-3.119,-3.119,-3.119,-3.1151,-3.1237,-1.5057,-1.6728,-1.8566,-1.935,-2.1456,-2.3364,-2.3529,-2.2795,0.0,0.0,0.0,0.0,0.0,0.0,0.0,0.0,0.0,0.0,0.0,0.0,0.0,0.0,0.0,0.0,0.0,0.0,0.0,0.0,0.0,0.0,-4.3515,-4.3515,-4.3515,-4.3515,-4.3515,-4.3515,-4.3515,-4.3515,-4.3515,-4.3515,-4.3515,-4.3515,-4.3515,-4.3515,-4.3515,-4.3515,-4.3515,-4.3515,-4.3515,-4.3515,-4.3515,-4.3515,-4.3515,-4.3515,-4.3515,-4.3515,-4.3515,-4.3515,-4.3515,-4.3515,-4.3515,-4.3515,-4.3515,-4.3515,-4.3515,-4.2878,-4.2188,-4.2152,-4.0915,-3.9427,-3.876,-3.8301,-3.795,-3.7596,-3.7132,-3.6678,-3.6385,-3.5937,-3.543,-3.4861,-3.4759,-3.4523,-3.3778,-3.366,-3.3406,-3.2682,-3.2412,-3.2107,-3.1532,-3.1309,-3.119,-3.119,-3.119,-3.119,-3.119,-3.119,-3.119,-3.119,-3.119,-3.119,-3.119,-3.119,-3.119,-3.119,-3.119,-3.119,-3.119,-3.119,-3.119,-3.119,-3.119,-3.1092,-1.7208,-1.8403,-1.9376,-2.005,-2.0493,-2.1557,-2.4548,-2.4025,0.0,-2.5776,0.0,0.0,0.0,0.0,0.0,0.0,0.0,0.0,0.0,0.0,0.0,0.0,0.0,0.0,0.0,0.0,0.0,0.0,0.0,0.0,-4.3515,-4.3515,-4.3515,-4.3515,-4.3515,-4.3515,-4.3515,-4.3515,-4.3515,-4.3515,-4.3515,-4.3515,-4.3515,-4.3515,-4.3515,-4.3515,-4.3515,-4.3515,-4.3515,-4.3515,-4.3515,-4.3515,-4.3515,-4.3515,-4.3515,-4.3515,-4.3515,-4.3515,-4.3515,-4.3515,-4.3515,-4.3515,-4.3515,-4.3515,-4.3515,-4.2878,-4.217,-4.2046,-4.0811,-3.9488,-3.9435,-3.8491,-3.7542,-3.7505,-3.69,-3.6343,-3.6301,-3.5937,-3.5583,-3.5532,-3.5515,-3.5301,-3.4539,-3.4421,-3.4167,-3.344,-3.273,-3.2276,-3.2226,-3.1633,-3.119,-3.119,-3.119,-3.119,-3.119,-3.119,-3.119,-3.119,-3.119,-3.119,-3.119,-3.119,-3.119,-3.119,-3.119,-3.119,-3.119,-3.119,-3.119,-3.119,-3.119,-3.1092,-1.6222,-1.7819,-1.9612,-2.0901,-2.2025,0.0,0.0,-2.7218,-2.8613,-3.0032,-3.098,0.0,0.0,0.0,0.0,0.0,0.0,0.0,0.0,0.0,0.0,0.0,0.0,0.0,0.0,0.0,0.0,0.0,0.0,0.0,-4.3515,-4.3515,-4.3515,-4.3515,-4.3515,-4.3515,-4.3515,-4.3515,-4.3515,-4.3515,-4.3515,-4.3515,-4.3515,-4.3515,-4.3515,-4.3515,-4.3515,-4.3515,-4.3515,-4.3515,-4.3515,-4.3515,-4.3515,-4.3515,-4.3515,-4.3515,-4.3515,-4.3515,-4.3515,-4.3515,-4.3515,-4.3515,-4.3515,-4.3497,-4.3464,-4.3139,-4.2795,-4.2705,-4.1814,-4.0654,-3.9693,-3.8703,-3.781,-3.7265,-3.69,-3.6516,-3.5963,-3.5734,-3.56,-3.56,-3.56,-3.5498,-3.5228,-3.5177,-3.5098,-3.4805,-3.4032,-3.3038,-3.1785,-3.136,-3.119,-3.119,-3.119,-3.119,-3.119,-3.119,-3.119,-3.119,-3.119,-3.119,-3.119,-3.119,-3.119,-3.119,-3.119,-3.119,-3.119,-3.119,-3.119,-3.1241,-3.3085,-3.3732,-1.6298,-1.7928,-2.0071,-2.1669,0.0,0.0,-2.764,-2.9622,-3.1531,-3.3403,-3.3788,0.0,0.0,0.0,0.0,0.0,0.0,0.0,0.0,0.0,0.0,0.0,0.0,0.0,0.0,0.0,0.0,0.0,0.0,0.0,0.0,-4.3515,-4.3515,-4.3515,-4.3515,-4.3515,-4.3515,-4.3515,-4.3515,-4.3515,-4.3515,-4.3515,-4.3515,-4.3515,-4.3515,-4.3515,-4.3515,-4.3515,-4.3515,-4.3515,-4.3515,-4.3515,-4.3515,-4.3515,-4.3515,-4.3515,-4.3515,-4.3515,-4.3515,-4.3515,-4.3515,-4.3515,-4.3515,-4.3497,-4.3411,-4.3305,-4.3196,-4.3123,-4.2359,-4.1397,-4.0691,-3.9444,-3.8097,-3.7145,-3.6801,-3.6516,-3.5761,-3.56,-3.56,-3.56,-3.56,-3.56,-3.56,-3.56,-3.56,-3.56,-3.5064,-3.4134,-3.2763,-3.1782,-3.1562,-3.2493,-3.1765,-3.119,-3.119,-3.2053,-3.2594,-3.2594,-3.1715,-3.119,-3.119,-3.119,-3.119,-3.119,-3.119,-3.119,-3.119,-3.119,-3.1681,-3.2645,-3.4653,-3.535,-1.8065,-1.9188,-2.0881,0.0,0.0,0.0,-3.0699,-3.0815,-3.1403,-3.5477,0.0,-3.4339,-3.6009,0.0,0.0,0.0,0.0,0.0,0.0,0.0,0.0,0.0,0.0,0.0,0.0,0.0,0.0,0.0,0.0,0.0,0.0,-4.3515,-4.3515,-4.3515,-4.3515,-4.3515,-4.3515,-4.3515,-4.3515,-4.3515,-4.3515,-4.3515,-4.3515,-4.3515,-4.3515,-4.3515,-4.3515,-4.3515,-4.3515,-4.3515,-4.3515,-4.3515,-4.3515,-4.3515,-4.3515,-4.3515,-4.3515,-4.3515,-4.3515,-4.3515,-4.3515,-4.3515,-4.3515,-4.3497,-4.3411,-4.3305,-4.3196,-4.3123,-4.225,-4.156,-4.2611,-4.0812,-3.8411,-3.721,-3.6597,-3.6174,-3.5694,-3.56,-3.56,-3.56,-3.56,-3.56,-3.56,-3.56,-3.56,-3.56,-3.56,-3.56,-3.56,-3.3051,-3.2357,-3.5295,-3.3,-3.1241,-3.1241,-3.3909,-3.56,-3.56,-3.2865,-3.1224,-3.119,-3.119,-3.119,-3.119,-3.1224,-3.1241,-3.1241,-3.1241,-3.2747,-3.56,-3.56,-3.535,-1.7505,-1.9672,0.0,-2.35,0.0,0.0,0.0,-3.3757,0.0,0.0,-3.7129,-3.6556,-3.7052,0.0,0.0,0.0,0.0,0.0,0.0,0.0,0.0,0.0,0.0,0.0,0.0,0.0,0.0,0.0,0.0,0.0,0.0,-4.3515,-4.3515,-4.3515,-4.3515,-4.3515,-4.3515,-4.3515,-4.3515,-4.3515,-4.3515,-4.3515,-4.3515,-4.3515,-4.3515,-4.3515,-4.3515,-4.3515,-4.3515,-4.3515,-4.3515,-4.3515,-4.3515,-4.3515,-4.3515,-4.3515,-4.3515,-4.3515,-4.3515,-4.3515,-4.3515,-4.3515,-4.3515,-4.348,-4.3357,-4.3286,-4.3232,-4.3031,-4.2702,-4.2484,-4.2829,-4.145,-3.9608,-3.8169,-3.7245,-3.6516,-3.5761,-3.56,-3.56,-3.56,-3.56,-3.56,-3.56,-3.56,-3.56,-3.56,-3.56,-3.56,-3.56,-3.4839,-3.4619,-3.5498,-3.4822,-3.4281,-3.4281,-3.5092,-3.56,-3.56,-3.4771,-3.3372,-3.1275,-3.119,-3.119,-3.119,-3.3237,-3.4281,-3.4281,-3.4281,-3.4737,-3.56,-3.5258,-3.5024,-1.9363,-2.1813,0.0,-2.6612,-2.9494,-3.2596,-3.5367,0.0,0.0,0.0,0.0,0.0,0.0,0.0,0.0,0.0,0.0,0.0,0.0,0.0,0.0,0.0,0.0,0.0,0.0,0.0,0.0,0.0,0.0,0.0,0.0,-4.3515,-4.3515,-4.3515,-4.3515,-4.3515,-4.3515,-4.3515,-4.3515,-4.3515,-4.3515,-4.3515,-4.3515,-4.3515,-4.3515,-4.3515,-4.3515,-4.3515,-4.3515,-4.3515,-4.3515,-4.3515,-4.3515,-4.3515,-4.3515,-4.3515,-4.3515,-4.3515,-4.3515,-4.3515,-4.3515,-4.3515,-4.3515,-4.3479,-4.3392,-4.3322,-4.3214,-4.2957,-4.2901,-4.2611,-4.1361,-4.1234,-4.0908,-3.8717,-3.7541,-3.6661,-3.5805,-3.56,-3.56,-3.56,-3.56,-3.56,-3.56,-3.56,-3.56,-3.56,-3.56,-3.56,-3.56,-3.56,-3.56,-3.56,-3.56,-3.56,-3.56,-3.56,-3.56,-3.56,-3.56,-3.4788,-3.3034,-3.2949,-3.2949,-3.2949,-3.4687,-3.56,-3.56,-3.56,-3.56,-3.56,-3.5118,-3.4899,-2.2328,0.0,0.0,-3.0515,0.0,0.0,0.0,0.0,0.0,0.0,0.0,0.0,0.0,0.0,0.0,0.0,0.0,0.0,0.0,0.0,0.0,0.0,0.0,0.0,0.0,0.0,0.0,0.0,0.0,0.0,0.0,-4.3515,-4.3515,-4.3515,-4.3515,-4.3515,-4.3515,-4.3515,-4.3515,-4.3515,-4.3515,-4.3515,-4.3515,-4.3515,-4.3515,-4.3515,-4.3515,-4.3515,-4.3515,-4.3515,-4.3515,-4.3515,-4.3515,-4.3515,-4.3515,-4.3515,-4.3515,-4.3515,-4.3515,-4.3515,-4.3515,-4.3515,-4.3515,-4.3479,-4.3463,-4.3339,-4.3178,-4.2957,-4.2901,-4.2249,-3.9368,-4.0763,-4.2194,-3.9314,-3.7682,-3.656,-3.5783,-3.56,-3.56,-3.56,-3.56,-3.56,-3.56,-3.56,-3.56,-3.56,-3.56,-3.56,-3.56,-3.56,-3.56,-3.56,-3.56,-3.56,-3.56,-3.56,-3.56,-3.56,-3.56,-3.56,-3.56,-3.56,-3.56,-3.56,-3.56,-3.56,-3.56,-3.56,-3.56,-3.56,-3.5118,-3.4899,-2.0943,-2.3758,0.0,0.0,0.0,0.0,0.0,0.0,0.0,0.0,0.0,0.0,0.0,0.0,0.0,0.0,0.0,0.0,0.0,0.0,0.0,0.0,0.0,0.0,0.0,0.0,0.0,0.0,0.0,0.0,-4.3515,-4.3515,-4.3515,-4.3515,-4.3515,-4.3515,-4.3515,-4.3515,-4.3515,0.0,-4.3515,-4.3515,-4.3515,-4.3515,-4.3515,-4.3515,-4.3515,-4.3515,-4.3515,-4.3515,-4.3515,-4.3515,-4.3515,-4.3515,-4.3515,-4.3515,-4.3515,-4.3515,-4.3515,-4.3515,-4.3515,-4.3515,-4.3515,-4.3427,-4.3124,-4.3214,-4.3357,-4.2995,-4.2901,-4.2756,-4.2068,-4.2394,-4.2738,-4.205,-3.88,-3.5832,-3.5644,-3.56,-3.56,-3.56,-3.56,-3.56,-3.56,-3.56,-3.56,-3.56,-3.56,-3.56,-3.56,-3.56,-3.56,-3.56,-3.56,-3.56,-3.56,-3.56,-3.56,-3.56,-3.56,-3.56,-3.56,-3.56,-3.56,-3.56,-3.56,-3.56,-3.56,-3.56,-3.56,-3.56,-3.5118,-3.4899,0.0,0.0,0.0,0.0,0.0,0.0,0.0,0.0,0.0,0.0,0.0,0.0,0.0,0.0,0.0,0.0,0.0,0.0,0.0,0.0,0.0,0.0,0.0,0.0,0.0,0.0,0.0,0.0,0.0,-4.3515,-4.3515,-4.3515,-4.3515,-4.3515,-4.3515,-4.348,-4.3464,-4.3464,-4.341,-4.3375,-4.3375,-4.3393,-4.3464,-4.348,-4.3515,-4.3515,-4.3515,-4.3515,-4.3515,-4.3515,-4.3515,-4.3515,-4.3515,-4.3515,-4.3515,-4.3515,-4.3515,-4.3515,-4.3515,-4.3515,-4.3515,-4.3515,-4.3515,-4.3427,-4.3013,-4.305,-4.3178,-4.2957,-4.2901,-4.2901,-4.2901,-4.2901,-4.2313,-3.9952,-3.7452,-3.56,-3.56,-3.56,-3.56,-3.56,-3.56,-3.56,-3.56,-3.56,-3.56,-3.56,-3.56,-3.56,-3.56,-3.56,-3.56,-3.56,-3.56,-3.56,-3.56,-3.56,-3.56,-3.56,-3.56,-3.56,-3.56,-3.56,-3.56,-3.56,-3.56,-3.56,-3.56,-3.56,-3.5487,-3.5258,-3.5001,-3.4899,0.0,0.0,0.0,0.0,0.0,0.0,0.0,0.0,0.0,0.0,0.0,0.0,0.0,0.0,0.0,0.0,0.0,0.0,0.0,0.0,0.0,0.0,0.0,0.0,0.0,0.0,0.0,0.0,0.0,-4.3515,-4.3515,-4.3515,-4.3479,-4.348,-4.3479,-4.3463,-4.3376,-4.3394,-4.334,-4.3214,-4.3233,-4.3286,-4.3411,-4.348,-4.3515,-4.3515,-4.3515,-4.3515,-4.3515,-4.3515,-4.3497,-4.348,-4.3497,-4.3497,-4.348,-4.3497,-4.3515,-4.3515,-4.3515,-4.3515,-4.3515,-4.3515,-4.3444,-4.3339,-4.2995,-4.2901,-4.2901,-4.2901,-4.2901,-4.2901,-4.2901,-4.2901,-4.167,-3.6757,-3.5988,-3.6383,-3.6383,-3.5955,-3.56,-3.56,-3.56,-3.56,-3.56,-3.56,-3.56,-3.56,-3.56,-3.56,-3.56,-3.56,-3.56,-3.56,-3.56,-3.56,-3.56,-3.56,-3.56,-3.56,-3.56,-3.56,-3.56,-3.56,-3.56,-3.56,-3.56,-3.56,-3.56,-3.56,-3.5373,-3.4899,-3.4899,-3.4899,0.0,0.0,0.0,0.0,0.0,0.0,0.0,0.0,0.0,0.0,0.0,0.0,0.0,0.0,0.0,0.0,0.0,0.0,0.0,0.0,0.0,0.0,0.0,0.0,0.0,0.0,0.0,0.0,-4.3515,-4.3515,-4.3515,-4.3515,-4.3463,-4.3429,-4.3463,-4.341,-4.3233,-4.334,-4.334,-4.3214,-4.3323,-4.3411,-4.3497,-4.3497,-4.3515,-4.3515,-4.3515,-4.3515,-4.3515,-4.3515,-4.3481,-4.3411,-4.348,-4.3463,-4.3411,-4.348,-4.3515,-4.3515,-4.3515,-4.3515,-4.3515,-4.3515,-4.3268,-4.2957,-4.2919,-4.2901,-4.2901,-4.2901,-4.2901,-4.2901,-4.2901,-4.2901,-4.167,-3.6757,-3.7601,-3.9503,-3.9503,-3.7449,-3.56,-3.56,-3.56,-3.56,-3.56,-3.56,-3.56,-3.56,-3.56,-3.56,-3.56,-3.56,-3.56,-3.56,-3.56,-3.56,-3.56,-3.56,-3.56,-3.56,-3.56,-3.56,-3.56,-3.56,-3.56,-3.56,-3.56,-3.56,-3.56,-3.56,-3.5373,-3.4899,-3.4899,-3.4899,-2.0976,-2.5387,-2.9776,0.0,0.0,0.0,0.0,0.0,0.0,0.0,0.0,0.0,0.0,0.0,0.0,0.0,0.0,0.0,0.0,0.0,0.0,0.0,0.0,0.0,0.0,0.0,0.0,0.0,-4.3515,-4.348,-4.3446,-4.3446,-4.3394,-4.3305,-4.3322,-4.3269,-4.3142,-4.3215,-4.316,-4.3031,-4.2723,-4.2594,-4.2645,-4.2275,-4.2619,-4.3515,-4.3515,-4.3515,-4.3497,-4.3445,-4.3429,-4.3394,-4.334,-4.3322,-4.3305,-4.3357,-4.3392,-4.3392,-4.3462,-4.3515,-4.3515,-4.3515,-4.3232,-4.2901,-4.2901,-4.2901,-4.2901,-4.2901,-4.2901,-4.2901,-4.2901,-4.2901,-4.2099,-3.8877,-3.9148,-4.0096,-4.0096,-3.9063,-3.7618,-3.5921,-3.56,-3.56,-3.56,-3.56,-3.56,-3.56,-3.56,-3.56,-3.56,-3.56,-3.56,-3.56,-3.56,-3.56,-3.56,-3.56,-3.56,-3.56,-3.56,-3.56,-3.56,-3.56,-3.56,-3.56,-3.56,-3.56,-3.56,-3.56,-3.5373,-3.4899,-3.4899,-3.4899,-2.1787,-2.5061,-2.7849,-3.1641,0.0,0.0,0.0,0.0,0.0,0.0,0.0,0.0,0.0,0.0,0.0,0.0,0.0,0.0,0.0,0.0,0.0,0.0,0.0,0.0,0.0,0.0,0.0,0.0,-4.348,-4.3446,-4.334,-4.334,-4.3305,-4.3178,-4.3196,-4.3051,-4.2759,-4.274,-4.2703,-4.2648,-4.2141,-4.1831,-4.1665,-4.1168,-4.1763,-4.3168,-4.3185,-4.3296,-4.3479,-4.3429,-4.3394,-4.334,-4.3233,-4.3178,-4.3178,-4.3268,-4.3322,-4.3357,-4.348,-4.3515,-4.3479,-4.3375,-4.3142,-4.2901,-4.2901,-4.2901,-4.2901,-4.2901,-4.2901,-4.2901,-4.2901,-4.2901,-4.242,-4.0538,-4.0096,-4.0096,-4.0096,-4.0096,-3.9436,-3.7178,-3.6732,-3.6732,-3.6732,-3.6732,-3.6462,-3.5718,-3.56,-3.56,-3.56,-3.56,-3.56,-3.56,-3.6276,-3.6732,-3.6732,-3.6732,-3.6732,-3.6732,-3.6732,-3.6732,-3.6732,-3.6732,-3.6377,-3.5616,-3.56,-3.56,-3.56,-3.56,-3.5418,-3.5088,-3.5088,-3.5088,-1.9536,-2.0988,0.0,-2.7923,0.0,0.0,0.0,0.0,0.0,0.0,0.0,0.0,0.0,0.0,0.0,0.0,0.0,0.0,0.0,0.0,0.0,0.0,0.0,0.0,0.0,0.0,0.0,0.0,-4.3412,-4.334,-4.3233,-4.3214,-4.3178,-4.3104,-4.316,-4.2741,-4.1796,-4.1759,-4.1832,-4.196,-4.1923,-4.154,-4.0861,-4.0825,-4.1349,-4.2276,-4.2326,-4.28,-4.3479,-4.3429,-4.3323,-4.3214,-4.3196,-4.316,-4.3105,-4.325,-4.3375,-4.3479,-4.3497,-4.3515,-4.3427,-4.3068,-4.2919,-4.2901,-4.2901,-4.2901,-4.2901,-4.2901,-4.2901,-4.2901,-4.2901,-4.2901,-4.242,-4.0538,-4.0096,-4.0096,-4.0096,-4.0096,-4.0045,-3.991,-3.9876,-3.9876,-3.9876,-3.9876,-3.8911,-3.6022,-3.56,-3.56,-3.56,-3.56,-3.56,-3.56,-3.8159,-3.9876,-3.9876,-3.9876,-3.9876,-3.9876,-3.9876,-3.9876,-3.9876,-3.9876,-3.8514,-3.565,-3.56,-3.56,-3.56,-3.56,-3.56,-3.5577,-3.5577,-3.5577,-1.8382,-1.9271,0.0,0.0,0.0,0.0,0.0,0.0,0.0,0.0,0.0,0.0,0.0,0.0,0.0,0.0,0.0,0.0,0.0,0.0,0.0,0.0,0.0,0.0,0.0,0.0,0.0,0.0,0.0,-4.3305,-4.3142,-4.265,-4.2323,-4.2195,-4.1724,-4.1289,-4.0926,-4.0926,-4.0944,-4.0998,-4.0527,-4.018,-3.9957,-3.943,-3.9972,-4.1297,-4.1331,-4.215,-4.3429,-4.3323,-4.3233,-4.3123,-4.3031,-4.2976,-4.2994,-4.3031,-4.3069,-4.3105,-4.3105,-4.3105,-4.3087,-4.2939,-4.2901,-4.2901,-4.2901,-4.2901,-4.2901,-4.2901,-4.2901,-4.2901,-4.2901,-4.2901,-4.242,-4.0538,-4.0096,-4.0096,-4.0096,-4.0096,-4.0096,-4.0096,-4.0096,-4.0096,-4.0096,-4.0096,-3.974,-3.8633,-3.8481,-3.8481,-3.8481,-3.8481,-3.8481,-3.8481,-3.9469,-4.0096,-4.0096,-4.0096,-4.0096,-4.0096,-4.0096,-4.0096,-4.0096,-4.0096,-3.9605,-3.8497,-3.8481,-3.755,-3.56,-3.56,-3.56,-3.56,-3.56,-3.6444,-1.698,0.0,0.0,0.0,0.0,0.0,0.0,0.0,0.0,0.0,0.0,0.0,0.0,0.0,0.0,0.0,0.0,0.0,0.0,0.0,0.0,0.0,0.0,0.0,0.0,0.0,0.0,0.0,0.0,0.0,-4.2649,-4.2123,-4.1669,-4.1307,-4.0528,-4.0239,-4.0492,-4.0239,-4.013,-4.013,-3.9623,-3.9277,-3.9056,-3.8511,-3.9179,-4.0774,-4.0774,-4.1738,-4.3323,-4.3196,-4.3142,-4.3086,-4.2938,-4.2901,-4.2901,-4.2901,-4.2901,-4.2901,-4.2901,-4.2901,-4.2901,-4.2901,-4.2901,-4.2901,-4.2901,-4.2901,-4.2901,-4.2901,-4.2901,-4.2901,-4.2901,-4.242,-4.1635,-4.0385,-4.0096,-4.0096,-4.0096,-4.0096,-4.0096,-4.0096,-4.0096,-4.0096,-4.0096,-4.0096,-4.0096,-4.0096,-4.0096,-4.0096,-4.0096,-4.0096,-4.0096,-4.0096,-4.0096,-4.0096,-4.0096,-4.0096,-4.0096,-4.0096,-4.0096,-4.0096,-4.0096,-4.0096,-4.0096,-4.0096,-4.0096,-3.9114,-3.711,-3.711,-3.711,-3.711,-3.711,-3.7901,0.0,0.0,0.0,0.0,0.0,0.0,0.0,0.0,0.0,0.0,0.0,0.0,0.0,0.0,0.0,0.0,0.0,0.0,0.0,0.0,0.0,0.0,0.0,0.0,0.0,0.0,0.0,0.0,-4.3069,-4.2631,-4.1705,-4.1632,-4.1252,-4.0456,-3.9731,-3.9713,-4.042,-3.9713,-3.9351,-3.9351,-3.9351,-3.897,-3.8209,-3.8227,-3.913,-4.0688,-4.0706,-4.1668,-4.3196,-4.3141,-4.3104,-4.3086,-4.2938,-4.2901,-4.2901,-4.2901,-4.2901,-4.2901,-4.2901,-4.2901,-4.2901,-4.2901,-4.2901,-4.2901,-4.2901,-4.2901,-4.2901,-4.2901,-4.2901,-4.2882,-4.2844,-4.1459,-4.0096,-4.0096,-4.0096,-4.0096,-4.0096,-4.0096,-4.0096,-4.0096,-4.0096,-4.0096,-4.0096,-4.0096,-4.0096,-4.0096,-4.0096,-4.0096,-4.0096,-4.0096,-4.0096,-4.0096,-4.0096,-4.0096,-4.0096,-4.0096,-4.0096,-4.0096,-4.0096,-4.0096,-4.0096,-4.0096,-4.0096,-4.0096,-4.0096,-4.0096,-4.0096,-4.0096,-4.0096,-4.0096,-4.007,-3.9807,-1.638,0.0,0.0,0.0,0.0,0.0,0.0,0.0,0.0,0.0,0.0,0.0,0.0,0.0,0.0,0.0,0.0,0.0,0.0,0.0,0.0,0.0,0.0,0.0,0.0,0.0,0.0,0.0,-4.1447,-4.1269,-4.0854,-4.0329,-3.9659,-3.8862,-3.8627,-3.8644,-3.8826,-3.8644,-3.8535,-3.8535,-3.8535,-3.8426,-3.8227,-3.8807,-3.9604,-4.06,-4.118,-4.2014,-4.2994,-4.3068,-4.303,-4.2938,-4.2901,-4.2901,-4.2901,-4.2901,-4.2901,-4.2901,-4.2901,-4.2901,-4.2901,-4.2901,-4.2901,-4.2901,-4.2901,-4.2901,-4.2901,-4.2901,-4.2901,-4.2577,-4.123,-4.049,-4.0096,-4.0096,-4.0096,-4.0096,-4.0096,-4.0096,-4.0096,-4.0096,-4.0096,-4.0096,-4.0096,-4.0096,-4.0096,-4.0096,-4.0096,-4.0096,-4.0096,-4.0096,-4.0096,-4.0096,-4.0096,-4.0096,-4.0096,-4.0096,-4.0096,-4.0096,-4.0096,-4.0096,-4.0096,-4.0096,-4.0096,-4.0096,-4.0096,-4.0096,-4.0096,-4.0096,-4.0096,-4.007,-3.9703,-3.9441,-1.7288,0.0,0.0,0.0,0.0,0.0,0.0,-2.6554,0.0,0.0,0.0,0.0,0.0,0.0,0.0,0.0,0.0,0.0,0.0,0.0,0.0,0.0,0.0,0.0,0.0,-4.0776,-4.0928,-4.0808,-4.0756,-4.056,-4.0075,-3.9315,-3.868,-3.8209,-3.8209,-3.8209,-3.8209,-3.8209,-3.8209,-3.8209,-3.8209,-3.8209,-3.8227,-3.8698,-3.9478,-4.0528,-4.0999,-4.185,-4.2919,-4.2994,-4.2975,-4.2901,-4.2901,-4.2901,-4.2901,-4.2901,-4.2901,-4.2901,-4.2901,-4.2901,-4.2901,-4.2901,-4.2901,-4.2901,-4.2901,-4.2901,-4.2901,-4.2901,-4.234,-4.1481,-4.0385,-4.0096,-4.0096,-4.0096,-4.0096,-4.0096,-4.0096,-4.0096,-4.0096,-4.0096,-4.0096,-4.0096,-4.0096,-4.0096,-4.0096,-4.0096,-4.0096,-4.0096,-4.0096,-4.0096,-4.0096,-4.0096,-4.0096,-4.0096,-4.0096,-4.0096,-4.0096,-4.0096,-4.0096,-4.0096,-4.0096,-4.0096,-4.0096,-4.0096,-4.0096,-4.0096,-4.0096,-4.0096,-3.9969,-3.9755,-3.9458,-3.9299,-1.853,-1.8826,0.0,0.0,0.0,0.0,-2.6453,-2.6121,-2.5978,0.0,0.0,0.0,0.0,0.0,0.0,0.0,0.0,0.0,0.0,0.0,0.0,0.0,0.0,0.0,-3.9458,-4.0115,-4.0535,-4.0535,-4.045,-4.009,-3.9314,-3.8589,-3.8209,-3.8209,-3.8209,-3.8209,-3.8209,-3.8209,-3.8209,-3.8209,-3.8209,-3.8209,-3.8209,-3.8299,-3.9134,-4.0492,-4.0583,-4.1506,-4.2901,-4.2901,-4.2901,-4.2901,-4.2901,-4.2901,-4.2901,-4.2901,-4.2901,-4.2901,-4.2901,-4.2901,-4.2901,-4.2901,-4.2901,-4.2901,-4.2901,-4.2901,-4.2863,-4.2653,-4.1393,-4.0096,-4.0096,-4.0096,-4.0096,-4.0096,-4.0096,-4.0096,-4.0096,-4.0096,-4.0096,-4.0096,-4.0096,-4.0096,-4.0096,-4.0096,-4.0096,-4.0096,-4.0096,-4.0096,-4.0096,-4.0096,-4.0096,-4.0096,-4.0096,-4.0096,-4.0096,-4.0096,-4.0096,-4.0096,-4.0096,-4.0096,-4.0096,-4.0096,-4.0096,-4.0096,-4.0096,-4.007,-4.0011,-4.0011,-3.9781,-3.9299,-3.9352,-3.9405,-2.2182,-2.1972,-2.2054,-2.2167,0.0,0.0,-2.2927,-2.3001,-2.3593,0.0,0.0,0.0,0.0,0.0,0.0,0.0,0.0,0.0,0.0,0.0,0.0,0.0,0.0,0.0,-3.8636,-3.8782,-3.8858,-3.8794,-3.8729,-3.8606,-3.8444,-3.8299,-3.8209,-3.8209,-3.8209,-3.8209,-3.8209,-3.8209,-3.8209,-3.8209,-3.8209,-3.8209,-3.8227,-3.8862,-3.9659,-4.0528,-4.118,-4.2013,-4.2901,-4.2901,-4.2901,-4.2901,-4.2901,-4.2901,-4.2901,-4.2901,-4.2901,-4.2901,-4.2901,-4.2901,-4.2901,-4.2901,-4.2901,-4.2901,-4.2901,-4.2901,-4.2577,-4.1071,-4.0385,-4.0096,-4.0096,-4.0096,-4.0096,-4.0096,-4.0096,-4.0096,-4.0096,-4.0096,-4.0096,-4.0096,-4.0096,-4.0096,-4.0096,-4.0096,-4.0096,-4.0096,-4.0096,-4.0096,-4.0096,-4.0096,-4.0096,-4.0096,-4.0096,-4.0096,-4.0096,-4.0096,-4.0096,-4.0096,-4.0096,-4.0096,-4.0096,-4.0096,-4.0096,-4.0096,-4.0096,-3.9884,-3.9458,-3.9458,-3.9405,-3.9299,-3.9755,-3.9944,-2.4151,-2.3829,-2.3856,-2.389,0.0,0.0,0.0,-2.2916,-2.2894,-2.502,0.0,0.0,0.0,0.0,0.0,0.0,0.0,0.0,0.0,0.0,0.0,0.0,0.0,0.0,-3.7735,-3.8099,-3.8338,-3.8307,-3.8274,-3.8242,-3.8209,-3.8209,-3.8209,-3.8209,-3.8209,-3.8209,-3.8209,-3.8209,-3.8209,-3.8209,-3.8209,-3.8209,-3.8209,-3.8625,-3.9423,-4.0492,-4.0546,-4.1234,-4.2266,-4.1868,-4.1705,-4.1778,-4.2593,-4.2901,-4.2901,-4.2901,-4.2901,-4.2901,-4.2901,-4.2901,-4.2901,-4.2901,-4.2901,-4.2901,-4.2901,-4.2259,-4.1303,-4.036,-4.0096,-4.0096,-4.0096,-4.0096,-4.0096,-4.0096,-4.0096,-4.0096,-4.0096,-4.0096,-4.0096,-4.0096,-4.0096,-4.0096,-4.0096,-4.0096,-4.0096,-4.0096,-4.0096,-4.0096,-4.0096,-4.0096,-4.0096,-4.0096,-4.0096,-4.0096,-4.0096,-4.0096,-4.0096,-4.0096,-4.0096,-4.0096,-4.0096,-4.0096,-4.0096,-4.0096,-4.0096,-3.9986,-3.9703,-3.9703,-3.9703,-3.9703,-3.9969,-4.0096,0.0,0.0,0.0,0.0,0.0,-2.4466,0.0,0.0,0.0,-2.5316,0.0,0.0,0.0,0.0,0.0,0.0,0.0,0.0,0.0,0.0,0.0,0.0,0.0,0.0,0.0,-3.7073,-3.7548,-3.8002,-3.7747,-3.7785,-3.8172,-3.8209,-3.8209,-3.8209,-3.8209,-3.8209,-3.8209,-3.8209,-3.8209,-3.8209,-3.8209,-3.8209,-3.8209,-3.8209,-3.8952,-4.0239,-3.9659,-4.0184,-4.1415,-4.0764,-4.0456,-4.0528,-4.1904,-4.2629,-4.2901,-4.2901,-4.2901,-4.2901,-4.2901,-4.2901,-4.2901,-4.2901,-4.2901,-4.2901,-4.2901,-4.1591,-4.0096,-4.0096,-4.0096,-4.0096,-4.0096,-4.0096,-4.0096,-4.0096,-4.0096,-4.0096,-4.0096,-4.0096,-4.0096,-4.0096,-4.0096,-4.0096,-4.0096,-4.0096,-4.0096,-4.0096,-4.0096,-4.0096,-4.0096,-4.0096,-4.0096,-4.0096,-4.0096,-4.0096,-4.0096,-4.0096,-4.0096,-4.0096,-4.0096,-4.0096,-4.0096,-4.0096,-4.0096,-4.0096,-4.0096,-4.0096,-4.0096,-4.0096,-4.0096,-4.0096,-4.0096,-4.0045,0.0,0.0,0.0,0.0,-2.7809,0.0,0.0,0.0,-2.3821,-2.1819,0.0,0.0,0.0,0.0,0.0,0.0,0.0,0.0,0.0,0.0,0.0,0.0,0.0,0.0,0.0,-3.4314,-3.4839,-3.6993,-3.5835,-3.5962,-3.81,-3.8209,-3.8209,-3.8209,-3.8209,-3.8209,-3.8209,-3.8209,-3.8209,-3.8209,-3.8209,-3.8209,-3.8209,-3.8209,-3.868,-3.9514,-3.9441,-3.9876,-4.0619,-4.0528,-4.0293,-4.0012,-4.0546,-4.1651,-4.2901,-4.2901,-4.2901,-4.2901,-4.2901,-4.2901,-4.2901,-4.2901,-4.2901,-4.2901,-4.2901,-4.1591,-4.0096,-4.0096,-4.0096,-4.0096,-4.0096,-4.0096,-4.0096,-4.0096,-4.0096,-4.0096,-4.0096,-4.0096,-4.0096,-4.0096,-4.0096,-4.0096,-4.0096,-4.0096,-4.0096,-4.0096,-4.0096,-4.0096,-4.0096,-4.0096,-4.0096,-4.0096,-4.0096,-4.0096,-4.0096,-4.0096,-4.0096,-4.0096,-4.0096,-4.0096,-4.0096,-4.0096,-4.0096,-4.0096,-4.0096,-4.0096,-4.0096,-4.0096,-4.0096,-4.0096,-4.0096,-3.9858,0.0,0.0,0.0,0.0,0.0,0.0,-2.4413,0.0,-2.2773,0.0,0.0,0.0,0.0,0.0,0.0,0.0,0.0,0.0,0.0,0.0,0.0,0.0,0.0,0.0,0.0,0.0,0.0,0.0,-3.4806,-3.495,-3.7375,-3.7502,-3.772,-3.8191,-3.8209,-3.8209,-3.8209,-3.8209,-3.8209,-3.8209,-3.8209,-3.8209,-3.8192,-3.7933,-3.8241,-3.8941,-3.8255,-3.8394,-3.907,-3.8607,-3.8393,-3.8411,-3.8597,-3.9823,-4.1615,-4.2556,-4.2901,-4.2901,-4.2901,-4.2901,-4.2901,-4.2901,-4.216,-4.1276,-4.1276,-4.0713,-4.0096,-4.0096,-4.0096,-4.0096,-4.0096,-4.0096,-4.0096,-4.0096,-4.0096,-4.0096,-4.0096,-4.0096,-4.0096,-4.0096,-4.0096,-4.0096,-4.0096,-4.0096,-4.0096,-4.0096,-4.0096,-4.0096,-4.0096,-4.0096,-4.0096,-4.0096,-4.0096,-4.0096,-4.0096,-4.0096,-4.0096,-4.0096,-4.0096,-4.0096,-4.0096,-4.0096,-4.0096,-4.0096,-4.0096,-4.0096,-4.0096,-4.0096,-4.0096,-4.0096,-3.9781,-3.9537,-3.0976,0.0,0.0,0.0,0.0,0.0,0.0,0.0,0.0,0.0,0.0,0.0,0.0,0.0,0.0,0.0,0.0,0.0,0.0,0.0,0.0,0.0,0.0,0.0,0.0,0.0,0.0,0.0,0.0,-3.3557,-3.6508,-3.6787,-3.715,-3.7846,-3.81,-3.8209,-3.8209,-3.8426,-3.8426,-3.8192,-3.8506,-3.8417,-3.8003,-3.7755,-3.7855,-3.8157,-3.7283,-3.7216,-3.7727,-3.7128,-3.6978,-3.7094,-3.7152,-3.8013,-3.9362,-4.0997,-4.1839,-4.2139,-4.2139,-4.2139,-4.2139,-4.2139,-4.119,-4.0096,-4.0096,-4.0096,-4.0096,-4.0096,-4.0096,-4.0096,-4.0096,-4.0096,-4.0096,-4.0096,-4.0096,-4.0096,-4.0096,-4.0096,-4.0096,-4.0096,-4.0096,-4.0096,-4.0096,-4.0096,-4.0096,-4.0096,-4.0096,-4.0096,-4.0096,-4.0096,-4.0096,-4.0096,-4.0096,-4.0096,-4.0096,-4.0096,-4.0096,-4.0096,-4.0096,-4.0096,-4.0096,-4.0096,-4.0096,-4.0096,-4.0096,-4.0096,-4.0096,-4.0096,-4.002,-3.9884,-3.9468,-3.973,0.0,0.0,0.0,-2.8421,0.0,0.0,0.0,0.0,-2.5596,0.0,0.0,0.0,0.0,0.0,0.0,0.0,0.0,0.0,0.0,0.0,0.0,0.0,0.0,0.0,0.0,0.0,0.0,0.0,0.0,0.0,-3.5607,-3.6212,-3.6608,-3.7015,-3.7792,-3.8209,-3.8209,-3.897,-3.897,-3.821,-3.9263,-3.8968,-3.7523,-3.7853,-3.7602,-3.6954,-3.6917,-3.6917,-3.6935,-3.6917,-3.6759,-3.6553,-3.6801,-3.6451,-3.5983,-3.772,-3.9138,-4.0196,-4.0196,-4.0196,-4.0196,-4.0196,-4.0146,-4.0096,-4.0096,-4.0096,-4.0096,-4.0096,-4.0096,-4.0096,-4.0096,-4.0096,-4.0096,-4.0096,-4.0096,-4.0096,-4.0096,-4.0096,-4.0096,-4.0096,-4.0096,-4.0096,-4.0096,-4.0096,-4.0096,-4.0096,-4.0096,-4.0096,-4.0096,-4.0096,-4.0096,-4.0096,-4.0096,-4.0096,-4.0096,-4.0096,-4.0096,-4.0096,-4.0096,-4.0096,-4.0096,-4.0096,-4.0096,-4.0096,-4.0096,-4.0096,-4.0096,-4.0096,-3.9833,-3.9325,-3.9299,-4.0796,0.0,0.0,-3.3916,-3.042,0.0,0.0,0.0,0.0,0.0,0.0,0.0,0.0,0.0,0.0,0.0,0.0,0.0,0.0,0.0,0.0,0.0,0.0,0.0,0.0,0.0,0.0,0.0,0.0,-2.9358,0.0,0.0,-3.5504,-3.6205,-3.6589,-3.7344,-3.788,-3.8192,-3.815,-3.8241,-3.8456,-3.8327,-3.8122,-3.7815,-3.7268,-3.682,-3.6492,-3.6161,-3.6032,-3.6032,-3.6032,-3.5985,-3.5915,-3.6006,-3.5854,-3.5909,-3.8503,-3.9712,-4.0096,-4.0096,-4.0096,-4.0096,-4.0096,-4.0096,-4.0096,-4.0096,-4.0096,-4.0096,-4.0096,-4.0096,-4.0096,-4.0096,-4.0096,-4.0096,-4.0096,-4.0096,-4.0096,-4.0096,-4.0096,-4.0096,-4.0096,-4.0096,-4.0096,-4.0096,-4.0096,-4.0096,-4.0096,-4.0096,-4.0096,-4.0096,-4.0096,-4.0096,-4.0096,-4.0096,-4.0096,-4.0096,-4.0096,-4.0096,-4.0096,-4.0096,-4.0096,-4.0096,-4.0096,-4.1044,-4.3041,-4.3091,-4.3091,-4.3075,-4.1077,-4.0798,-4.2154,-4.2154,-4.2684,-3.5335,-3.5732,0.0,-3.1489,-3.0367,0.0,-2.5741,0.0,0.0,0.0,0.0,0.0,0.0,0.0,0.0,0.0,0.0,0.0,0.0,0.0,0.0,0.0,0.0,0.0,0.0,0.0,-2.62,-2.971,-2.8631,0.0,0.0,0.0,-3.5487,-3.6159,-3.6898,-3.7505,-3.795,-3.8222,-3.8233,-3.799,-3.8365,-3.8172,-3.7455,-3.6955,-3.6457,-3.6045,-3.5734,-3.56,-3.56,-3.56,-3.56,-3.56,-3.56,-3.56,-3.5955,-3.8996,-4.0096,-4.0096,-4.0096,-4.0096,-4.0096,-4.0096,-4.0096,-4.0096,-4.0096,-4.0096,-4.0096,-4.0096,-4.0096,-4.0096,-4.0096,-4.0096,-4.0096,-4.0096,-4.0096,-4.0096,-4.0096,-4.0096,-4.0096,-4.0096,-4.0096,-4.0096,-4.0096,-4.0096,-4.0096,-4.0096,-4.0096,-4.0096,-4.0096,-4.0096,-4.0096,-4.0096,-4.0096,-4.0096,-4.0096,-4.0096,-4.0096,-4.0096,-4.0096,-4.0096,-4.0096,-4.1128,-4.2618,-4.4564,-4.4615,-4.4485,-4.4241,-4.2282,-4.2111,-4.3598,-4.3598,-4.3717]},{"header":{"parameterUnit":"m.s-1","parameterCategory":1,"la1":30.6,"la2":29.2853,"lo1":-89.7004,"lo2":-87.6739,"dy":0.0162,"dx":0.0183,"nx":112,"ny":82,"refTime":"2026-05-22T00:00:00:Z","depth":0,"parameterNumber":3,"parameterNumberName":"V-component_of_WINDS"},"data":[0.0,0.0,0.0,0.0,0.0,0.0,0.0,0.0,0.0,0.0,0.0,0.0,0.0,0.0,0.0,0.0,0.0,0.0,0.0,0.0,0.0,0.0,0.0,0.0,0.0,0.0,0.0,0.0,0.0,0.0,0.0,0.0,0.0,0.0,0.0,0.0,0.0,0.0,0.0,0.0,0.0,0.0,0.0,0.0,0.0,0.0,0.0,0.0,0.0,0.0,0.0,0.0,0.0,0.0,0.0,0.0,0.0,0.0,0.0,0.0,0.0,0.0,0.0,0.0,0.0,0.0,0.0,0.0,0.0,0.0,0.0,0.0,0.0,0.0,0.0,0.0,0.0,0.0,0.0,0.0,0.0,0.0,0.0,0.0,0.0,0.0,0.0,0.0,0.0,0.0,0.0,0.7764,0.9336,1.0487,1.0946,1.0922,1.0342,0.9082,0.0,0.0,0.0,0.0,0.0,0.0,0.0,0.0,0.0,0.0,0.0,0.0,0.0,0.0,0.0,0.0,0.0,0.0,0.0,0.0,0.0,0.0,0.0,0.0,0.0,0.0,0.0,0.0,0.0,0.0,0.0,0.0,0.0,0.0,0.0,0.0,0.0,0.0,0.0,0.0,0.0,0.0,0.0,0.0,0.0,0.0,0.0,0.0,0.0,0.0,0.0,0.0,0.0,0.0,0.0,0.0,0.0,0.0,0.0,0.0,0.0,0.0,0.0,0.0,0.0,0.0,0.0,0.0,0.0,0.0,0.0,0.0,0.0,0.0,0.0,0.0,0.0,0.0,0.0,0.0,0.0,0.0,0.0,0.0,0.0,0.0,0.0,0.0,0.0,0.0,0.0,0.0,0.0,0.0,0.0,0.0,0.0,0.0,0.0,0.0,0.0,0.0,0.0,0.0,0.6301,0.8851,0.9887,1.0636,1.1267,1.102,1.0411,0.9468,0.0,0.0,0.0,0.0,0.0,0.0,0.0,0.0,0.0,0.0,0.0,0.0,0.0,0.0,0.0,0.0,0.0,0.0,0.0,0.0,0.0,0.0,0.0,0.0,0.0,0.0,0.0,0.0,0.0,0.0,0.0,0.0,0.0,0.0,0.0,0.0,0.0,0.0,0.0,0.0,0.0,0.0,0.0,0.0,0.0,0.0,0.0,0.0,0.0,0.0,0.0,0.0,0.0,0.0,0.0,0.0,0.0,0.0,0.0,0.0,0.0,0.0,0.0,0.0,0.0,0.0,0.0,0.0,0.0,0.0,0.0,0.0,0.0,0.0,0.0,0.0,0.0,0.0,0.0,0.0,0.0,0.0,0.0,0.0,0.0,0.0,0.0,0.0,0.0,0.0,0.0,0.0,0.0,0.0,0.0,0.0,0.0,0.0,0.0,0.0,0.0,0.0,0.0,0.5789,0.6918,0.9264,0.9917,1.0398,1.0918,1.1055,1.0671,0.9565,0.8679,0.0,0.0,0.0,0.0,0.0,0.0,0.0,0.0,0.0,0.0,0.0,0.0,0.0,0.0,0.0,0.0,0.0,0.0,0.0,0.0,0.0,0.0,0.0,0.0,0.0,0.0,0.0,0.0,0.0,0.0,0.0,0.0,0.0,0.0,0.0,0.0,0.0,0.0,0.0,0.0,0.0,0.0,0.0,0.0,0.0,0.0,0.0,0.0,0.0,0.0,0.0,0.0,0.0,0.0,0.0,0.0,0.0,0.0,0.0,0.0,0.0,0.0,0.0,0.0,0.0,0.0,0.0,0.0,0.0,0.0,0.0,0.0,0.0,0.0,0.0,0.0,0.0,0.0,0.0,0.0,0.0,0.0,0.0,0.0,0.0,0.0,0.0,0.0,0.0,0.0,0.0,0.0,0.0,0.0,0.0,0.0,0.0,0.0,0.0,0.0,0.0,0.0,0.695,0.78,0.9414,0.9852,1.0239,1.0674,1.0919,1.0612,0.9558,0.8575,0.0,0.0,0.0,0.0,0.0,0.0,0.0,0.0,0.0,0.0,0.0,0.0,0.0,0.0,0.0,0.0,0.0,0.0,0.0,0.0,0.0,0.0,0.0,0.0,0.0,0.0,0.0,0.0,0.0,0.0,0.0,0.0,0.0,0.0,0.0,0.0,0.0,0.0,0.0,0.0,0.0,0.0,0.0,0.0,0.0,0.0,0.0,0.0,0.0,0.0,0.0,0.0,0.0,0.0,0.0,0.0,0.0,0.0,0.0,0.0,0.0,0.0,0.0,0.0,0.0,0.0,0.0,0.0,0.0,0.0,0.0,0.0,0.0,0.0,0.0,0.0,0.0,0.0,0.0,0.0,0.0,0.0,0.0,0.0,0.0,0.0,0.0,0.0,0.0,0.0,0.0,0.0,0.0,0.0,0.0,0.0,0.0,0.0,0.0,0.0,0.0,0.0,0.7295,0.859,0.9431,0.9905,1.0414,1.1019,1.0463,0.9914,0.9521,0.8276,0.0,0.0,0.0,0.0,0.0,0.0,0.0,0.0,0.0,0.0,0.0,0.0,0.0,0.0,0.0,0.0,0.0,0.0,0.0,0.0,0.0,0.0,0.0,0.0,0.0,0.0,0.0,0.0,0.0,0.0,0.0,0.0,0.0,0.0,0.0,0.0,0.0,0.0,0.0,0.0,0.0,0.0,0.0,0.0,0.0,0.0,0.0,0.0,0.0,0.0,0.0,0.0,0.0,0.0,0.0,0.0,0.0,0.0,0.0,0.0,0.0,0.0,0.0,0.0,0.0,0.0,0.0,0.0,0.0,0.0,0.0,0.0,0.0,0.0,0.0,0.0,0.0,0.0,0.0,0.0,0.0,0.0,0.0,0.0,0.0,0.0,0.0,0.0,0.0,0.0,0.0,0.0,0.0,0.0,0.0,0.0,0.0,0.0,0.0,0.0,0.0,0.0,0.7235,0.8344,0.0,0.9969,1.0339,1.104,1.085,1.0349,0.9552,0.0,0.0,0.0,0.0,0.0,0.0,0.0,0.0,0.0,0.0,0.0,0.0,0.0,0.0,0.0,0.0,0.0,0.0,0.0,0.0,0.0,0.0,0.0,0.0,0.0,0.0,0.0,0.0,0.0,0.0,0.0,0.0,0.0,0.0,0.0,0.0,0.0,0.0,0.0,0.0,0.0,0.0,0.0,0.0,0.0,0.0,0.0,0.0,0.0,0.0,0.0,0.0,0.0,0.0,0.0,0.0,0.0,0.0,0.0,0.0,0.0,0.0,0.0,0.0,0.0,0.0,0.0,0.0,0.0,0.0,0.0,0.0,0.0,0.0,0.0,0.0,0.0,0.0,0.0,0.0,0.0,0.0,0.0,0.0,0.0,0.0,0.0,0.0,0.0,0.0,0.0,0.0,0.0,0.0,0.0,0.0,0.0,0.0,0.0,0.0,0.0,0.0,0.6582,0.7386,0.8359,0.0,1.0017,1.0341,1.075,1.0891,1.0474,0.9307,0.0,0.0,0.0,0.0,0.0,0.0,0.0,0.0,0.0,0.0,0.0,0.0,0.0,0.0,0.0,0.0,0.0,0.0,0.0,0.0,0.0,0.0,0.0,0.0,0.0,0.0,0.0,0.0,0.0,0.0,0.0,0.0,0.0,0.0,0.0,0.0,0.0,0.0,0.0,0.0,0.0,0.0,0.0,0.0,0.0,0.0,0.0,0.0,0.0,0.0,0.0,0.0,0.0,0.0,0.0,0.0,0.0,0.0,0.0,0.0,0.0,0.0,0.0,0.0,0.0,0.0,0.0,0.0,0.0,0.0,0.0,0.0,0.0,0.0,0.0,0.0,0.0,0.0,0.0,0.0,0.0,0.0,0.0,0.0,0.0,0.0,0.0,0.0,0.0,0.0,0.0,0.0,0.0,0.0,0.0,0.0,0.0,0.0,0.0,0.0,0.0,0.0,0.6629,0.7887,0.884,0.917,1.0029,1.045,1.014,1.0407,1.006,0.0,0.0,0.0,0.0,0.0,0.0,0.0,0.0,0.0,0.0,0.0,0.0,0.0,0.0,0.0,0.0,0.0,0.0,0.0,0.0,0.0,0.0,0.0,0.0,0.0,0.0,0.0,0.0,0.0,0.0,0.0,0.0,0.0,0.0,0.0,0.0,0.0,0.0,0.0,0.0,0.0,0.0,0.0,0.0,0.0,0.0,0.0,0.0,0.0,0.0,0.0,0.0,0.0,0.0,0.0,0.0,0.0,0.0,0.0,0.0,0.0,0.0,0.0,0.0,0.0,0.0,0.0,0.0,0.0,0.0,0.0,0.0,0.0,0.0,0.0,0.0,0.0,0.0,0.0,0.0,0.0,0.0,0.0,0.0,0.0,0.0,0.0,0.0,0.0,0.0,0.0,0.0,0.0,0.0,0.0,0.0,0.0,0.0,0.0,0.0,0.0,0.0,0.0,0.7268,0.8165,0.9041,0.9946,0.9949,1.0095,1.0615,1.0401,0.9798,0.8767,0.0,0.0,0.0,0.0,0.0,0.0,0.0,0.0,0.0,0.0,0.0,0.0,0.0,0.0,0.0,0.0,0.0,0.0,0.0,0.0,0.0,0.0,0.0,0.0,0.0,0.0,0.0,0.0,0.0,0.0,0.0,0.0,0.0,0.0,0.0,0.0,0.0,0.0,0.0,0.0,0.0,0.0,0.0,0.0,0.0,0.0,0.0,0.0,0.0,0.0,0.0,0.0,0.0,0.0,0.0,0.0,0.0,0.0,0.0,0.0,0.0,0.0,0.0,0.0,0.0,0.0,0.0,0.0,0.0,0.0,0.0,0.0,0.0,0.0,0.0,0.0,0.0,0.0,0.0,0.0,0.0,0.0,0.0,0.0,0.0,0.0,0.0,0.0,0.0,0.0,0.0,0.0,0.0,0.0,0.0,0.0,0.0,0.0,0.0,0.0,0.0,0.0,0.753,0.8282,0.9047,0.9992,1.0182,1.0318,1.0525,1.0673,1.014,0.8746,0.0,0.0,0.0,0.0,0.0,0.0,0.0,0.0,0.0,0.0,0.0,0.0,0.0,0.0,0.0,0.0,0.0,0.0,0.0,0.0,0.0,0.0,0.0,0.0,0.0,0.0,0.0,0.0,0.0,0.0,0.0,0.0,0.0,0.0,0.0,0.0,0.0,0.0,0.0,0.0,0.0,0.0,0.0,0.0,0.0,0.0,0.0,0.0,0.0,0.0,0.0,0.0,0.0,0.0,0.0,0.0,0.0,0.0,0.0,0.0,0.0,0.0,0.0,0.0,0.0,0.0,0.0,0.0,0.0,0.0,0.0,0.0,0.0,0.0,0.0,0.0,0.0,0.0,0.0,0.0,0.0,0.0,0.0,0.0,0.0,0.0,0.0,0.0,0.0,0.0,0.0,0.0,0.0,0.0,0.0,0.0,0.0,0.0,0.0,0.0,0.0,0.0,0.753,0.8312,0.8955,0.9548,1.0456,1.0787,1.0117,1.0955,1.0724,0.8768,0.0,0.0,0.0,0.0,0.0,0.0,0.0,0.0,0.0,0.0,0.0,0.0,0.0,0.0,0.0,0.0,0.0,0.0,0.0,0.0,0.0,0.0,0.0,0.0,0.0,0.0,0.0,0.0,0.0,0.0,0.0,0.0,0.0,0.0,0.0,0.0,0.0,0.0,0.0,0.0,0.0,0.0,0.0,0.0,0.0,0.0,0.0,0.0,0.0,0.0,0.0,0.0,0.0,0.0,0.0,0.0,0.0,0.0,0.0,0.0,0.7845,0.0,0.0,0.0,0.0,0.0,0.0,0.0,0.0,0.0,0.0,0.0,0.0,0.0,0.0,0.0,0.0,0.0,0.0,0.0,0.0,0.0,0.0,0.0,0.0,0.0,0.0,0.0,0.0,0.0,0.0,0.0,0.0,0.0,0.0,0.0,0.0,0.0,0.0,0.0,0.0,0.0,0.7559,0.8509,0.9236,0.9577,0.9795,1.008,1.0449,1.0398,0.9968,0.9059,0.8233,0.0,0.0,0.0,0.0,0.0,0.0,0.0,0.0,0.0,0.0,0.0,0.0,0.0,0.0,0.0,0.0,0.0,0.0,0.0,0.0,0.0,0.0,0.0,0.0,0.0,0.0,0.0,0.0,0.0,0.0,0.0,0.0,0.0,0.0,0.0,0.0,0.0,0.0,0.0,0.0,0.0,0.0,0.0,0.0,0.0,0.0,0.0,0.0,0.0,0.0,0.0,0.0,0.0,0.0,0.0,0.0,0.0,0.0,0.0,0.0,0.7682,0.0,0.0,0.0,0.0,0.0,0.0,0.0,0.0,0.0,0.0,0.0,0.0,0.0,0.0,0.0,0.0,0.0,0.0,0.0,0.0,0.0,0.0,0.0,0.0,0.0,0.0,0.0,0.0,0.0,0.0,0.0,0.0,0.0,0.0,0.0,0.0,0.0,0.0,0.0,0.0,0.7821,0.867,0.931,0.9585,0.9821,1.0043,1.0197,1.0102,0.9847,0.9374,0.8398,0.0,0.0,0.0,0.0,0.0,0.0,0.0,0.0,0.0,0.0,0.0,0.0,0.0,0.0,0.0,0.0,0.0,0.0,0.0,0.0,0.0,0.0,0.0,0.0,0.0,0.0,0.0,0.0,0.0,0.0,0.0,0.0,0.0,0.0,0.0,0.0,0.0,0.0,0.0,0.0,0.0,0.0,0.0,0.0,0.0,0.0,0.0,0.0,0.0,0.0,0.0,0.0,0.0,1.1153,1.1185,1.0782,1.0656,1.0707,1.0819,0.9199,0.8789,0.9169,0.7962,0.0,0.0,0.0,0.0,0.0,0.0,0.0,0.0,0.0,0.0,0.0,0.0,0.0,0.0,0.0,0.0,0.0,0.0,0.0,0.0,0.0,0.0,0.0,0.0,0.8941,0.897,0.0,0.0,0.0,0.0,0.0,0.0,0.0,0.0,0.0,0.0,0.0,0.0,0.8158,0.8853,0.9343,0.9585,1.001,1.0201,1.005,1.0074,1.0005,0.9835,0.8762,0.7941,0.0,0.0,0.0,0.0,0.0,0.0,0.0,0.0,0.0,0.0,0.0,0.0,0.0,0.0,0.0,0.0,0.0,0.0,0.0,0.0,0.0,0.0,0.0,0.0,0.0,0.0,0.0,0.0,0.0,0.0,0.0,0.0,0.5194,0.508,0.0,0.0,0.0,0.0,0.0,0.0,0.0,0.0,0.0,0.0,0.0,0.0,0.0,0.8417,0.8571,0.9615,1.0285,1.0593,1.0688,1.0996,1.1435,1.087,1.1142,1.2058,1.1814,0.0,0.8012,0.8897,0.0,0.0,0.0,0.0,0.0,0.0,0.0,0.0,0.0,0.0,0.0,0.0,0.0,0.0,0.0,0.0,0.0,0.0,0.0,0.0,0.0,0.0,1.0148,0.9907,0.9914,0.9921,0.0,0.8545,0.7443,0.7034,0.6556,0.0,0.0,0.0,0.0,0.0,0.0,0.0,0.8494,0.9168,0.957,0.9581,0.9666,1.0056,1.0931,1.0413,1.022,1.0706,0.999,0.9192,0.8445,0.753,0.0,0.0,0.0,0.0,0.0,0.0,0.0,0.0,0.0,0.0,0.0,0.0,0.0,0.0,0.0,0.0,0.0,0.0,0.0,0.0,0.0,0.0,0.0,0.0,0.0,0.0,0.0,0.0,0.0,0.5492,0.6259,0.6259,0.6259,0.6005,0.0,0.0,0.0,0.0,0.0,0.0,0.0,0.0,0.0,0.9038,0.9548,0.9822,0.9822,1.0955,1.1578,1.1578,1.1578,1.1709,1.1957,1.1406,1.1597,1.2305,1.2305,1.1526,1.0285,1.0193,0.9302,0.7996,0.0,0.0,0.0,0.0,0.7894,1.0631,1.0102,1.0645,0.0,1.0733,0.0,0.0,0.0,0.0,0.0,0.0,0.0,0.0,0.0,0.0,1.0718,1.0762,1.0857,1.0902,1.0689,1.0097,0.9292,0.0,0.7821,0.7432,0.6717,0.0,0.0,0.0,0.0,0.8268,0.8906,0.9343,0.9588,0.9588,0.9588,0.9795,1.0251,0.9839,0.9797,1.036,0.967,0.9217,0.916,0.8148,0.743,0.0,0.0,0.0,0.0,0.0,0.0,0.0,0.0,0.0,0.0,0.0,0.0,0.0,0.0,0.0,0.0,0.0,0.0,0.0,0.0,0.0,0.0,0.0,0.0,0.0,0.0,0.0,0.0,0.6306,0.7113,0.7013,0.7273,0.7014,0.0,0.0,0.0,0.0,0.0,0.0,1.0928,1.183,1.1904,1.1062,1.1042,1.1042,1.1042,1.1864,1.2305,1.2305,1.2305,1.2305,1.2285,1.2277,1.243,1.2759,1.2759,1.2585,1.2231,1.1363,1.0526,0.9626,0.909,0.8491,0.7879,0.7571,0.9285,1.1822,1.2018,1.209,1.1929,1.0924,1.1138,1.1724,1.1437,0.0,0.0,0.0,0.0,1.0101,1.0583,1.0986,1.1284,1.1553,1.1648,1.1643,1.137,1.1224,1.0726,0.0,0.9109,0.8794,0.7953,0.0,0.0,0.0,0.0,0.8855,0.9258,0.9475,0.9588,0.9588,0.9588,0.9666,0.9795,0.9537,0.9587,1.0169,0.9529,0.9334,0.9786,0.8862,0.8238,0.8029,0.0,0.0,0.0,0.0,0.0,0.0,0.0,0.0,0.0,0.0,0.0,0.0,0.0,0.0,0.0,0.0,0.0,0.0,0.0,0.0,0.0,0.0,0.0,0.0,0.0,0.0,0.0,0.0,0.0,0.7046,0.8023,0.0,0.0,0.0,0.0,0.8544,0.9749,1.0948,1.2151,1.2271,1.2278,1.2218,1.2211,1.2211,1.2211,1.2271,1.2305,1.2305,1.2305,1.2305,1.2338,1.346,1.3983,1.3995,1.3995,1.3353,1.2298,1.2238,1.2178,1.2011,1.0908,1.047,1.0539,1.1598,1.2094,1.2357,1.3143,1.3397,1.3389,1.3323,1.2825,1.2394,1.3136,1.2575,0.0,0.0,1.2254,1.1927,1.2302,1.2404,1.2419,1.2434,1.22,1.1974,1.1959,1.1509,1.099,0.0,1.0243,0.9914,0.953,0.0,0.8767,0.9075,0.8892,0.8904,0.9511,0.9581,0.9588,0.9588,0.9588,0.9795,1.0326,0.9997,1.0041,1.0723,1.0306,1.0115,1.0341,0.9822,0.9247,0.8663,0.8082,0.0,0.0,0.0,0.0,0.0,0.0,0.0,0.0,0.0,0.0,0.0,0.0,0.0,0.0,0.0,0.0,0.0,0.0,0.0,0.0,0.0,0.0,0.0,0.0,0.0,0.0,0.0,0.0,0.9226,0.9232,0.0,0.932,0.8617,0.8664,0.9876,1.1055,1.1864,1.2278,1.2305,1.2131,1.1715,1.2104,1.2305,1.2305,1.3066,1.3447,1.3447,1.3447,1.3447,1.3467,1.3895,1.4088,1.4088,1.4088,1.3848,1.3447,1.3447,1.2999,1.2338,1.273,1.2395,1.173,1.2151,1.2305,1.2342,1.2636,1.2716,1.2847,1.3641,1.3695,1.3433,1.3185,1.276,1.2353,1.2255,1.2144,1.2088,1.2242,1.2374,1.2479,1.259,1.2482,1.2317,1.2317,1.1967,1.1624,1.1507,1.0924,1.0309,0.998,0.9921,0.9877,0.9782,0.9848,0.9987,1.0214,1.0236,1.0163,0.995,0.9929,0.992,0.9895,1.0074,1.0197,1.029,1.0179,1.0176,1.0322,0.9658,0.9152,0.8905,0.8289,0.7239,0.0,0.0,0.0,0.0,0.0,0.0,0.0,0.0,0.0,0.0,0.0,0.0,0.0,0.0,0.0,0.0,0.0,0.0,0.0,0.0,0.0,0.0,0.0,0.0,0.0,0.0,0.9125,1.0265,1.0224,1.0154,1.0378,0.9953,1.0094,1.1109,1.1864,1.2305,1.2305,1.2305,1.2124,1.173,1.2098,1.2498,1.2899,1.3687,1.4088,1.4088,1.4088,1.4088,1.4088,1.4088,1.4088,1.4088,1.4088,1.4088,1.4088,1.4088,1.3621,1.2986,1.3781,1.3601,1.2906,1.2906,1.2906,1.2906,1.2906,1.2906,1.3033,1.3828,1.4088,1.4003,1.3406,1.3097,1.2904,1.2631,1.2606,1.2652,1.2592,1.2637,1.2718,1.2756,1.2669,1.2584,1.2584,1.2364,1.2135,1.2025,1.1428,1.088,1.0631,1.0711,1.0675,1.0463,1.0521,1.0587,1.0587,1.0587,1.0507,1.0287,1.0163,1.0009,0.9797,1.0041,1.0213,1.0195,1.0136,1.0206,1.0498,0.9715,0.9201,0.9065,0.8259,0.7288,0.6163,0.0,0.0,0.0,0.0,0.0,0.0,0.0,0.0,0.0,0.0,0.0,0.0,0.0,0.0,0.0,0.0,0.0,0.0,0.0,0.0,0.0,0.0,0.0,0.7406,0.8611,0.9829,1.003,1.0855,1.1062,1.0171,1.0902,1.1655,1.2258,1.2338,1.2358,1.2358,1.2358,1.2345,1.2305,1.2338,1.2913,1.4075,1.4088,1.4088,1.4088,1.4088,1.4088,1.4088,1.4088,1.4088,1.4088,1.4088,1.4088,1.4088,1.4088,1.4088,1.4088,1.4088,1.4088,1.4088,1.4088,1.4088,1.4088,1.4088,1.4088,1.4088,1.4088,1.4088,1.4099,1.3947,1.372,1.3548,1.3752,1.3784,1.3708,1.3408,1.3279,1.324,1.2984,1.282,1.2734,1.2734,1.2622,1.2412,1.2091,1.1794,1.1606,1.1591,1.1327,1.1122,1.1122,1.085,0.0,1.0616,1.0616,1.0609,1.0594,1.0302,1.0111,1.0089,0.9913,1.0027,1.0556,1.0277,1.0317,1.0868,1.005,0.9471,0.923,0.8109,0.7277,0.6772,0.0,0.0,0.0,0.0,0.0,0.0,0.0,0.0,0.0,0.0,0.0,0.0,0.0,0.0,0.0,0.0,0.0,0.0,0.0,0.0,0.0,0.0,1.0615,0.8971,0.9833,1.0728,1.0995,1.1229,1.1455,1.165,1.1904,1.2124,1.2291,1.3106,1.3594,1.3594,1.3594,1.32,1.2331,1.3146,1.3754,1.4082,1.4088,1.4088,1.4088,1.4088,1.4088,1.4088,1.4088,1.4088,1.4088,1.4088,1.4088,1.4088,1.4088,1.4088,1.4088,1.4088,1.4088,1.4088,1.4088,1.4088,1.4088,1.4088,1.4088,1.4088,1.4088,1.4088,1.411,1.4038,1.381,1.3595,1.3635,1.3527,1.3377,1.3439,1.3247,1.3099,1.3167,1.3101,1.3064,1.3064,1.2962,1.2848,1.276,1.2251,1.1831,1.1635,1.1518,1.1459,1.1459,1.1379,0.0,1.1327,1.1327,1.1144,1.0638,1.0507,1.0265,0.979,1.0049,1.0204,1.0162,1.0122,1.0202,1.0439,0.9914,0.9639,0.9712,0.8678,0.8193,0.0,0.0,0.0,0.0,0.0,0.0,0.0,0.0,0.0,0.0,0.0,0.0,0.0,0.0,0.0,0.0,0.0,0.0,0.0,0.0,0.0,0.0,1.2017,1.1516,1.0722,1.1042,1.1423,1.159,1.183,1.2111,1.2489,1.2605,1.2685,1.2685,1.3554,1.4088,1.4088,1.4088,1.3768,1.3073,1.3721,1.4088,1.4088,1.4088,1.4088,1.4088,1.4088,1.4088,1.4088,1.4088,1.4088,1.4088,1.4088,1.4088,1.4095,1.4262,1.4309,0.0,0.0,0.0,0.0,0.0,1.4088,1.4088,1.4088,1.4088,1.4088,1.4088,1.4088,1.4088,1.4088,1.3968,1.3828,1.3828,1.3707,1.3588,1.3567,1.3484,1.3358,1.322,1.3297,1.3357,1.3221,1.3201,1.317,1.3038,1.2701,0.0,1.1838,1.1679,1.1591,1.1591,1.1591,1.1591,1.1591,1.1591,1.1445,1.107,1.0902,1.058,1.006,1.0222,0.0,0.0,0.0,1.0373,1.0293,0.9906,0.0,0.0,0.0,0.0,0.0,0.0,0.0,0.0,0.7411,0.769,0.0,0.0,0.0,0.0,0.0,0.0,0.0,0.0,0.0,0.0,0.0,0.0,0.0,0.0,0.0,0.0,1.2345,1.2365,1.2351,1.2164,1.2047,1.2007,1.2496,1.2851,1.2884,1.3086,1.326,1.3307,1.3794,1.4088,1.4088,0.0,0.0,0.0,0.0,1.4088,1.4088,1.4088,1.4088,1.4088,1.4088,1.4088,1.4088,1.4088,1.4122,1.4188,1.4162,1.4175,1.4242,1.4569,1.4649,1.4543,1.4249,1.4115,1.4088,1.4088,1.4088,1.4088,1.4088,0.0,0.0,1.4088,1.4088,1.4088,1.4088,1.4088,1.4088,1.4088,1.4088,1.4028,1.372,1.3783,1.381,1.3158,1.3345,1.3549,1.3227,1.3309,1.3375,1.3119,1.3031,1.2811,1.2164,1.1823,1.1635,1.1599,1.1591,1.1591,1.1591,1.1591,1.1584,1.154,0.0,0.0,1.0616,1.0394,1.0306,1.0377,1.0657,1.0677,1.038,1.0134,0.9787,0.9324,0.942,0.9507,0.9584,0.9639,0.9912,1.036,0.9025,0.888,0.0,0.0,0.0,0.0,0.0,0.0,0.0,0.0,0.0,0.0,0.0,0.0,0.0,0.0,0.0,1.2138,1.2579,1.2766,1.271,1.2826,1.2859,1.2643,1.2938,1.3213,1.3407,1.3454,1.3574,1.3895,1.4021,1.4088,1.4088,1.4088,1.4088,1.4088,1.4088,1.4088,1.4088,1.4088,1.4088,1.4088,0.0,0.0,1.4088,1.4088,1.4392,1.4827,1.4673,1.4736,1.4965,1.4937,1.4941,1.485,1.4549,1.4295,1.4088,1.4088,1.4088,1.4088,1.4088,1.4088,1.4088,1.4088,1.4088,1.4088,1.4088,1.4088,0.0,1.4088,1.4088,1.4075,1.4015,1.3821,1.3594,1.3239,1.3158,1.312,1.2963,1.3119,1.3288,1.3375,1.3184,1.2884,1.2456,1.2127,1.186,1.1635,1.1591,1.1591,1.1591,1.1591,1.1489,1.1224,1.1144,1.0968,1.0616,1.0311,1.0185,1.03,1.0625,1.0765,1.0705,1.106,1.1236,1.1168,1.1158,1.122,1.1407,1.1293,1.1363,1.1549,1.0254,1.0211,0.0,0.0,0.0,0.0,0.0,0.0,0.0,0.0,0.0,0.0,0.0,0.8365,0.9239,0.0,1.1648,1.2485,1.2739,1.2904,1.3005,1.324,1.3313,1.3013,1.3247,1.3447,1.3586,1.3734,1.3874,1.4075,1.4629,1.483,1.4543,1.4566,1.4566,1.4566,1.4566,1.4669,1.4957,1.4957,1.4957,1.4957,1.4957,1.481,1.4529,1.4623,1.4823,1.509,1.4903,1.4968,1.511,1.5157,1.5264,1.5364,1.5077,1.4783,1.4559,1.4459,1.4382,1.4396,1.4539,1.4462,1.4382,1.4382,1.4249,1.4088,1.4088,1.4088,1.4088,1.4088,1.4088,1.4088,1.4088,1.4052,1.3905,1.3459,1.3471,1.346,1.3109,1.32,1.3382,1.3499,1.3367,1.3097,1.2606,1.2353,1.2116,1.1665,1.1591,1.1591,1.1591,1.1591,1.1533,1.1364,1.1349,1.1217,1.0887,1.0382,1.024,1.0569,1.0417,1.0533,1.1081,1.1159,1.1334,1.1638,1.1628,1.1681,1.181,1.1735,1.1898,1.224,1.1525,1.157,0.0,0.0,0.0,0.0,0.0,0.0,0.0,0.0,0.8216,0.8305,0.8978,0.969,1.0174,1.0942,1.181,1.2732,1.2898,1.2985,1.3253,1.3507,1.36,1.3407,1.3587,1.3686,1.3686,1.3948,1.4088,1.4088,1.5064,1.5504,1.515,1.5182,1.5182,1.5182,1.5182,1.5357,1.5778,1.5784,1.5784,1.5784,1.5784,1.5545,1.5023,1.5132,1.5212,1.5225,1.5177,1.5182,1.515,1.5384,1.5618,1.5758,1.5571,1.5337,1.5097,1.4874,1.4774,1.4794,1.4955,1.4908,1.476,1.4663,1.4429,1.4162,1.4108,1.4088,1.4088,1.4088,1.4088,1.4088,1.4088,1.4201,1.4206,1.3606,1.3699,1.3842,1.3255,1.3309,1.3455,1.3492,1.3492,1.3309,1.2716,1.2529,1.2299,1.1687,1.1591,1.1591,1.1591,1.1591,1.1591,1.1591,1.1591,1.1459,1.1136,1.0564,1.0409,1.0866,1.0283,1.036,1.1319,1.1167,1.1267,1.1705,1.1794,1.1871,1.1925,1.1925,1.218,1.2666,1.2573,1.2656,0.6573,0.668,0.6913,0.7182,0.737,0.7742,0.0,0.0,1.0191,0.992,1.0367,1.0895,1.1202,1.157,1.206,1.2697,1.2986,1.326,1.3513,1.3854,1.4021,1.3995,1.4015,1.4041,1.4041,1.4068,1.4088,1.4088,1.4689,1.5257,1.5705,1.5732,1.5732,1.5732,1.5732,1.5718,1.5784,1.5784,1.5784,1.5784,1.5784,1.5565,1.5165,1.5185,1.5245,1.5391,1.5631,1.5732,1.5684,1.5718,1.5751,1.5778,1.5792,1.5758,1.5665,1.513,1.4975,1.4981,1.5001,1.4995,1.4934,1.4623,1.4502,1.4422,1.4168,1.4088,1.4088,1.4088,1.4088,1.4088,1.4088,1.413,1.3976,1.3387,1.3391,1.3448,1.3033,1.3083,1.3309,1.3455,1.3492,1.3382,1.3016,1.2716,1.2299,1.1687,1.1591,1.1591,1.1591,1.1591,1.1591,1.1591,1.1591,1.1459,1.1136,1.077,1.0656,1.0882,1.0545,1.0594,1.119,1.1686,1.1987,1.2036,1.2508,1.2758,1.2758,1.2758,1.2812,1.2885,1.2982,1.3058,0.7615,0.7715,0.7882,0.0,0.8404,0.8698,0.9352,0.9913,1.0361,1.0581,1.1096,1.1578,1.1663,1.1924,1.2318,0.0,1.3126,1.3373,1.3834,1.3854,1.3828,1.3828,1.3828,1.3901,1.4068,1.4088,1.4088,1.4088,1.4736,1.5184,1.5317,1.5645,1.5784,1.5784,1.5784,1.5784,1.5784,1.5784,1.5784,1.5784,1.5784,1.5698,1.5538,1.5538,1.5558,1.5658,1.5724,1.5784,1.5784,1.5784,1.5784,1.5784,1.5784,1.5784,1.5751,1.5558,1.5471,1.5471,1.5471,1.5357,1.5197,1.507,1.4796,1.4496,1.4376,1.4222,1.4088,1.4088,1.4088,1.4088,1.4088,1.4088,1.3976,1.3493,1.3541,1.3571,1.3144,1.3236,1.3382,1.3499,1.3492,1.3389,1.3067,1.2892,1.2584,1.1933,1.1709,1.1591,1.1591,1.1591,1.1591,1.1591,1.1591,1.1533,1.1401,1.1412,1.1352,1.119,1.1225,1.1413,1.1703,1.1635,1.1893,1.2554,1.248,1.2578,1.2905,1.2905,1.2905,1.2905,1.2954,1.3002,0.8196,0.8395,0.0,0.8958,0.9325,0.9679,0.998,1.0334,1.0695,1.1042,1.1516,1.1879,1.1799,1.1984,1.2351,1.2879,1.31,1.3387,1.3895,1.374,1.36,1.36,1.36,1.3686,1.3941,1.4041,1.4122,1.4202,1.4803,1.5144,1.5129,1.5558,1.5784,1.5784,1.5784,1.5784,1.5784,1.5784,1.5784,1.5784,1.5784,1.5784,1.5784,1.5784,1.5784,1.5784,1.5784,1.5784,1.5784,1.5784,1.5784,1.5784,1.5784,1.5784,1.5784,1.5784,1.5784,1.5784,1.5784,1.5691,1.5504,1.5424,1.505,1.4629,1.4543,1.4315,1.4088,1.4088,1.4088,1.4088,1.4088,1.4088,1.4038,1.3708,1.3722,1.3709,1.3406,1.3404,1.3492,1.3492,1.3492,1.3418,1.3184,1.3067,1.2819,1.2222,1.1897,1.1694,1.1606,1.1591,1.1591,1.1591,1.1591,1.1591,1.1591,1.1865,1.1966,1.1809,1.1864,1.2017,1.225,1.1747,1.176,1.2421,1.2357,1.2431,1.2676,1.2832,1.2905,1.2905,1.2905,1.2905,0.7919,0.0,0.8931,0.9512,1.0124,1.0626,1.0889,1.1437,1.1779,1.147,1.1657,1.1819,1.149,1.1683,1.202,1.2278,1.2826,1.3313,1.3573,1.3613,1.36,1.36,1.36,1.3606,0.0,1.3915,1.4202,1.4482,1.4796,1.5142,1.5364,1.5665,1.5784,1.5784,1.5784,1.5784,1.5784,1.5784,1.5784,1.5784,1.5784,1.5784,1.5784,1.5784,1.5784,1.5784,1.5784,1.5784,1.5784,1.5784,1.5784,1.5784,1.5784,1.5784,1.5784,1.5784,1.5784,1.5784,1.5784,1.5771,1.5772,1.5484,1.5197,1.4941,1.4609,1.4315,1.4088,1.4088,1.4088,1.4088,1.4088,1.4088,1.4092,1.4015,1.3874,1.3772,1.3691,1.3607,1.3492,1.3492,1.3492,1.3492,1.3484,1.3221,1.2892,1.2521,1.2193,1.1879,1.1635,1.1591,1.1591,1.1591,1.1591,1.1591,1.1591,1.1865,1.2246,1.2821,1.2262,1.2132,1.2645,1.2278,1.1819,1.125,1.2323,1.2627,1.2126,1.2652,1.2905,1.2905,1.2905,1.2905,0.8878,0.0,0.9813,1.0408,1.0848,1.1209,1.1544,1.1577,1.1603,1.1697,1.149,1.1256,1.1156,1.1223,1.145,1.1937,1.2549,1.3073,1.3533,1.36,1.3533,1.334,1.3487,0.0,0.0,0.0,0.0,1.4222,1.4727,1.5055,1.5149,1.5565,1.5784,1.5784,1.5784,1.5784,1.5784,1.5784,1.5784,1.5784,1.5784,1.5784,1.5784,1.5784,1.5784,1.5784,1.5784,1.5784,1.5784,1.5784,1.5784,1.5784,1.5784,1.5784,1.5784,1.5784,1.5784,1.5784,1.5784,1.5784,1.5764,1.5712,1.5357,1.4988,1.4888,1.4476,1.4088,1.4088,1.4088,1.4088,1.4088,1.4088,1.405,1.396,1.3848,1.3772,1.3653,1.357,1.3492,1.3492,1.3492,1.3492,1.3492,1.3404,1.3148,1.2565,1.2065,1.1716,1.1606,1.1591,1.1591,1.1591,1.1591,1.1591,1.1591,1.2455,1.2983,1.2884,1.3468,1.3664,1.3243,1.2775,1.2443,1.2323,1.1968,1.2195,1.3039,1.2578,1.2839,1.3675,1.3145,1.3184,0.9573,1.0053,1.0441,1.1169,1.145,1.1637,1.1859,1.1724,1.155,1.1457,1.1015,1.0648,1.0548,1.0521,1.0748,1.1477,1.2087,1.2717,1.3347,1.3447,1.342,1.3333,1.3493,1.3533,0.0,0.0,0.0,1.4235,1.4689,1.5055,1.5156,1.5571,1.5784,1.5784,1.5784,1.5784,1.5784,1.5939,1.5985,1.5985,1.6092,1.6032,1.5784,1.5939,1.5925,1.5784,1.5784,1.5784,1.5784,1.5784,1.5784,1.5784,1.5784,1.5784,1.5784,1.5784,1.5784,1.5784,1.5784,1.5784,1.5784,1.5784,1.5504,1.5149,1.5042,1.4673,1.4222,1.4115,1.4088,1.4088,1.4088,1.4088,1.4084,1.409,1.3924,1.38,1.3796,1.3612,1.3492,1.3492,1.3492,1.3492,1.3492,1.3397,1.314,1.2565,1.2072,1.1716,1.1606,1.1591,1.1591,1.1591,1.1591,1.1591,1.1591,1.2781,1.3378,1.3139,1.4175,1.4541,1.3994,1.3325,1.3004,1.3042,1.2376,1.2496,1.3435,1.3013,1.3258,1.4094,1.3584,1.3613,0.999,1.0401,1.0861,1.1718,1.1913,1.1906,1.1906,1.1873,1.1598,1.0747,1.0274,0.996,0.9666,0.0,0.9947,1.0808,1.1504,1.2184,1.3086,1.3227,1.3293,0.0,0.0,0.0,0.0,0.0,0.0,1.4522,0.0,1.5135,1.5384,1.5671,1.5784,1.5784,1.5784,1.5791,1.5852,1.6146,1.6342,1.6299,1.6573,1.6413,1.5838,1.6152,1.6119,1.5804,1.5791,1.5784,1.5784,1.5784,1.5784,1.5784,1.5784,1.5784,1.5784,1.5784,1.5784,1.5784,1.5784,1.5784,1.5784,1.5784,1.5631,1.5344,1.5095,1.4756,1.4456,1.4168,1.4088,1.4088,1.4088,1.4088,1.4166,1.4356,1.4109,1.3877,1.4059,1.3809,1.3514,1.3499,1.3492,1.3492,1.3492,1.3221,1.2899,1.2558,1.2222,1.1886,1.1635,1.1591,1.1591,1.1591,1.1591,1.1591,1.1591,1.275,1.3472,1.3511,1.4314,1.4777,1.4813,1.4004,1.3506,1.3331,1.3454,1.3454,1.3368,1.3846,1.4107,1.4172,1.4133,1.4133,1.0843,1.1309,1.1678,1.2084,1.2067,1.1906,1.1906,1.1397,1.0801,1.0321,0.9646,0.9051,0.8791,0.0,0.0,1.0234,1.1202,0.0,1.3086,1.336,0.0,1.3593,0.0,1.4208,1.3995,1.4479,0.0,0.0,1.4961,1.5135,1.5384,1.5671,1.5784,1.5784,1.5784,1.5939,1.6159,1.6446,1.6593,1.66,1.6667,1.6627,1.6473,1.6339,1.6233,1.6146,1.5925,1.5784,1.5784,1.5784,1.5784,1.5784,1.5784,1.5784,1.5784,1.5784,1.5784,1.5784,1.5784,1.5784,1.5784,1.5784,1.5631,1.5344,1.5095,1.4756,1.4456,1.4168,1.4088,1.4088,1.4088,1.4088,1.4166,1.4356,1.4275,1.4144,1.4109,1.3983,1.3784,1.3543,1.3492,1.3492,1.3492,1.3221,1.298,1.2899,1.2368,1.1886,1.1635,1.1591,1.1591,1.1591,1.1591,1.1591,1.1591,1.2313,1.2978,1.3472,1.4191,1.4648,1.4795,1.458,1.4301,1.389,1.3534,1.3695,1.4416,1.3789,1.4042,1.504,1.4406,1.4445,1.145,1.183,1.2064,1.2104,1.2027,1.1772,1.1216,1.0722,1.0134,0.9297,0.8738,0.0,0.7862,0.837,0.0,0.0,0.0,0.0,1.3046,1.3313,1.356,0.0,1.4272,0.0,1.4519,1.4814,1.5062,0.0,1.5202,1.5224,1.5391,1.5671,1.5885,1.6019,1.6025,1.6226,1.6703,1.682,1.6901,1.6901,1.7027,1.6954,1.6707,1.6723,1.6569,1.6308,0.0,1.5952,1.5784,1.5784,1.5784,1.5784,1.5784,1.5784,1.5784,1.5784,1.5784,1.5784,1.5784,1.5784,1.5784,1.5784,1.5718,1.5531,1.5244,1.4943,1.4656,1.4355,1.4182,1.4088,1.4088,1.4088,1.4166,1.4356,1.4338,1.4318,1.4301,1.4149,1.3887,1.3558,1.3492,1.3492,1.3492,1.3345,1.3177,1.3031,1.2694,1.2299,1.1831,1.1679,1.1591,1.1591,1.1591,1.1591,1.1591,1.2151,1.2795,1.345,1.4142,1.4662,1.504,1.4883,1.4756,1.4669,1.4199,1.4314,1.5059,1.4496,1.462,1.54,1.4894,1.4923,1.1844,1.2111,1.2231,1.198,1.1846,1.1497,1.0367,0.9993,0.9499,0.8125,0.0,0.7566,0.704,0.7669,0.8596,0.9554,0.0,1.147,1.2999,1.324,1.354,1.4422,1.4589,1.4736,1.5042,1.5102,1.5184,1.5438,1.5451,1.5451,1.5451,1.5732,1.6025,1.6319,1.6415,1.6683,1.7199,1.7239,1.7259,1.7266,1.7514,1.7315,1.6827,1.7099,1.6898,1.6326,1.6342,1.6106,1.5784,1.5784,1.5784,1.5784,1.5784,1.5784,1.5784,1.5784,1.5784,1.5784,1.5784,1.5784,1.5784,1.5784,1.5784,1.5724,1.5484,1.5197,1.4948,1.4603,1.4309,1.4088,1.4088,1.4088,1.4166,1.4398,1.4407,1.4416,1.4584,1.4318,1.3887,1.3558,1.3492,1.3492,1.3492,1.3492,1.3397,1.3111,1.3038,1.2824,1.2273,1.188,1.1643,1.1599,1.1591,1.1591,1.1591,1.2066,1.2704,1.345,1.4052,1.4677,1.5381,1.5059,1.5039,1.5371,1.5049,1.5049,1.541,1.541,1.541,1.541,1.541,1.541,1.2144,1.2265,1.2231,1.198,1.1538,1.0962,1.0274,0.9372,0.0,0.0,0.7182,0.6787,0.668,0.7209,0.81,0.9487,0.0,0.0,0.0,0.0,1.3766,0.0,0.0,0.0,0.0,0.0,0.0,0.0,0.0,1.5752,1.5752,1.6032,1.6326,1.662,1.6918,1.7099,1.7199,1.744,1.7508,1.7508,1.7555,1.7528,1.7428,1.7286,1.7012,1.6613,1.638,0.0,1.5784,1.5784,1.5784,1.5784,1.5784,1.5784,1.5784,1.5784,1.5784,1.5784,1.5784,1.5784,1.5784,1.5784,1.5784,1.5724,1.5484,1.5197,1.4948,1.4603,1.4309,1.4088,1.4088,1.4088,1.4208,1.4573,1.465,1.4677,1.4837,1.4397,1.3887,1.3558,1.3492,1.3492,1.3492,1.3492,1.3477,1.3418,1.3184,1.3071,1.3238,1.2473,1.1853,1.1621,1.1591,1.1591,1.1591,1.1716,1.2259,1.342,1.3601,1.4192,1.5352,1.5342,1.5342,1.541,1.5342,1.5342,1.541,1.541,1.541,1.541,1.541,1.541,1.2225,1.2191,1.2004,1.171,1.1202,1.0526,0.9452,0.0,0.0,0.0,0.6472,0.6291,0.5983,0.0,0.0,0.0,0.0,0.0,0.0,0.0,0.0,0.0,0.0,0.0,0.0,0.0,0.0,0.0,0.0,1.5784,1.5784,1.6253,1.6633,1.6927,1.7273,1.7427,1.7427,1.7515,1.7582,1.7582,1.7582,1.7582,1.7582,1.7494,1.7215,1.6921,1.6627,0.0,1.6046,1.5892,1.5784,1.5784,1.5784,1.5784,1.5784,1.5784,1.5784,1.5784,1.5784,1.5784,1.5784,1.5784,1.5784,1.5758,1.5665,1.5418,1.513,1.483,1.4543,1.4282,1.4128,1.4088,1.4208,1.4615,1.4908,1.5038,1.4932,1.4567,1.4181,1.3814,1.3616,1.3492,1.3492,1.3492,1.3637,1.4013,1.3948,1.3999,1.4395,1.3801,1.3156,1.2653,1.2597,1.2597,1.2597,1.2282,1.2466,1.345,1.3161,1.3584,1.4883,1.4942,1.5089,1.5381,1.541,1.541,1.541,1.541,1.541,1.541,1.541,1.541,1.2144,1.2044,1.1832,1.1462,1.0942,1.0131,0.8724,0.8043,0.0,0.0,0.5869,0.588,0.5461,0.0,0.7296,0.0,0.0,0.0,0.0,0.0,0.0,0.0,0.0,0.0,0.0,0.0,0.0,0.0,0.0,0.0,1.6012,1.6453,1.6874,1.7286,1.7514,1.7582,1.7582,1.7582,1.7582,1.7582,1.7582,1.7582,1.7582,1.7582,1.7474,1.7186,1.6834,0.0,0.0,1.5952,1.5784,1.5784,1.5784,1.5784,1.5784,1.5784,1.5784,1.5784,1.5784,1.5784,1.5784,1.5784,1.5784,1.5784,1.5784,1.5625,1.5337,1.5095,1.475,1.4449,1.4162,1.4088,1.4208,1.4615,1.5041,1.5301,1.4973,1.4743,1.4457,1.41,1.3777,1.3579,1.3506,1.3492,1.3702,1.4294,1.4502,1.4757,1.5206,1.4996,1.4623,1.4126,1.3705,1.3511,1.3511,1.3009,1.3,1.3653,1.3221,1.3455,1.4647,1.4706,1.4913,1.5381,1.541,1.541,1.541,1.541,1.541,1.541,1.541,1.541,1.194,1.1926,1.1832,1.1462,1.0788,0.9846,0.867,0.0,0.0,0.5887,0.5524,0.544,0.5631,0.5785,0.6307,0.0,0.0,0.9198,0.0,0.0,0.0,0.0,0.0,0.0,0.0,0.0,0.0,0.0,0.0,0.0,1.6593,1.6673,1.6961,1.7522,1.7569,1.7582,1.7582,1.7582,1.7582,1.7582,1.7582,1.7582,1.7582,1.7582,1.7474,1.7186,1.6834,0.0,0.0,1.5952,1.5784,1.5784,1.5784,1.5784,1.5784,1.5784,1.5784,1.5784,1.5784,1.5784,1.5784,1.5784,1.5784,1.5784,1.5784,1.5625,1.5337,1.5095,1.475,1.4449,1.4162,1.4088,1.4208,1.4615,1.5041,1.5301,1.4973,1.4878,1.4681,1.4099,1.3998,1.3843,1.355,1.3492,1.3528,1.3601,1.4186,1.473,1.507,1.536,1.5601,1.5842,1.4439,1.3511,1.3511,1.3442,1.3683,1.438,1.435,1.4608,1.5294,1.5323,1.5352,1.541,1.541,1.541,1.541,1.541,1.541,1.541,1.541,1.541,1.1456,1.1476,1.1316,1.1196,1.0336,0.9297,0.8337,0.0,0.6513,0.5638,0.5373,0.5333,0.5447,0.5591,0.6007,0.6967,0.7368,0.8216,1.0114,0.0,0.0,0.0,0.0,0.0,0.0,0.0,0.0,0.0,0.0,0.0,1.6673,1.6707,1.6974,1.7562,1.7582,1.7582,1.7582,1.7582,1.7582,1.7582,1.7582,1.7582,1.7582,1.7582,1.7474,1.7186,1.6834,0.0,0.0,1.5952,1.5784,1.5784,1.5784,1.5784,1.5784,1.5784,1.5784,1.5784,1.5784,1.5784,1.5784,1.5784,1.5784,1.5784,1.5784,1.5752,1.5558,1.5142,1.4877,1.4683,1.4208,1.4292,1.4538,1.4873,1.5173,1.5352,1.5221,1.5039,1.4769,1.4362,1.4152,1.3879,1.355,1.3492,1.3637,1.4086,1.4788,1.5475,1.6094,1.6494,1.6718,1.6875,1.5522,1.4638,1.4638,1.4312,1.4231,1.4469,1.4112,1.4201,1.4824,1.4854,1.503,1.5381,1.541,1.541,1.541,1.541,1.541,1.541,1.541,1.541,1.0975,1.1082,1.0969,1.0882,1.0047,0.8958,0.0,0.7168,0.6358,0.5481,0.5293,0.5293,0.5293,0.5518,0.5878,0.6399,0.6854,0.7715,0.9325,0.0,0.0,0.0,0.0,0.0,0.0,0.0,0.0,0.0,0.0,0.0,1.6547,1.666,1.6974,1.7562,1.7582,1.7582,1.7582,1.7582,1.7582,1.7582,1.7582,1.7582,1.7582,1.7582,1.7474,1.7186,1.6834,0.0,0.0,1.5952,1.5784,1.5784,1.5784,1.5784,1.5784,1.5784,1.5784,1.5784,1.5784,1.5784,1.5784,1.5784,1.5784,1.5784,1.5784,1.5784,1.5705,1.5169,1.4925,1.4734,1.4316,1.4496,1.4866,1.5048,1.5257,1.5389,1.5389,1.5206,1.4922,1.4585,1.432,1.4027,1.3565,1.3666,1.3912,1.4222,1.5278,1.6158,1.6515,1.7048,1.7383,1.7383,1.6436,1.5752,1.5615,1.5097,1.4765,1.4765,1.4312,1.4282,1.4765,1.4917,1.5161,1.5605,1.5732,1.5732,1.5605,1.5732,1.5732,1.5605,1.5742,1.5771,1.0519,1.0807,1.0922,1.0667,0.9893,0.8904,0.0,0.7035,0.6358,0.5481,0.5293,0.5293,0.5293,0.5518,0.5812,0.6149,0.6935,0.7899,0.9051,0.0,0.0,0.0,0.0,0.0,0.0,0.0,0.0,0.0,0.0,0.0,1.6308,1.6553,1.6974,1.7562,1.7582,1.7582,1.7582,1.7582,1.7582,1.7582,1.7582,1.7582,1.7582,1.7582,1.7474,1.7186,0.0,0.0,0.0,1.5952,1.5784,1.5784,1.5784,1.5784,1.5784,1.5784,1.5784,1.5784,1.5784,1.5784,1.5784,1.5784,1.5784,1.5784,1.5784,1.5784,1.5705,1.5169,1.4703,1.4405,1.4398,1.4741,1.509,1.509,1.5257,1.5389,1.5389,1.5382,1.5233,1.4636,1.4504,1.4298,1.3609,1.4122,1.4322,1.363,1.5428,1.6585,1.5807,1.6702,1.7383,1.7383,1.695,1.6543,1.6124,1.5654,1.5381,1.5381,1.5381,1.5381,1.5381,1.583,1.6085,1.6085,1.6494,1.6494,1.6085,1.6504,1.6494,1.6095,1.6514,1.6687,0.8958,0.9279,0.9432,0.9166,0.8704,0.8112,0.7341,0.6734,0.6135,0.5434,0.5293,0.5293,0.5293,0.5373,0.5705,0.66,0.7169,0.0,0.0,0.0,0.0,0.0,0.0,0.0,0.0,0.0,0.0,0.0,0.0,0.0,1.6547,1.6653,1.6887,1.7326,1.7475,1.7582,1.7582,1.7582,1.7582,1.7582,1.7582,1.7582,1.7575,1.7427,1.7179,0.0,0.0,0.0,0.0,1.5824,1.5784,1.5784,1.5784,1.5784,1.5784,1.5784,1.5784,1.5784,1.5784,1.5784,1.5784,1.5784,1.5784,1.5784,1.5784,1.5784,1.5705,1.5169,1.4696,1.444,1.4566,1.4873,1.5131,1.5257,1.5347,1.5389,1.5389,1.5389,1.5265,1.4834,1.4618,1.4519,1.4581,1.4587,1.4681,1.4966,1.6097,1.6793,1.655,1.7294,1.7812,1.7812,1.7432,1.6875,1.6153,1.5968,1.5732,1.543,1.5693,1.5889,1.5889,1.6279,1.6523,1.6523,1.6629,1.6629,1.6523,1.6638,1.6629,1.6523,1.6638,1.6697,0.7832,0.825,0.8404,0.8127,0.7809,0.7406,0.6834,0.6345,0.5876,0.5394,0.5293,0.5293,0.5293,0.5481,0.5869,0.658,0.7228,0.8016,0.0,0.0,0.0,0.0,0.0,0.0,0.0,0.0,0.0,0.0,0.0,0.0,1.6353,1.6587,1.6794,1.6974,1.7368,1.7582,1.7582,1.7582,1.7582,1.7582,1.7521,1.7474,1.746,1.7166,1.682,0.0,0.0,0.0,0.0,1.5784,1.5784,1.5784,1.5784,1.5784,1.5784,1.5784,1.5784,1.5784,1.5784,1.5784,1.5784,1.5784,1.5784,1.5784,1.5784,1.5752,1.5571,1.5142,1.4872,1.4711,1.4685,1.4957,1.5257,1.5389,1.5389,1.5389,1.5389,1.5389,1.5333,1.519,1.5021,1.4988,1.5271,1.5392,1.5525,1.5675,1.662,1.7226,1.6932,1.7545,1.8008,1.8008,1.7773,1.7367,1.6652,1.6437,1.6201,1.5898,1.6162,1.6318,1.6318,1.6738,1.695,1.695,1.7096,1.7139,1.695,1.695,1.7028,1.7184,1.7184,1.7184,0.0,0.7555,0.7706,0.7444,0.7148,0.6814,0.629,0.593,0.0,0.536,0.5293,0.5313,0.5373,0.582,0.6209,0.6357,0.7275,0.0,0.0,0.0,0.0,0.0,0.0,0.0,0.0,0.0,0.0,0.0,0.0,0.0,1.5811,1.638,1.6693,1.6734,1.7248,1.7542,1.7582,1.7562,1.7549,1.7549,1.7306,1.7166,1.7159,1.6807,1.6526,0.0,0.0,0.0,0.0,1.5784,1.5784,1.5784,1.5784,1.5784,1.5784,1.5784,1.5784,1.5784,1.5784,1.5784,1.5784,1.5784,1.5784,1.5784,1.5784,1.5611,1.5311,1.5082,1.5082,1.5098,1.4769,1.5041,1.5389,1.5389,1.5389,1.5431,1.5465,1.5506,1.5561,1.5716,1.572,1.5708,1.5801,1.6429,1.6655,1.5956,1.7088,1.7759,1.7079,1.7579,1.8008,1.8008,1.8008,1.7852,1.7461,1.7031,1.6736,1.6697,1.6726,1.6746,1.6746,1.7197,1.7432,1.7432,1.7812,1.7822,1.7432,1.7432,1.7627,1.8008,1.8008,1.8008,0.5735,0.0,0.6519,0.6199,0.6265,0.6285,0.0,0.5765,0.5631,0.536,0.5293,0.5501,0.6177,0.6025,0.6339,0.7929,0.8417,0.8985,0.0,0.0,0.0,0.0,0.0,0.0,0.0,0.0,0.0,0.0,0.0,1.5925,1.6159,1.6299,1.663,1.7085,1.6961,1.7128,1.7582,1.7414,1.73,1.73,1.6954,1.6807,1.68,1.6506,1.6339,0.0,0.0,0.0,1.5784,1.5784,1.5784,1.5784,1.5784,1.5784,1.5784,1.5784,1.5784,1.5784,1.5784,1.5784,1.5784,1.5784,1.5784,1.5784,1.5784,1.5471,1.5095,1.5028,1.4925,1.4789,1.4713,1.5041,1.5389,1.5389,1.5389,1.559,1.6263,1.6378,1.6498,1.689,1.6766,1.6693,1.6946,1.6933,1.7044,1.7407,1.7759,1.794,1.7759,1.7906,1.8008,1.8008,1.8008,1.7969,1.7871,1.748,1.709,1.6726,1.7051,1.7227,1.7227,1.7637,1.7861,1.7861,1.7959,1.7959,1.7861,1.7861,1.791,1.8008,1.8008,1.8008,0.5293,0.5739,0.6156,0.5976,0.6075,0.6156,0.597,0.5705,0.5471,0.0,0.0,0.5682,0.6298,0.6479,0.6927,0.8172,0.8858,0.0,0.0,0.0,0.0,0.0,0.0,0.0,0.0,0.0,0.0,0.0,0.0,1.5899,1.6059,1.6199,1.6469,1.679,1.672,1.6927,1.7434,1.7146,1.6947,1.6991,1.6647,1.6506,1.65,1.6206,1.6072,0.0,0.0,0.0,1.5784,1.5784,1.5784,1.5784,1.5784,1.5784,1.5784,1.5784,1.5784,1.5784,1.5784,1.5784,1.5784,1.5784,1.5784,1.5784,1.5784,1.5424,1.5008,1.5008,1.5031,1.5048,1.4769,1.5041,1.5389,1.5389,1.5707,1.6147,1.6617,1.7017,1.7354,1.7634,1.7543,1.7447,1.7621,1.7515,1.7545,1.794,1.8008,1.8008,1.8008,1.8008,1.8008,1.8008,1.8008,1.8008,1.8008,1.7803,1.7568,1.7301,1.7539,1.7666,1.7666,1.7891,1.8008,1.8008,1.8008,1.8008,1.8008,1.8008,1.8008,1.8008,1.8008,1.8008,0.5407,0.5914,0.635,0.6169,0.6196,0.625,0.6203,0.0,0.0,0.0,0.0,0.0,0.0,0.7143,0.0,0.0,0.0,0.0,0.0,0.0,0.0,0.0,0.0,0.0,0.0,0.0,0.0,0.0,0.0,1.5784,1.5784,1.6072,1.6274,1.6321,1.6466,1.6714,1.7065,1.6767,1.664,1.664,1.6346,1.6206,1.6192,1.5945,1.5784,1.5784,0.0,0.0,1.5784,1.5784,1.5784,1.5784,1.5784,1.5784,1.5784,1.5784,1.5784,1.5784,1.5784,1.5784,1.5784,1.5784,1.5784,1.5784,1.5784,1.5451,1.5068,1.5066,1.5246,1.5348,1.4824,1.5041,1.5389,1.5389,1.6064,1.6739,1.6862,1.7594,1.8228,1.8264,1.8304,1.8238,1.8104,1.8105,1.8086,1.8018,1.8008,1.8008,1.8008,1.8008,1.8008,1.8008,1.8008,1.8008,1.8008,1.8008,1.8008,1.8008,1.8008,1.8008,1.8008,1.8008,1.8008,1.8008,1.8008,1.8008,1.8008,1.8008,1.8008,1.8008,1.8042,1.8081,0.592,0.6666,0.7048,0.6025,0.6152,0.6479,0.625,0.6122,0.0,0.0,0.0,0.0,0.0,0.8167,0.0,0.0,0.0,0.0,0.0,0.0,0.0,0.0,0.0,0.0,0.0,0.0,0.0,0.0,0.0,1.5784,1.5784,1.5872,1.6012,1.6315,1.6072,1.6106,1.6455,1.6415,1.6339,1.6382,1.6039,1.5899,1.5899,1.5804,1.5784,1.5784,0.0,1.5784,1.5784,1.5784,1.5784,1.5784,1.5784,1.5784,1.5784,1.5784,1.5784,1.5784,1.5784,1.5784,1.5784,1.5784,1.5784,1.5784,1.5784,1.5591,1.5323,1.5262,1.5033,1.481,1.4713,1.5041,1.5389,1.5389,1.6064,1.6903,1.7634,1.8487,1.9194,1.9525,1.9617,1.9356,1.8656,1.851,1.8383,1.8057,1.8008,1.8008,1.8008,1.8008,1.8008,1.8008,1.8008,1.8008,1.8008,1.8008,1.8008,1.8008,1.8008,1.8008,1.8008,1.8008,1.8008,1.8008,1.8008,1.8008,1.8008,1.8008,1.8008,1.8008,1.8168,1.8478,0.5856,0.6489,0.6921,0.65,0.7108,0.7715,0.7444,0.7249,0.0,0.0,0.0,0.0,0.0,0.0,0.0,0.0,0.0,0.0,0.0,0.0,0.0,0.0,0.0,0.0,0.0,0.0,0.0,0.0,0.0,0.0,1.5784,1.5784,1.5892,1.6025,1.5899,1.5844,1.6032,1.6032,1.6032,1.6032,1.5844,1.5784,1.5784,1.5784,1.5784,1.5784,0.0,1.5784,1.5784,1.5784,1.5784,1.5784,1.5784,1.5784,1.5784,1.5784,1.5784,1.5784,1.5784,1.5784,1.5784,1.5784,1.5784,1.5784,1.5784,1.5725,1.5608,1.5563,1.53,1.4951,1.4916,1.5173,1.5506,1.5982,1.6788,1.7634,1.8527,1.9371,1.9965,1.9924,1.9912,1.9717,1.9092,1.8984,1.8838,1.8383,1.8315,1.8237,1.8037,1.8008,1.8008,1.8008,1.8008,1.8008,1.8008,1.8008,1.8008,1.8008,1.8008,1.8008,1.8008,1.8008,1.8008,1.8008,1.8008,1.8008,1.8008,1.8008,1.8008,1.8008,1.8076,1.8354,0.6007,0.64,0.678,0.7139,0.7863,0.8504,0.8564,0.8297,0.0,0.0,0.0,0.0,0.0,0.0,0.0,0.0,0.0,0.0,0.0,0.0,0.0,0.0,0.0,0.0,0.0,0.0,0.0,0.0,0.0,0.0,1.5784,1.5784,1.5784,1.5784,1.5784,1.5784,1.5784,1.5784,1.5784,1.5784,1.5784,1.5784,1.5784,1.5784,1.5784,1.5784,1.5784,1.5784,1.5784,1.5784,1.5784,1.5784,1.5784,1.5784,1.5784,1.5784,1.5784,1.5784,1.5784,1.5784,1.5784,1.5784,1.5784,1.5784,1.5784,1.5819,1.5826,1.5865,1.5603,1.5283,1.5219,1.5474,1.5865,1.6542,1.7513,1.8487,1.9143,1.9971,2.0507,2.0127,2.0068,1.9932,1.9502,1.9434,1.9287,1.8822,1.8666,1.849,1.8159,1.8076,1.8008,1.8008,1.8008,1.8008,1.8008,1.8008,1.8008,1.8008,1.8008,1.8008,1.8008,1.8008,1.8008,1.8008,1.8008,1.8008,1.8008,1.8008,1.8008,1.8008,1.8008,1.8178,0.6887,0.6995,0.7124,0.7772,0.7764,0.7873,0.8904,0.8744,0.0,0.9414,0.0,0.0,0.0,0.0,0.0,0.0,0.0,0.0,0.0,0.0,0.0,0.0,0.0,0.0,0.0,0.0,0.0,0.0,0.0,0.0,1.5784,1.5784,1.5784,1.5784,1.5784,1.5784,1.5784,1.5784,1.5784,1.5784,1.5784,1.5784,1.5784,1.5784,1.5784,1.5784,1.5784,1.5784,1.5784,1.5784,1.5784,1.5784,1.5784,1.5784,1.5784,1.5784,1.5784,1.5784,1.5784,1.5784,1.5784,1.5784,1.5784,1.5784,1.5784,1.5819,1.5819,1.6035,1.5819,1.5555,1.5584,1.6091,1.6617,1.6698,1.7997,1.9222,1.9301,1.9971,2.0595,2.0566,2.0556,2.0381,1.9941,1.9873,1.9727,1.9307,1.8896,1.8588,1.8559,1.8217,1.8008,1.8008,1.8008,1.8008,1.8008,1.8008,1.8008,1.8008,1.8008,1.8008,1.8008,1.8008,1.8008,1.8008,1.8008,1.8008,1.8008,1.8008,1.8008,1.8008,1.8008,1.8178,0.6513,0.6773,0.7162,0.7788,0.8126,0.0,0.0,0.9907,1.0414,1.0968,1.1276,0.0,0.0,0.0,0.0,0.0,0.0,0.0,0.0,0.0,0.0,0.0,0.0,0.0,0.0,0.0,0.0,0.0,0.0,0.0,1.5784,1.5784,1.5784,1.5784,1.5784,1.5784,1.5784,1.5784,1.5784,1.5784,1.5784,1.5784,1.5784,1.5784,1.5784,1.5784,1.5784,1.5784,1.5784,1.5784,1.5784,1.5784,1.5784,1.5784,1.5784,1.5784,1.5784,1.5784,1.5784,1.5784,1.5784,1.5784,1.5784,1.5832,1.5981,1.6183,1.6374,1.6607,1.6524,1.6322,1.5886,1.5834,1.6147,1.7229,1.7997,1.8807,1.9883,2.0372,2.0605,2.0605,2.0605,2.0546,2.039,2.0361,2.0264,2.0145,1.9648,1.9026,1.8305,1.8105,1.8008,1.8008,1.8008,1.8008,1.8008,1.8008,1.8008,1.8008,1.8008,1.8008,1.8008,1.8008,1.8008,1.8008,1.8008,1.8008,1.8008,1.8008,1.8008,1.8037,1.9102,1.9969,0.6585,0.6815,0.733,0.8021,0.0,0.0,1.006,1.0782,1.1476,1.2158,1.2298,0.0,0.0,0.0,0.0,0.0,0.0,0.0,0.0,0.0,0.0,0.0,0.0,0.0,0.0,0.0,0.0,0.0,0.0,0.0,0.0,1.5784,1.5784,1.5784,1.5784,1.5784,1.5784,1.5784,1.5784,1.5784,1.5784,1.5784,1.5784,1.5784,1.5784,1.5784,1.5784,1.5784,1.5784,1.5784,1.5784,1.5784,1.5784,1.5784,1.5784,1.5784,1.5784,1.5784,1.5784,1.5784,1.5784,1.5784,1.5784,1.5832,1.6123,1.6407,1.6636,1.6878,1.6899,1.6778,1.644,1.6137,1.6319,1.7668,1.8198,1.8807,2.0284,2.0605,2.0605,2.0605,2.0605,2.0605,2.0605,2.0605,2.0605,2.0605,2.0244,1.9707,1.8916,1.835,1.8223,1.876,1.834,1.8008,1.8008,1.8506,1.8818,1.8818,1.8311,1.8008,1.8008,1.8008,1.8008,1.8008,1.8008,1.8008,1.8008,1.8008,1.8291,1.8848,2.0057,2.1031,0.7322,0.7294,0.7729,0.0,0.0,0.0,1.1136,1.1216,1.143,1.2913,0.0,1.2498,1.3106,0.0,0.0,0.0,0.0,0.0,0.0,0.0,0.0,0.0,0.0,0.0,0.0,0.0,0.0,0.0,0.0,0.0,0.0,1.5784,1.5784,1.5784,1.5784,1.5784,1.5784,1.5784,1.5784,1.5784,1.5784,1.5784,1.5784,1.5784,1.5784,1.5784,1.5784,1.5784,1.5784,1.5784,1.5784,1.5784,1.5784,1.5784,1.5784,1.5784,1.5784,1.5784,1.5784,1.5784,1.5784,1.5784,1.5784,1.5832,1.6123,1.6407,1.6636,1.677,1.6749,1.6791,1.7216,1.7271,1.7303,1.7848,1.8647,1.9539,2.0401,2.0605,2.0605,2.0605,2.0605,2.0605,2.0605,2.0605,2.0605,2.0605,2.0605,2.0605,2.0605,1.9082,1.8682,2.0429,1.9053,1.8037,1.8037,1.9627,2.0605,2.0605,1.8975,1.8027,1.8008,1.8008,1.8008,1.8008,1.8027,1.8037,1.8037,1.8037,1.8906,2.0605,2.0605,2.1031,0.6719,0.7282,0.0,0.8699,0.0,0.0,0.0,1.2328,0.0,0.0,1.3514,1.326,1.344,0.0,0.0,0.0,0.0,0.0,0.0,0.0,0.0,0.0,0.0,0.0,0.0,0.0,0.0,0.0,0.0,0.0,0.0,1.5784,1.5784,1.5784,1.5784,1.5784,1.5784,1.5784,1.5784,1.5784,1.5784,1.5784,1.5784,1.5784,1.5784,1.5784,1.5784,1.5784,1.5784,1.5784,1.5784,1.5784,1.5784,1.5784,1.5784,1.5784,1.5784,1.5784,1.5784,1.5784,1.5784,1.5784,1.5784,1.5879,1.6157,1.6346,1.6487,1.7005,1.7145,1.7165,1.725,1.6958,1.6558,1.6251,1.7318,1.8807,2.0284,2.0605,2.0605,2.0605,2.0605,2.0605,2.0605,2.0605,2.0605,2.0605,2.0605,2.0605,2.0605,2.0165,2.0038,2.0546,2.0155,1.9842,1.9842,2.0312,2.0605,2.0605,2.0126,1.9268,1.8057,1.8008,1.8008,1.8008,1.9189,1.9842,1.9842,1.9842,2.0106,2.0605,2.1185,2.1568,0.7216,0.7966,0.0,0.9686,1.0735,1.1864,1.2872,0.0,0.0,0.0,0.0,0.0,0.0,0.0,0.0,0.0,0.0,0.0,0.0,0.0,0.0,0.0,0.0,0.0,0.0,0.0,0.0,0.0,0.0,0.0,0.0,1.5784,1.5784,1.5784,1.5784,1.5784,1.5784,1.5784,1.5784,1.5784,1.5784,1.5784,1.5784,1.5784,1.5784,1.5784,1.5784,1.5784,1.5784,1.5784,1.5784,1.5784,1.5784,1.5784,1.5784,1.5784,1.5784,1.5784,1.5784,1.5784,1.5784,1.5784,1.5784,1.5825,1.6062,1.6251,1.6534,1.7138,1.7279,1.7162,1.6659,1.666,1.6528,1.5643,1.6714,1.8479,2.0206,2.0605,2.0605,2.0605,2.0605,2.0605,2.0605,2.0605,2.0605,2.0605,2.0605,2.0605,2.0605,2.0605,2.0605,2.0605,2.0605,2.0605,2.0605,2.0605,2.0605,2.0605,2.0605,2.0136,1.9072,1.9023,1.9023,1.9023,2.0077,2.0605,2.0605,2.0605,2.0605,2.0605,2.1415,2.1807,0.8265,0.0,0.0,1.1069,0.0,0.0,0.0,0.0,0.0,0.0,0.0,0.0,0.0,0.0,0.0,0.0,0.0,0.0,0.0,0.0,0.0,0.0,0.0,0.0,0.0,0.0,0.0,0.0,0.0,0.0,0.0,1.5784,1.5784,1.5784,1.5784,1.5784,1.5784,1.5784,1.5784,1.5784,1.5784,1.5784,1.5784,1.5784,1.5784,1.5784,1.5784,1.5784,1.5784,1.5784,1.5784,1.5784,1.5784,1.5784,1.5784,1.5784,1.5784,1.5784,1.5784,1.5784,1.5784,1.5784,1.5784,1.5825,1.5927,1.6204,1.6629,1.7138,1.7279,1.7016,1.5856,1.6418,1.6994,1.5834,1.6925,1.8678,2.0245,2.0605,2.0605,2.0605,2.0605,2.0605,2.0605,2.0605,2.0605,2.0605,2.0605,2.0605,2.0605,2.0605,2.0605,2.0605,2.0605,2.0605,2.0605,2.0605,2.0605,2.0605,2.0605,2.0605,2.0605,2.0605,2.0605,2.0605,2.0605,2.0605,2.0605,2.0605,2.0605,2.0605,2.1415,2.1807,0.7674,0.8677,0.0,0.0,0.0,0.0,0.0,0.0,0.0,0.0,0.0,0.0,0.0,0.0,0.0,0.0,0.0,0.0,0.0,0.0,0.0,0.0,0.0,0.0,0.0,0.0,0.0,0.0,0.0,0.0,1.5784,1.5784,1.5784,1.5784,1.5784,1.5784,1.5784,1.5784,1.5784,0.0,1.5784,1.5784,1.5784,1.5784,1.5784,1.5784,1.5784,1.5784,1.5784,1.5784,1.5784,1.5784,1.5784,1.5784,1.5784,1.5784,1.5784,1.5784,1.5784,1.5784,1.5784,1.5784,1.5784,1.5967,1.6716,1.6534,1.6157,1.7044,1.7279,1.722,1.6943,1.7074,1.7213,1.6936,1.8507,2.0118,2.0527,2.0605,2.0605,2.0605,2.0605,2.0605,2.0605,2.0605,2.0605,2.0605,2.0605,2.0605,2.0605,2.0605,2.0605,2.0605,2.0605,2.0605,2.0605,2.0605,2.0605,2.0605,2.0605,2.0605,2.0605,2.0605,2.0605,2.0605,2.0605,2.0605,2.0605,2.0605,2.0605,2.0605,2.1415,2.1807,0.0,0.0,0.0,0.0,0.0,0.0,0.0,0.0,0.0,0.0,0.0,0.0,0.0,0.0,0.0,0.0,0.0,0.0,0.0,0.0,0.0,0.0,0.0,0.0,0.0,0.0,0.0,0.0,0.0,1.5784,1.5784,1.5784,1.5784,1.5784,1.5784,1.5879,1.5981,1.5981,1.6069,1.6163,1.6163,1.6116,1.5981,1.5879,1.5784,1.5784,1.5784,1.5784,1.5784,1.5784,1.5784,1.5784,1.5784,1.5784,1.5784,1.5784,1.5784,1.5784,1.5784,1.5784,1.5784,1.5784,1.5784,1.5967,1.6998,1.6904,1.6629,1.7138,1.7279,1.7279,1.7279,1.7279,1.7581,1.863,1.9757,2.0605,2.0605,2.0605,2.0605,2.0605,2.0605,2.0605,2.0605,2.0605,2.0605,2.0605,2.0605,2.0605,2.0605,2.0605,2.0605,2.0605,2.0605,2.0605,2.0605,2.0605,2.0605,2.0605,2.0605,2.0605,2.0605,2.0605,2.0605,2.0605,2.0605,2.0605,2.0605,2.0605,2.0799,2.1185,2.1606,2.1807,0.0,0.0,0.0,0.0,0.0,0.0,0.0,0.0,0.0,0.0,0.0,0.0,0.0,0.0,0.0,0.0,0.0,0.0,0.0,0.0,0.0,0.0,0.0,0.0,0.0,0.0,0.0,0.0,0.0,1.5784,1.5784,1.5784,1.5825,1.5879,1.5825,1.5927,1.6272,1.6224,1.6312,1.6588,1.6541,1.64,1.6123,1.5879,1.5784,1.5784,1.5784,1.5784,1.5784,1.5784,1.5832,1.5879,1.5832,1.5832,1.5879,1.5832,1.5784,1.5784,1.5784,1.5784,1.5784,1.5784,1.592,1.6204,1.7044,1.7279,1.7279,1.7279,1.7279,1.7279,1.7279,1.7279,1.7849,2.0061,2.083,2.1006,2.1006,2.0811,2.0605,2.0605,2.0605,2.0605,2.0605,2.0605,2.0605,2.0605,2.0605,2.0605,2.0605,2.0605,2.0605,2.0605,2.0605,2.0605,2.0605,2.0605,2.0605,2.0605,2.0605,2.0605,2.0605,2.0605,2.0605,2.0605,2.0605,2.0605,2.0605,2.0605,2.0992,2.1807,2.1807,2.1807,0.0,0.0,0.0,0.0,0.0,0.0,0.0,0.0,0.0,0.0,0.0,0.0,0.0,0.0,0.0,0.0,0.0,0.0,0.0,0.0,0.0,0.0,0.0,0.0,0.0,0.0,0.0,0.0,1.5784,1.5784,1.5784,1.5784,1.5927,1.613,1.5927,1.6015,1.6541,1.6312,1.6312,1.6588,1.6359,1.6123,1.5832,1.5832,1.5784,1.5784,1.5784,1.5784,1.5784,1.5784,1.5933,1.6123,1.5879,1.5927,1.6123,1.5879,1.5784,1.5784,1.5784,1.5784,1.5784,1.5784,1.6393,1.7138,1.7286,1.7279,1.7279,1.7279,1.7279,1.7279,1.7279,1.7279,1.7849,2.0061,2.1709,2.275,2.275,2.1621,2.0605,2.0605,2.0605,2.0605,2.0605,2.0605,2.0605,2.0605,2.0605,2.0605,2.0605,2.0605,2.0605,2.0605,2.0605,2.0605,2.0605,2.0605,2.0605,2.0605,2.0605,2.0605,2.0605,2.0605,2.0605,2.0605,2.0605,2.0605,2.0605,2.0605,2.0992,2.1807,2.1807,2.1807,0.7921,0.9397,1.0874,0.0,0.0,0.0,0.0,0.0,0.0,0.0,0.0,0.0,0.0,0.0,0.0,0.0,0.0,0.0,0.0,0.0,0.0,0.0,0.0,0.0,0.0,0.0,0.0,0.0,1.5784,1.5879,1.6028,1.6028,1.617,1.6407,1.6305,1.6447,1.6831,1.6697,1.6784,1.7005,1.656,1.6244,1.5997,1.5648,1.5617,1.5784,1.5784,1.5784,1.5832,1.5974,1.6076,1.6224,1.6258,1.6305,1.6407,1.6157,1.6062,1.6062,1.5872,1.5784,1.5784,1.5784,1.6487,1.7279,1.7279,1.7279,1.7279,1.7279,1.7279,1.7279,1.7279,1.7279,1.8087,2.1273,2.2545,2.3091,2.3091,2.2496,2.1719,2.0791,2.0605,2.0605,2.0605,2.0605,2.0605,2.0605,2.0605,2.0605,2.0605,2.0605,2.0605,2.0605,2.0605,2.0605,2.0605,2.0605,2.0605,2.0605,2.0605,2.0605,2.0605,2.0605,2.0605,2.0605,2.0605,2.0605,2.0605,2.0605,2.0992,2.1807,2.1807,2.1807,0.8038,0.9152,1.0171,1.1516,0.0,0.0,0.0,0.0,0.0,0.0,0.0,0.0,0.0,0.0,0.0,0.0,0.0,0.0,0.0,0.0,0.0,0.0,0.0,0.0,0.0,0.0,0.0,0.0,1.5879,1.6028,1.6312,1.6312,1.6407,1.6683,1.6636,1.6741,1.6951,1.6944,1.7037,1.7069,1.6706,1.632,1.6046,1.5597,1.5511,1.5765,1.5718,1.5758,1.5825,1.6076,1.6224,1.6312,1.6541,1.6629,1.6629,1.6393,1.6251,1.6157,1.5879,1.5784,1.5825,1.6109,1.6669,1.7279,1.7279,1.7279,1.7279,1.7279,1.7279,1.7279,1.7279,1.7279,1.828,2.2183,2.3091,2.3091,2.3091,2.3091,2.2711,2.1465,2.1261,2.1261,2.1261,2.1261,2.1104,2.0674,2.0605,2.0605,2.0605,2.0605,2.0605,2.0605,2.0997,2.1261,2.1261,2.1261,2.1261,2.1261,2.1261,2.1261,2.1261,2.1261,2.1055,2.0615,2.0605,2.0605,2.0605,2.0605,2.0915,2.1502,2.1502,2.1502,0.7256,0.7665,0.0,1.0198,0.0,0.0,0.0,0.0,0.0,0.0,0.0,0.0,0.0,0.0,0.0,0.0,0.0,0.0,0.0,0.0,0.0,0.0,0.0,0.0,0.0,0.0,0.0,0.0,1.6177,1.6312,1.6541,1.6588,1.6683,1.6979,1.673,1.6675,1.6887,1.6925,1.6795,1.6528,1.6514,1.6206,1.5634,1.562,1.5614,1.5701,1.551,1.5578,1.5825,1.6076,1.6359,1.6588,1.6581,1.6676,1.6763,1.644,1.6109,1.5825,1.5832,1.5784,1.5967,1.6911,1.7286,1.7279,1.7279,1.7279,1.7279,1.7279,1.7279,1.7279,1.7279,1.7279,1.828,2.2183,2.3091,2.3091,2.3091,2.3091,2.3062,2.2984,2.2964,2.2964,2.2964,2.2964,2.2409,2.085,2.0605,2.0605,2.0605,2.0605,2.0605,2.0605,2.2031,2.2964,2.2964,2.2964,2.2964,2.2964,2.2964,2.2964,2.2964,2.2964,2.2236,2.0635,2.0605,2.0605,2.0605,2.0605,2.0605,2.0644,2.0644,2.0644,0.6827,0.7349,0.0,0.0,0.0,0.0,0.0,0.0,0.0,0.0,0.0,0.0,0.0,0.0,0.0,0.0,0.0,0.0,0.0,0.0,0.0,0.0,0.0,0.0,0.0,0.0,0.0,0.0,0.0,1.6407,1.6831,1.6639,1.6671,1.6941,1.6646,1.6525,1.6587,1.6587,1.6543,1.6409,1.622,1.5929,1.5589,1.5383,1.5444,1.5697,1.5607,1.5759,1.6076,1.6359,1.6595,1.6878,1.7005,1.7091,1.7099,1.7005,1.6857,1.6763,1.6763,1.6763,1.681,1.7185,1.7279,1.7279,1.7279,1.7279,1.7279,1.7279,1.7279,1.7279,1.7279,1.7279,1.828,2.2183,2.3091,2.3091,2.3091,2.3091,2.3091,2.3091,2.3091,2.3091,2.3091,2.3091,2.2886,2.2305,2.2217,2.2217,2.2217,2.2217,2.2217,2.2217,2.273,2.3091,2.3091,2.3091,2.3091,2.3091,2.3091,2.3091,2.3091,2.3091,2.2808,2.2227,2.2217,2.168,2.0605,2.0605,2.0605,2.0605,2.0605,2.1521,0.6667,0.0,0.0,0.0,0.0,0.0,0.0,0.0,0.0,0.0,0.0,0.0,0.0,0.0,0.0,0.0,0.0,0.0,0.0,0.0,0.0,0.0,0.0,0.0,0.0,0.0,0.0,0.0,0.0,0.0,1.6961,1.6752,1.6677,1.6741,1.6426,1.6309,1.6411,1.6309,1.6213,1.6213,1.6009,1.5769,1.5532,1.5316,1.5433,1.5805,1.5805,1.6022,1.6359,1.6636,1.6831,1.7026,1.7239,1.7279,1.7279,1.7279,1.7279,1.7279,1.7279,1.7279,1.7279,1.7279,1.7279,1.7279,1.7279,1.7279,1.7279,1.7279,1.7279,1.7279,1.7279,1.828,1.9914,2.2501,2.3091,2.3091,2.3091,2.3091,2.3091,2.3091,2.3091,2.3091,2.3091,2.3091,2.3091,2.3091,2.3091,2.3091,2.3091,2.3091,2.3091,2.3091,2.3091,2.3091,2.3091,2.3091,2.3091,2.3091,2.3091,2.3091,2.3091,2.3091,2.3091,2.3091,2.3091,2.2526,2.1426,2.1426,2.1426,2.1426,2.1426,2.2549,0.0,0.0,0.0,0.0,0.0,0.0,0.0,0.0,0.0,0.0,0.0,0.0,0.0,0.0,0.0,0.0,0.0,0.0,0.0,0.0,0.0,0.0,0.0,0.0,0.0,0.0,0.0,0.0,1.6803,1.6954,1.6903,1.6873,1.6719,1.6397,1.6052,1.6045,1.6382,1.6045,1.5899,1.5899,1.5899,1.5695,1.5389,1.5396,1.5611,1.6027,1.6034,1.6256,1.6636,1.6885,1.6979,1.7026,1.7239,1.7279,1.7279,1.7279,1.7279,1.7279,1.7279,1.7279,1.7279,1.7279,1.7279,1.7279,1.7279,1.7279,1.7279,1.7279,1.7279,1.7326,1.7419,2.0277,2.3091,2.3091,2.3091,2.3091,2.3091,2.3091,2.3091,2.3091,2.3091,2.3091,2.3091,2.3091,2.3091,2.3091,2.3091,2.3091,2.3091,2.3091,2.3091,2.3091,2.3091,2.3091,2.3091,2.3091,2.3091,2.3091,2.3091,2.3091,2.3091,2.3091,2.3091,2.3091,2.3091,2.3091,2.3091,2.3091,2.3091,2.3091,2.3135,2.3624,0.6848,0.0,0.0,0.0,0.0,0.0,0.0,0.0,0.0,0.0,0.0,0.0,0.0,0.0,0.0,0.0,0.0,0.0,0.0,0.0,0.0,0.0,0.0,0.0,0.0,0.0,0.0,0.0,1.6014,1.6204,1.6506,1.6294,1.6023,1.5701,1.5606,1.5564,1.5687,1.5564,1.552,1.552,1.552,1.5476,1.5396,1.563,1.5951,1.63,1.6533,1.6815,1.7099,1.7019,1.7113,1.7239,1.7279,1.7279,1.7279,1.7279,1.7279,1.7279,1.7279,1.7279,1.7279,1.7279,1.7279,1.7279,1.7279,1.7279,1.7279,1.7279,1.7279,1.7963,2.0782,2.2271,2.3091,2.3091,2.3091,2.3091,2.3091,2.3091,2.3091,2.3091,2.3091,2.3091,2.3091,2.3091,2.3091,2.3091,2.3091,2.3091,2.3091,2.3091,2.3091,2.3091,2.3091,2.3091,2.3091,2.3091,2.3091,2.3091,2.3091,2.3091,2.3091,2.3091,2.3091,2.3091,2.3091,2.3091,2.3091,2.3091,2.3091,2.3135,2.3797,2.4229,0.7652,0.0,0.0,0.0,0.0,0.0,0.0,1.0393,0.0,0.0,0.0,0.0,0.0,0.0,0.0,0.0,0.0,0.0,0.0,0.0,0.0,0.0,0.0,0.0,0.0,1.5195,1.5404,1.5665,1.5798,1.5926,1.6191,1.5884,1.5579,1.5389,1.5389,1.5389,1.5389,1.5389,1.5389,1.5389,1.5389,1.5389,1.5396,1.5586,1.595,1.6426,1.6617,1.6908,1.7286,1.7153,1.72,1.7279,1.7279,1.7279,1.7279,1.7279,1.7279,1.7279,1.7279,1.7279,1.7279,1.7279,1.7279,1.7279,1.7279,1.7279,1.7279,1.7279,1.8465,2.0232,2.2501,2.3091,2.3091,2.3091,2.3091,2.3091,2.3091,2.3091,2.3091,2.3091,2.3091,2.3091,2.3091,2.3091,2.3091,2.3091,2.3091,2.3091,2.3091,2.3091,2.3091,2.3091,2.3091,2.3091,2.3091,2.3091,2.3091,2.3091,2.3091,2.3091,2.3091,2.3091,2.3091,2.3091,2.3091,2.3091,2.3091,2.3091,2.3309,2.3711,2.4239,2.4497,0.9013,0.9515,0.0,0.0,0.0,0.0,1.0957,1.0686,1.0364,0.0,0.0,0.0,0.0,0.0,0.0,0.0,0.0,0.0,0.0,0.0,0.0,0.0,0.0,0.0,1.5147,1.5399,1.5611,1.5611,1.5832,1.5893,1.5834,1.5542,1.5389,1.5389,1.5389,1.5389,1.5389,1.5389,1.5389,1.5389,1.5389,1.5389,1.5389,1.5425,1.5811,1.6411,1.6448,1.6769,1.7279,1.7279,1.7279,1.7279,1.7279,1.7279,1.7279,1.7279,1.7279,1.7279,1.7279,1.7279,1.7279,1.7279,1.7279,1.7279,1.7279,1.7279,1.7372,1.7831,2.0413,2.3091,2.3091,2.3091,2.3091,2.3091,2.3091,2.3091,2.3091,2.3091,2.3091,2.3091,2.3091,2.3091,2.3091,2.3091,2.3091,2.3091,2.3091,2.3091,2.3091,2.3091,2.3091,2.3091,2.3091,2.3091,2.3091,2.3091,2.3091,2.3091,2.3091,2.3091,2.3091,2.3091,2.3091,2.3091,2.3091,2.3135,2.3276,2.3276,2.3667,2.4497,2.4411,2.4325,1.0969,1.1256,1.1481,1.0278,0.0,0.0,0.9467,0.9235,0.9383,0.0,0.0,0.0,0.0,0.0,0.0,0.0,0.0,0.0,0.0,0.0,0.0,0.0,0.0,0.0,1.4783,1.4838,1.4965,1.5184,1.5402,1.55,1.5484,1.5425,1.5389,1.5389,1.5389,1.5389,1.5389,1.5389,1.5389,1.5389,1.5389,1.5389,1.5396,1.5701,1.6023,1.6426,1.669,1.6974,1.7279,1.7279,1.7279,1.7279,1.7279,1.7279,1.7279,1.7279,1.7279,1.7279,1.7279,1.7279,1.7279,1.7279,1.7279,1.7279,1.7279,1.7279,1.7963,2.1096,2.2501,2.3091,2.3091,2.3091,2.3091,2.3091,2.3091,2.3091,2.3091,2.3091,2.3091,2.3091,2.3091,2.3091,2.3091,2.3091,2.3091,2.3091,2.3091,2.3091,2.3091,2.3091,2.3091,2.3091,2.3091,2.3091,2.3091,2.3091,2.3091,2.3091,2.3091,2.3091,2.3091,2.3091,2.3091,2.3091,2.3091,2.3493,2.4239,2.4239,2.4325,2.4497,2.3711,2.3353,1.152,1.1913,1.2418,1.1204,0.0,0.0,0.0,0.9994,1.0044,1.0588,0.0,0.0,0.0,0.0,0.0,0.0,0.0,0.0,0.0,0.0,0.0,0.0,0.0,0.0,1.4674,1.4816,1.4957,1.509,1.5173,1.5305,1.5389,1.5389,1.5389,1.5389,1.5389,1.5389,1.5389,1.5389,1.5389,1.5389,1.5389,1.5389,1.5389,1.5557,1.5928,1.6411,1.6382,1.666,1.7077,1.6916,1.685,1.6879,1.7155,1.7279,1.7279,1.7279,1.7279,1.7279,1.7279,1.7279,1.7279,1.7279,1.7279,1.7279,1.7279,1.865,2.0593,2.2545,2.3091,2.3091,2.3091,2.3091,2.3091,2.3091,2.3091,2.3091,2.3091,2.3091,2.3091,2.3091,2.3091,2.3091,2.3091,2.3091,2.3091,2.3091,2.3091,2.3091,2.3091,2.3091,2.3091,2.3091,2.3091,2.3091,2.3091,2.3091,2.3091,2.3091,2.3091,2.3091,2.3091,2.3091,2.3091,2.3091,2.3091,2.3319,2.3797,2.3797,2.3797,2.3797,2.3309,2.3091,0.0,0.0,0.0,0.0,0.0,1.19,0.0,0.0,0.0,1.147,0.0,0.0,0.0,0.0,0.0,0.0,0.0,0.0,0.0,0.0,0.0,0.0,0.0,0.0,0.0,1.465,1.4885,1.5065,1.4964,1.5027,1.5374,1.5389,1.5389,1.5389,1.5389,1.5389,1.5389,1.5389,1.5389,1.5389,1.5389,1.5389,1.5389,1.5389,1.5738,1.6309,1.6023,1.6235,1.6785,1.6521,1.65,1.6684,1.6983,1.7223,1.7279,1.7279,1.7279,1.7279,1.7279,1.7279,1.7279,1.7279,1.7279,1.7279,1.7279,2.0005,2.3091,2.3091,2.3091,2.3091,2.3091,2.3091,2.3091,2.3091,2.3091,2.3091,2.3091,2.3091,2.3091,2.3091,2.3091,2.3091,2.3091,2.3091,2.3091,2.3091,2.3091,2.3091,2.3091,2.3091,2.3091,2.3091,2.3091,2.3091,2.3091,2.3091,2.3091,2.3091,2.3091,2.3091,2.3091,2.3091,2.3091,2.3091,2.3091,2.3091,2.3091,2.3091,2.3091,2.3091,2.3091,2.3178,0.0,0.0,0.0,0.0,1.3601,0.0,0.0,0.0,1.0793,1.0466,0.0,0.0,0.0,0.0,0.0,0.0,0.0,0.0,0.0,0.0,0.0,0.0,0.0,0.0,0.0,1.382,1.4032,1.4852,1.4433,1.4484,1.5345,1.5389,1.5389,1.5389,1.5389,1.5389,1.5389,1.5389,1.5389,1.5389,1.5389,1.5389,1.5389,1.5389,1.5579,1.5965,1.5935,1.6111,1.6463,1.6426,1.6844,1.7501,1.6795,1.6828,1.7279,1.7279,1.7279,1.7279,1.7279,1.7279,1.7279,1.7279,1.7279,1.7279,1.7279,2.0005,2.3091,2.3091,2.3091,2.3091,2.3091,2.3091,2.3091,2.3091,2.3091,2.3091,2.3091,2.3091,2.3091,2.3091,2.3091,2.3091,2.3091,2.3091,2.3091,2.3091,2.3091,2.3091,2.3091,2.3091,2.3091,2.3091,2.3091,2.3091,2.3091,2.3091,2.3091,2.3091,2.3091,2.3091,2.3091,2.3091,2.3091,2.3091,2.3091,2.3091,2.3091,2.3091,2.3091,2.3091,2.3091,2.3537,0.0,0.0,0.0,0.0,0.0,0.0,1.2574,0.0,1.1447,0.0,0.0,0.0,0.0,0.0,0.0,0.0,0.0,0.0,0.0,0.0,0.0,0.0,0.0,0.0,0.0,0.0,0.0,0.0,1.4062,1.4121,1.5053,1.5104,1.5192,1.5382,1.5389,1.5389,1.5389,1.5389,1.5389,1.5389,1.5389,1.5389,1.5431,1.5906,1.6331,1.668,1.6982,1.7295,1.76,1.7391,1.7345,1.7303,1.6933,1.6802,1.6813,1.7194,1.7279,1.7279,1.7279,1.7279,1.7279,1.7279,1.8826,2.0692,2.0692,2.1819,2.3091,2.3091,2.3091,2.3091,2.3091,2.3091,2.3091,2.3091,2.3091,2.3091,2.3091,2.3091,2.3091,2.3091,2.3091,2.3091,2.3091,2.3091,2.3091,2.3091,2.3091,2.3091,2.3091,2.3091,2.3091,2.3091,2.3091,2.3091,2.3091,2.3091,2.3091,2.3091,2.3091,2.3091,2.3091,2.3091,2.3091,2.3091,2.3091,2.3091,2.3091,2.3091,2.3091,2.3091,2.3667,2.411,1.5741,0.0,0.0,0.0,0.0,0.0,0.0,0.0,0.0,0.0,0.0,0.0,0.0,0.0,0.0,0.0,0.0,0.0,0.0,0.0,0.0,0.0,0.0,0.0,0.0,0.0,0.0,0.0,0.0,1.3814,1.475,1.505,1.5246,1.5243,1.5345,1.5389,1.5389,1.5476,1.5476,1.5431,1.5851,1.5962,1.579,1.6761,1.7301,1.7439,1.7833,1.8151,1.835,1.8108,1.7836,1.7594,1.7423,1.7424,1.7474,1.6982,1.7652,1.8872,1.8872,1.8872,1.8872,1.8872,2.0818,2.3091,2.3091,2.3091,2.3091,2.3091,2.3091,2.3091,2.3091,2.3091,2.3091,2.3091,2.3091,2.3091,2.3091,2.3091,2.3091,2.3091,2.3091,2.3091,2.3091,2.3091,2.3091,2.3091,2.3091,2.3091,2.3091,2.3091,2.3091,2.3091,2.3091,2.3091,2.3091,2.3091,2.3091,2.3091,2.3091,2.3091,2.3091,2.3091,2.3091,2.3091,2.3091,2.3091,2.3091,2.3091,2.3222,2.3493,2.4186,2.4766,0.0,0.0,0.0,1.5151,0.0,0.0,0.0,0.0,1.3682,0.0,0.0,0.0,0.0,0.0,0.0,0.0,0.0,0.0,0.0,0.0,0.0,0.0,0.0,0.0,0.0,0.0,0.0,0.0,0.0,0.0,1.4477,1.5511,1.5728,1.4955,1.5221,1.5389,1.5389,1.5695,1.5695,1.5438,1.697,1.735,1.6706,1.7953,1.834,1.7974,1.8006,1.8006,1.8014,1.8006,1.8327,1.8776,1.8198,1.8975,2.0048,1.6696,1.8616,2.2916,2.2916,2.2916,2.2916,2.2916,2.3003,2.3091,2.3091,2.3091,2.3091,2.3091,2.3091,2.3091,2.3091,2.3091,2.3091,2.3091,2.3091,2.3091,2.3091,2.3091,2.3091,2.3091,2.3091,2.3091,2.3091,2.3091,2.3091,2.3091,2.3091,2.3091,2.3091,2.3091,2.3091,2.3091,2.3091,2.3091,2.3091,2.3091,2.3091,2.3091,2.3091,2.3091,2.3091,2.3091,2.3091,2.3091,2.3091,2.3091,2.3091,2.3091,2.358,2.4454,2.4497,2.5492,0.0,0.0,1.8128,1.6175,0.0,0.0,0.0,0.0,0.0,0.0,0.0,0.0,0.0,0.0,0.0,0.0,0.0,0.0,0.0,0.0,0.0,0.0,0.0,0.0,0.0,0.0,0.0,0.0,1.2161,0.0,0.0,1.4979,1.5228,1.5673,1.6044,1.5982,1.5431,1.6095,1.6529,1.6721,1.6964,1.7373,1.7986,1.8531,1.8812,1.8895,1.9481,1.9717,1.9717,1.9717,1.9844,2.001,1.9805,2.0079,2.0576,2.0526,2.1618,2.3091,2.3091,2.3091,2.3091,2.3091,2.3091,2.3091,2.3091,2.3091,2.3091,2.3091,2.3091,2.3091,2.3091,2.3091,2.3091,2.3091,2.3091,2.3091,2.3091,2.3091,2.3091,2.3091,2.3091,2.3091,2.3091,2.3091,2.3091,2.3091,2.3091,2.3091,2.3091,2.3091,2.3091,2.3091,2.3091,2.3091,2.3091,2.3091,2.3091,2.3091,2.3091,2.3091,2.3091,2.3091,2.3637,2.4787,2.4816,2.4816,2.4806,2.3656,2.4212,2.6341,2.6341,2.6672,1.8788,1.8999,0.0,1.6743,1.6317,0.0,1.3867,0.0,0.0,0.0,0.0,0.0,0.0,0.0,0.0,0.0,0.0,0.0,0.0,0.0,0.0,0.0,0.0,0.0,0.0,0.0,1.0752,1.2535,1.2375,0.0,0.0,0.0,1.5661,1.5535,1.6573,1.6747,1.5865,1.6669,1.7223,1.7614,1.7687,1.8054,1.8725,1.9443,1.9795,1.9775,2.0372,2.0605,2.0605,2.0605,2.0605,2.0605,2.0605,2.0605,2.0811,2.2457,2.3091,2.3091,2.3091,2.3091,2.3091,2.3091,2.3091,2.3091,2.3091,2.3091,2.3091,2.3091,2.3091,2.3091,2.3091,2.3091,2.3091,2.3091,2.3091,2.3091,2.3091,2.3091,2.3091,2.3091,2.3091,2.3091,2.3091,2.3091,2.3091,2.3091,2.3091,2.3091,2.3091,2.3091,2.3091,2.3091,2.3091,2.3091,2.3091,2.3091,2.3091,2.3091,2.3091,2.3091,2.3091,2.3686,2.4543,2.5664,2.5693,2.5878,2.6255,2.5155,2.5554,2.7309,2.7309,2.7119]}]]